Wetterdaten: Dienstag, 16.02.2016
Datum Zeit Auen-Temp. Temp gefhlt Luftfeuchte Luftdruck Regen Wind Richtung Richtung Sonnenschein Taupunkt Windben
16.02.2016 00:00 1,1 C 0,9 C 88 % 1020,6 hPa 0,0 mm 3,9 km/h (1 Bft) O-NO 67 0 min -0,7 C 4,2 km/h (1 Bft)
16.02.2016 00:01 1,1 C 0,9 C 88 % 1020,6 hPa 0,0 mm 3,3 km/h (1 Bft) N-NO 22 0 min -0,7 C 4,2 km/h (1 Bft)
16.02.2016 00:02 1,1 C 0,9 C 88 % 1020,6 hPa 0,0 mm 3,3 km/h (1 Bft) N-NO 22 0 min -0,7 C 4,2 km/h (1 Bft)
16.02.2016 00:03 1,1 C 0,9 C 88 % 1020,8 hPa 0,0 mm 3,3 km/h (1 Bft) N-NO 22 0 min -0,7 C 4,2 km/h (1 Bft)
16.02.2016 00:04 1,1 C 0,9 C 88 % 1020,8 hPa 0,0 mm 3,3 km/h (1 Bft) N-NO 22 0 min -0,7 C 4,2 km/h (1 Bft)
16.02.2016 00:05 1,1 C 0,9 C 88 % 1020,8 hPa 0,0 mm 2,7 km/h (1 Bft) N-NW 337 0 min -0,7 C 0,0 km/h (0 Bft)
16.02.2016 00:06 1,1 C 0,9 C 88 % 1020,8 hPa 0,0 mm 2,7 km/h (1 Bft) N-NW 337 0 min -0,7 C 0,0 km/h (0 Bft)
16.02.2016 00:07 1,1 C 0,9 C 88 % 1020,8 hPa 0,0 mm 2,4 km/h (1 Bft) NO 45 0 min -0,7 C 0,0 km/h (0 Bft)
16.02.2016 00:08 1,1 C 0,9 C 88 % 1020,8 hPa 0,0 mm 2,4 km/h (1 Bft) NO 45 0 min -0,7 C 0,0 km/h (0 Bft)
16.02.2016 00:09 1,1 C 0,9 C 88 % 1020,8 hPa 0,0 mm 2,4 km/h (1 Bft) NO 45 0 min -0,7 C 6,9 km/h (2 Bft)
16.02.2016 00:10 1,1 C 0,9 C 88 % 1020,8 hPa 0,0 mm 2,4 km/h (1 Bft) NO 45 0 min -0,7 C 6,9 km/h (2 Bft)
16.02.2016 00:11 1,1 C 0,9 C 88 % 1020,8 hPa 0,0 mm 2,4 km/h (1 Bft) O-NO 67 0 min -0,7 C 5,4 km/h (1 Bft)
16.02.2016 00:12 1,1 C 0,9 C 88 % 1020,8 hPa 0,0 mm 2,4 km/h (1 Bft) O-NO 67 0 min -0,7 C 5,4 km/h (1 Bft)
16.02.2016 00:13 1,1 C 0,9 C 88 % 1020,8 hPa 0,0 mm 2,4 km/h (1 Bft) O-NO 67 0 min -0,7 C 3,3 km/h (1 Bft)
16.02.2016 00:14 1,1 C 0,9 C 88 % 1020,8 hPa 0,0 mm 2,4 km/h (1 Bft) O-NO 67 0 min -0,7 C 7,2 km/h (2 Bft)
16.02.2016 00:15 1,1 C 0,9 C 88 % 1020,8 hPa 0,0 mm 2,7 km/h (1 Bft) NO 45 0 min -0,7 C 4,5 km/h (1 Bft)
16.02.2016 00:16 1,1 C 0,9 C 88 % 1020,8 hPa 0,0 mm 2,7 km/h (1 Bft) NO 45 0 min -0,7 C 4,5 km/h (1 Bft)
16.02.2016 00:17 1,0 C 0,9 C 88 % 1020,8 hPa 0,0 mm 3,3 km/h (1 Bft) NO 45 0 min -0,8 C 5,4 km/h (1 Bft)
16.02.2016 00:18 1,0 C 0,9 C 88 % 1020,8 hPa 0,0 mm 3,3 km/h (1 Bft) NO 45 0 min -0,8 C 5,4 km/h (1 Bft)
16.02.2016 00:19 1,0 C 0,8 C 88 % 1020,8 hPa 0,0 mm 3,9 km/h (1 Bft) N-NO 22 0 min -0,8 C 4,2 km/h (1 Bft)
16.02.2016 00:20 1,0 C 0,8 C 88 % 1020,8 hPa 0,0 mm 3,9 km/h (1 Bft) N-NO 22 0 min -0,8 C 4,2 km/h (1 Bft)
16.02.2016 00:21 1,0 C 0,8 C 88 % 1020,8 hPa 0,0 mm 3,3 km/h (1 Bft) O-NO 67 0 min -0,8 C 3,9 km/h (1 Bft)
16.02.2016 00:22 1,0 C 0,8 C 88 % 1020,8 hPa 0,0 mm 3,3 km/h (1 Bft) O-NO 67 0 min -0,8 C 3,9 km/h (1 Bft)
16.02.2016 00:23 1,0 C 0,8 C 88 % 1021,1 hPa 0,0 mm 2,7 km/h (1 Bft) O-SO 112 0 min -0,8 C 3,6 km/h (1 Bft)
16.02.2016 00:24 1,0 C 0,8 C 88 % 1021,1 hPa 0,0 mm 2,7 km/h (1 Bft) O-SO 112 0 min -0,8 C 3,6 km/h (1 Bft)
16.02.2016 00:25 1,0 C 0,8 C 88 % 1021,1 hPa 0,0 mm 2,4 km/h (1 Bft) NO 45 0 min -0,8 C 4,5 km/h (1 Bft)
16.02.2016 00:26 1,0 C 0,8 C 88 % 1021,1 hPa 0,0 mm 2,4 km/h (1 Bft) NO 45 0 min -0,8 C 4,5 km/h (1 Bft)
16.02.2016 00:27 1,0 C 0,8 C 88 % 1021,1 hPa 0,0 mm 2,4 km/h (1 Bft) N-NO 22 0 min -0,8 C 7,7 km/h (2 Bft)
16.02.2016 00:28 1,0 C 0,8 C 88 % 1021,1 hPa 0,0 mm 2,4 km/h (1 Bft) N-NO 22 0 min -0,8 C 7,7 km/h (2 Bft)
16.02.2016 00:29 1,0 C 0,8 C 88 % 1021,1 hPa 0,0 mm 2,1 km/h (1 Bft) N-NW 337 0 min -0,8 C 6,0 km/h (2 Bft)
16.02.2016 00:30 1,0 C 0,8 C 88 % 1021,1 hPa 0,0 mm 2,1 km/h (1 Bft) N-NW 337 0 min -0,8 C 6,0 km/h (2 Bft)
16.02.2016 00:31 1,0 C 0,8 C 88 % 1021,1 hPa 0,0 mm 2,7 km/h (1 Bft) N-NW 337 0 min -0,8 C 5,1 km/h (1 Bft)
16.02.2016 00:32 1,0 C 0,8 C 88 % 1021,1 hPa 0,0 mm 2,7 km/h (1 Bft) N-NW 337 0 min -0,8 C 5,1 km/h (1 Bft)
16.02.2016 00:33 1,0 C 0,8 C 88 % 1021,1 hPa 0,0 mm 3,0 km/h (1 Bft) N-NO 22 0 min -0,8 C 4,8 km/h (1 Bft)
16.02.2016 00:34 1,0 C 0,8 C 88 % 1021,1 hPa 0,0 mm 3,0 km/h (1 Bft) N-NO 22 0 min -0,8 C 8,0 km/h (2 Bft)
16.02.2016 00:35 1,0 C 0,8 C 88 % 1021,1 hPa 0,0 mm 3,6 km/h (1 Bft) N-NO 22 0 min -0,8 C 3,6 km/h (1 Bft)
16.02.2016 00:36 1,0 C 0,8 C 88 % 1021,1 hPa 0,0 mm 3,6 km/h (1 Bft) N-NO 22 0 min -0,8 C 3,6 km/h (1 Bft)
16.02.2016 00:37 1,0 C 0,8 C 88 % 1021,1 hPa 0,0 mm 3,9 km/h (1 Bft) NW 315 0 min -0,8 C 6,3 km/h (2 Bft)
16.02.2016 00:38 1,0 C 0,8 C 88 % 1021,1 hPa 0,0 mm 3,9 km/h (1 Bft) NW 315 0 min -0,8 C 6,3 km/h (2 Bft)
16.02.2016 00:39 1,0 C 0,8 C 88 % 1021,1 hPa 0,0 mm 4,2 km/h (1 Bft) N-NO 22 0 min -0,8 C 6,3 km/h (2 Bft)
16.02.2016 00:40 1,0 C 0,8 C 88 % 1021,1 hPa 0,0 mm 4,2 km/h (1 Bft) N-NO 22 0 min -0,8 C 6,3 km/h (2 Bft)
16.02.2016 00:41 1,0 C 0,8 C 88 % 1021,1 hPa 0,0 mm 3,6 km/h (1 Bft) N-NW 337 0 min -0,8 C 6,0 km/h (2 Bft)
16.02.2016 00:42 1,0 C 0,8 C 88 % 1021,1 hPa 0,0 mm 3,6 km/h (1 Bft) N-NW 337 0 min -0,8 C 6,0 km/h (2 Bft)
16.02.2016 00:43 1,0 C 0,8 C 88 % 1021,4 hPa 0,0 mm 3,6 km/h (1 Bft) O-NO 67 0 min -0,8 C 3,6 km/h (1 Bft)
16.02.2016 00:44 1,0 C 0,8 C 88 % 1021,4 hPa 0,0 mm 3,6 km/h (1 Bft) O-NO 67 0 min -0,8 C 9,8 km/h (2 Bft)
16.02.2016 00:45 1,0 C 0,8 C 88 % 1021,4 hPa 0,0 mm 3,0 km/h (1 Bft) NW 315 0 min -0,8 C 0,0 km/h (0 Bft)
16.02.2016 00:46 1,0 C 0,8 C 88 % 1021,4 hPa 0,0 mm 3,0 km/h (1 Bft) NW 315 0 min -0,8 C 0,0 km/h (0 Bft)
16.02.2016 00:47 1,0 C 0,8 C 88 % 1021,4 hPa 0,0 mm 3,9 km/h (1 Bft) N-NW 337 0 min -0,8 C 6,6 km/h (2 Bft)
16.02.2016 00:48 1,0 C 0,8 C 88 % 1021,4 hPa 0,0 mm 3,9 km/h (1 Bft) N-NW 337 0 min -0,8 C 6,6 km/h (2 Bft)
16.02.2016 00:49 1,0 C 0,8 C 88 % 1021,4 hPa 0,0 mm 3,6 km/h (1 Bft) N-NW 337 0 min -0,8 C 7,5 km/h (2 Bft)
16.02.2016 00:50 1,0 C 0,8 C 88 % 1021,4 hPa 0,0 mm 3,6 km/h (1 Bft) N-NW 337 0 min -0,8 C 7,5 km/h (2 Bft)
16.02.2016 00:51 1,0 C 0,8 C 88 % 1021,4 hPa 0,0 mm 3,6 km/h (1 Bft) NO 45 0 min -0,8 C 3,6 km/h (1 Bft)
16.02.2016 00:52 1,0 C 0,8 C 88 % 1021,4 hPa 0,0 mm 3,6 km/h (1 Bft) NO 45 0 min -0,8 C 3,6 km/h (1 Bft)
16.02.2016 00:53 1,0 C 0,8 C 88 % 1021,4 hPa 0,0 mm 4,5 km/h (1 Bft) W-SW 247 0 min -0,8 C 10,7 km/h (2 Bft)
16.02.2016 00:54 1,0 C 0,8 C 88 % 1021,4 hPa 0,0 mm 4,5 km/h (1 Bft) W-SW 247 0 min -0,8 C 14,3 km/h (3 Bft)
16.02.2016 00:55 1,0 C 0,7 C 88 % 1021,4 hPa 0,0 mm 5,4 km/h (1 Bft) N-NW 337 0 min -0,8 C 5,7 km/h (1 Bft)
16.02.2016 00:56 1,0 C 0,7 C 88 % 1021,4 hPa 0,0 mm 5,4 km/h (1 Bft) N-NW 337 0 min -0,8 C 5,7 km/h (1 Bft)
16.02.2016 00:57 1,0 C 0,7 C 88 % 1021,4 hPa 0,0 mm 5,4 km/h (1 Bft) W-NW 292 0 min -0,8 C 5,4 km/h (1 Bft)
16.02.2016 00:58 1,0 C 0,7 C 88 % 1021,4 hPa 0,0 mm 5,4 km/h (1 Bft) W-NW 292 0 min -0,8 C 5,4 km/h (1 Bft)
16.02.2016 00:59 1,0 C 0,8 C 88 % 1021,4 hPa 0,0 mm 5,1 km/h (1 Bft) N-NW 337 0 min -0,8 C 6,3 km/h (2 Bft)
16.02.2016 01:00 1,0 C 0,8 C 88 % 1021,4 hPa 0,0 mm 5,1 km/h (1 Bft) N-NW 337 0 min -0,8 C 6,3 km/h (2 Bft)
16.02.2016 01:01 1,0 C 0,8 C 88 % 1021,4 hPa 0,0 mm 5,1 km/h (1 Bft) N-NW 337 0 min -0,8 C 8,0 km/h (2 Bft)
16.02.2016 01:02 1,0 C 0,8 C 88 % 1021,4 hPa 0,0 mm 5,1 km/h (1 Bft) N-NW 337 0 min -0,8 C 8,0 km/h (2 Bft)
16.02.2016 01:03 1,0 C 0,7 C 88 % 1022,1 hPa 0,0 mm 5,4 km/h (1 Bft) W-NW 292 0 min -0,8 C 6,3 km/h (2 Bft)
16.02.2016 01:04 1,0 C 0,7 C 88 % 1022,1 hPa 0,0 mm 5,4 km/h (1 Bft) W-NW 292 0 min -0,8 C 6,3 km/h (2 Bft)
16.02.2016 01:05 0,9 C 0,7 C 89 % 1022,1 hPa 0,0 mm 4,8 km/h (1 Bft) NW 315 0 min -0,7 C 6,0 km/h (2 Bft)
16.02.2016 01:06 0,9 C 0,7 C 89 % 1022,1 hPa 0,0 mm 4,8 km/h (1 Bft) NW 315 0 min -0,7 C 6,0 km/h (2 Bft)
16.02.2016 01:07 0,9 C 0,7 C 89 % 1022,1 hPa 0,0 mm 4,8 km/h (1 Bft) N-NO 22 0 min -0,7 C 9,2 km/h (2 Bft)
16.02.2016 01:08 0,9 C 0,7 C 89 % 1022,1 hPa 0,0 mm 4,8 km/h (1 Bft) N-NO 22 0 min -0,7 C 9,2 km/h (2 Bft)
16.02.2016 01:09 0,9 C 0,7 C 89 % 1022,1 hPa 0,0 mm 4,5 km/h (1 Bft) N-NO 22 0 min -0,7 C 0,0 km/h (0 Bft)
16.02.2016 01:10 0,9 C 0,7 C 89 % 1022,1 hPa 0,0 mm 4,5 km/h (1 Bft) N-NO 22 0 min -0,7 C 0,0 km/h (0 Bft)
16.02.2016 01:11 0,9 C 0,7 C 89 % 1022,1 hPa 0,0 mm 4,5 km/h (1 Bft) N-NW 337 0 min -0,7 C 8,0 km/h (2 Bft)
16.02.2016 01:12 0,9 C 0,7 C 89 % 1022,1 hPa 0,0 mm 4,5 km/h (1 Bft) N-NW 337 0 min -0,7 C 8,0 km/h (2 Bft)
16.02.2016 01:13 0,9 C 0,6 C 89 % 1022,1 hPa 0,0 mm 5,4 km/h (1 Bft) N-NW 337 0 min -0,7 C 12,5 km/h (3 Bft)
16.02.2016 01:14 0,9 C 0,6 C 89 % 1022,1 hPa 0,0 mm 5,4 km/h (1 Bft) N-NW 337 0 min -0,7 C 12,5 km/h (3 Bft)
16.02.2016 01:15 0,8 C 0,4 C 89 % 1022,1 hPa 0,0 mm 6,3 km/h (2 Bft) N-NW 337 0 min -0,8 C 10,7 km/h (2 Bft)
16.02.2016 01:16 0,8 C 0,4 C 89 % 1022,1 hPa 0,0 mm 6,3 km/h (2 Bft) N-NW 337 0 min -0,8 C 10,7 km/h (2 Bft)
16.02.2016 01:17 0,8 C 0,4 C 89 % 1022,1 hPa 0,0 mm 6,3 km/h (2 Bft) N-NW 337 0 min -0,8 C 12,8 km/h (3 Bft)
16.02.2016 01:18 0,8 C 0,4 C 89 % 1022,1 hPa 0,0 mm 6,3 km/h (2 Bft) N-NW 337 0 min -0,8 C 12,8 km/h (3 Bft)
16.02.2016 01:19 0,8 C 0,3 C 89 % 1022,1 hPa 0,0 mm 7,5 km/h (2 Bft) NO 45 0 min -0,8 C 6,3 km/h (2 Bft)
16.02.2016 01:20 0,8 C 0,3 C 89 % 1022,1 hPa 0,0 mm 7,5 km/h (2 Bft) NO 45 0 min -0,8 C 6,3 km/h (2 Bft)
16.02.2016 01:21 0,8 C 0,2 C 89 % 1022,1 hPa 0,0 mm 7,7 km/h (2 Bft) N-NO 22 0 min -0,8 C 9,5 km/h (2 Bft)
16.02.2016 01:22 0,8 C 0,2 C 89 % 1022,1 hPa 0,0 mm 7,7 km/h (2 Bft) N-NO 22 0 min -0,8 C 9,5 km/h (2 Bft)
16.02.2016 01:23 0,8 C 0,2 C 89 % 1021,9 hPa 0,0 mm 8,0 km/h (2 Bft) N-NO 22 0 min -0,8 C 10,4 km/h (2 Bft)
16.02.2016 01:24 0,8 C 0,2 C 89 % 1021,9 hPa 0,0 mm 8,0 km/h (2 Bft) N-NO 22 0 min -0,8 C 25,3 km/h (4 Bft)
16.02.2016 01:25 0,7 C 0,0 C 89 % 1021,9 hPa 0,0 mm 8,6 km/h (2 Bft) N-NO 22 0 min -0,9 C 8,0 km/h (2 Bft)
16.02.2016 01:26 0,7 C 0,0 C 89 % 1021,9 hPa 0,0 mm 8,6 km/h (2 Bft) N-NO 22 0 min -0,9 C 8,0 km/h (2 Bft)
16.02.2016 01:27 0,7 C 0,1 C 89 % 1021,9 hPa 0,0 mm 8,0 km/h (2 Bft) N-NO 22 0 min -0,9 C 10,1 km/h (2 Bft)
16.02.2016 01:28 0,7 C 0,1 C 89 % 1021,9 hPa 0,0 mm 8,0 km/h (2 Bft) N-NO 22 0 min -0,9 C 10,1 km/h (2 Bft)
16.02.2016 01:29 0,7 C 0,1 C 89 % 1021,9 hPa 0,0 mm 7,5 km/h (2 Bft) NW 315 0 min -0,9 C 13,1 km/h (3 Bft)
16.02.2016 01:30 0,7 C 0,1 C 89 % 1021,9 hPa 0,0 mm 7,5 km/h (2 Bft) NW 315 0 min -0,9 C 13,1 km/h (3 Bft)
16.02.2016 01:31 0,7 C 0,0 C 89 % 1021,9 hPa 0,0 mm 8,3 km/h (2 Bft) N-NW 337 0 min -0,9 C 17,0 km/h (3 Bft)
16.02.2016 01:32 0,7 C 0,0 C 89 % 1021,9 hPa 0,0 mm 8,3 km/h (2 Bft) N-NW 337 0 min -0,9 C 17,0 km/h (3 Bft)
16.02.2016 01:33 0,7 C 0,0 C 89 % 1021,9 hPa 0,0 mm 8,6 km/h (2 Bft) NW 315 0 min -0,9 C 8,3 km/h (2 Bft)
16.02.2016 01:34 0,7 C 0,0 C 89 % 1021,9 hPa 0,0 mm 8,6 km/h (2 Bft) NW 315 0 min -0,9 C 8,3 km/h (2 Bft)
16.02.2016 01:35 0,7 C 0,1 C 89 % 1021,9 hPa 0,0 mm 7,2 km/h (2 Bft) NW 315 0 min -0,9 C 7,7 km/h (2 Bft)
16.02.2016 01:36 0,7 C 0,1 C 89 % 1021,9 hPa 0,0 mm 7,2 km/h (2 Bft) NW 315 0 min -0,9 C 7,7 km/h (2 Bft)
16.02.2016 01:37 0,7 C 0,2 C 89 % 1021,9 hPa 0,0 mm 6,9 km/h (2 Bft) SO 135 0 min -0,9 C 10,4 km/h (2 Bft)
16.02.2016 01:38 0,7 C 0,2 C 89 % 1021,9 hPa 0,0 mm 6,9 km/h (2 Bft) SO 135 0 min -0,9 C 10,4 km/h (2 Bft)
16.02.2016 01:39 0,7 C 0,2 C 89 % 1021,9 hPa 0,0 mm 6,3 km/h (2 Bft) N-NO 22 0 min -0,9 C 8,6 km/h (2 Bft)
16.02.2016 01:40 0,7 C 0,2 C 89 % 1021,9 hPa 0,0 mm 6,3 km/h (2 Bft) N-NO 22 0 min -0,9 C 8,6 km/h (2 Bft)
16.02.2016 01:41 0,7 C 0,3 C 89 % 1021,9 hPa 0,0 mm 6,0 km/h (2 Bft) N-NW 337 0 min -0,9 C 3,6 km/h (1 Bft)
16.02.2016 01:42 0,7 C 0,3 C 89 % 1021,9 hPa 0,0 mm 6,0 km/h (2 Bft) N-NW 337 0 min -0,9 C 3,6 km/h (1 Bft)
16.02.2016 01:43 0,6 C 0,3 C 89 % 1022,3 hPa 0,0 mm 4,8 km/h (1 Bft) N-NW 337 0 min -1,0 C 6,6 km/h (2 Bft)
16.02.2016 01:44 0,6 C 0,3 C 89 % 1022,3 hPa 0,0 mm 4,8 km/h (1 Bft) N-NW 337 0 min -1,0 C 6,6 km/h (2 Bft)
16.02.2016 01:45 0,6 C 0,3 C 89 % 1022,3 hPa 0,0 mm 5,4 km/h (1 Bft) NO 45 0 min -1,0 C 12,5 km/h (3 Bft)
16.02.2016 01:46 0,6 C 0,3 C 89 % 1022,3 hPa 0,0 mm 5,4 km/h (1 Bft) NO 45 0 min -1,0 C 12,5 km/h (3 Bft)
16.02.2016 01:47 0,6 C 0,2 C 89 % 1022,3 hPa 0,0 mm 6,0 km/h (2 Bft) N-NO 22 0 min -1,0 C 4,5 km/h (1 Bft)
16.02.2016 01:48 0,6 C 0,2 C 89 % 1022,3 hPa 0,0 mm 6,0 km/h (2 Bft) N-NO 22 0 min -1,0 C 4,5 km/h (1 Bft)
16.02.2016 01:49 0,6 C 0,2 C 89 % 1022,3 hPa 0,0 mm 6,0 km/h (2 Bft) N 360 0 min -1,0 C 9,2 km/h (2 Bft)
16.02.2016 01:50 0,6 C 0,2 C 89 % 1022,3 hPa 0,0 mm 6,0 km/h (2 Bft) N 360 0 min -1,0 C 9,2 km/h (2 Bft)
16.02.2016 01:51 0,6 C 0,2 C 89 % 1022,3 hPa 0,0 mm 5,7 km/h (1 Bft) N 360 0 min -1,0 C 6,3 km/h (2 Bft)
16.02.2016 01:52 0,6 C 0,2 C 89 % 1022,3 hPa 0,0 mm 5,7 km/h (1 Bft) N 360 0 min -1,0 C 6,3 km/h (2 Bft)
16.02.2016 01:53 0,6 C 0,0 C 89 % 1022,3 hPa 0,0 mm 6,6 km/h (2 Bft) N-NO 22 0 min -1,0 C 14,9 km/h (3 Bft)
16.02.2016 01:54 0,6 C 0,0 C 89 % 1022,3 hPa 0,0 mm 6,6 km/h (2 Bft) N-NO 22 0 min -1,0 C 14,9 km/h (3 Bft)
16.02.2016 01:55 0,6 C 0,0 C 89 % 1022,3 hPa 0,0 mm 6,9 km/h (2 Bft) N-NW 337 0 min -1,0 C 9,2 km/h (2 Bft)
16.02.2016 01:56 0,6 C 0,0 C 89 % 1022,3 hPa 0,0 mm 6,9 km/h (2 Bft) N-NW 337 0 min -1,0 C 9,2 km/h (2 Bft)
16.02.2016 01:57 0,6 C 0,0 C 89 % 1022,3 hPa 0,0 mm 6,6 km/h (2 Bft) NO 45 0 min -1,0 C 9,5 km/h (2 Bft)
16.02.2016 01:58 0,6 C 0,0 C 89 % 1022,3 hPa 0,0 mm 6,6 km/h (2 Bft) NO 45 0 min -1,0 C 9,5 km/h (2 Bft)
16.02.2016 01:59 0,6 C 0,0 C 89 % 1022,3 hPa 0,0 mm 7,2 km/h (2 Bft) O-NO 67 0 min -1,0 C 7,5 km/h (2 Bft)
16.02.2016 02:00 0,6 C 0,0 C 89 % 1022,3 hPa 0,0 mm 7,2 km/h (2 Bft) O-NO 67 0 min -1,0 C 7,5 km/h (2 Bft)
16.02.2016 02:01 0,6 C 0,0 C 89 % 1022,3 hPa 0,0 mm 7,2 km/h (2 Bft) N-NO 22 0 min -1,0 C 6,3 km/h (2 Bft)
16.02.2016 02:02 0,6 C 0,0 C 89 % 1022,3 hPa 0,0 mm 7,2 km/h (2 Bft) N-NO 22 0 min -1,0 C 6,3 km/h (2 Bft)
16.02.2016 02:03 0,6 C -0,1 C 90 % 1022,6 hPa 0,0 mm 7,7 km/h (2 Bft) N-NO 22 0 min -0,8 C 13,1 km/h (3 Bft)
16.02.2016 02:05 0,6 C 0,0 C 90 % 1022,6 hPa 0,0 mm 6,9 km/h (2 Bft) N-NO 22 0 min -0,8 C 8,0 km/h (2 Bft)
16.02.2016 02:06 0,6 C 0,0 C 90 % 1022,6 hPa 0,0 mm 6,9 km/h (2 Bft) N-NO 22 0 min -0,8 C 8,0 km/h (2 Bft)
16.02.2016 02:07 0,6 C 0,1 C 90 % 1022,6 hPa 0,0 mm 6,3 km/h (2 Bft) O-NO 67 0 min -0,8 C 0,0 km/h (0 Bft)
16.02.2016 02:08 0,6 C 0,1 C 90 % 1022,6 hPa 0,0 mm 6,3 km/h (2 Bft) O-NO 67 0 min -0,8 C 0,0 km/h (0 Bft)
16.02.2016 02:09 0,6 C 0,2 C 90 % 1022,6 hPa 0,0 mm 5,4 km/h (1 Bft) N-NW 337 0 min -0,8 C 10,7 km/h (2 Bft)
16.02.2016 02:10 0,6 C 0,2 C 90 % 1022,6 hPa 0,0 mm 5,4 km/h (1 Bft) N-NW 337 0 min -0,8 C 10,7 km/h (2 Bft)
16.02.2016 02:11 0,6 C 0,3 C 90 % 1022,6 hPa 0,0 mm 4,8 km/h (1 Bft) N-NO 22 0 min -0,8 C 0,0 km/h (0 Bft)
16.02.2016 02:12 0,6 C 0,3 C 90 % 1022,6 hPa 0,0 mm 4,8 km/h (1 Bft) N-NO 22 0 min -0,8 C 0,0 km/h (0 Bft)
16.02.2016 02:13 0,6 C 0,3 C 90 % 1022,6 hPa 0,0 mm 4,2 km/h (1 Bft) NW 315 0 min -0,8 C 6,0 km/h (2 Bft)
16.02.2016 02:14 0,6 C 0,3 C 90 % 1022,6 hPa 0,0 mm 4,2 km/h (1 Bft) NW 315 0 min -0,8 C 6,0 km/h (2 Bft)
16.02.2016 02:15 0,5 C 0,3 C 90 % 1022,6 hPa 0,0 mm 3,0 km/h (1 Bft) N-NO 22 0 min -0,9 C 0,0 km/h (0 Bft)
16.02.2016 02:16 0,5 C 0,3 C 90 % 1022,6 hPa 0,0 mm 3,0 km/h (1 Bft) N-NO 22 0 min -0,9 C 0,0 km/h (0 Bft)
16.02.2016 02:17 0,5 C 0,3 C 90 % 1022,6 hPa 0,0 mm 3,0 km/h (1 Bft) NW 315 0 min -0,9 C 9,8 km/h (2 Bft)
16.02.2016 02:18 0,5 C 0,3 C 90 % 1022,6 hPa 0,0 mm 3,0 km/h (1 Bft) NW 315 0 min -0,9 C 9,8 km/h (2 Bft)
16.02.2016 02:19 0,5 C 0,3 C 90 % 1022,6 hPa 0,0 mm 4,2 km/h (1 Bft) N-NO 22 0 min -0,9 C 8,9 km/h (2 Bft)
16.02.2016 02:20 0,5 C 0,3 C 90 % 1022,6 hPa 0,0 mm 4,2 km/h (1 Bft) N-NO 22 0 min -0,9 C 8,9 km/h (2 Bft)
16.02.2016 02:21 0,5 C 0,3 C 90 % 1022,6 hPa 0,0 mm 4,2 km/h (1 Bft) O-SO 112 0 min -0,9 C 6,0 km/h (2 Bft)
16.02.2016 02:22 0,5 C 0,3 C 90 % 1022,6 hPa 0,0 mm 4,2 km/h (1 Bft) O-SO 112 0 min -0,9 C 6,0 km/h (2 Bft)
16.02.2016 02:23 0,5 C 0,3 C 90 % 1022,9 hPa 0,0 mm 4,2 km/h (1 Bft) NW 315 0 min -0,9 C 4,2 km/h (1 Bft)
16.02.2016 02:24 0,5 C 0,3 C 90 % 1022,9 hPa 0,0 mm 4,2 km/h (1 Bft) NW 315 0 min -0,9 C 4,2 km/h (1 Bft)
16.02.2016 02:25 0,5 C 0,2 C 90 % 1022,9 hPa 0,0 mm 5,1 km/h (1 Bft) W-NW 292 0 min -0,9 C 4,8 km/h (1 Bft)
16.02.2016 02:26 0,5 C 0,2 C 90 % 1022,9 hPa 0,0 mm 5,1 km/h (1 Bft) W-NW 292 0 min -0,9 C 4,8 km/h (1 Bft)
16.02.2016 02:27 0,5 C 0,1 C 90 % 1022,9 hPa 0,0 mm 5,4 km/h (1 Bft) W-NW 292 0 min -0,9 C 5,7 km/h (1 Bft)
16.02.2016 02:28 0,5 C 0,1 C 90 % 1022,9 hPa 0,0 mm 5,4 km/h (1 Bft) W-NW 292 0 min -0,9 C 5,7 km/h (1 Bft)
16.02.2016 02:29 0,5 C 0,2 C 90 % 1022,9 hPa 0,0 mm 4,8 km/h (1 Bft) N-NW 337 0 min -0,9 C 5,1 km/h (1 Bft)
16.02.2016 02:30 0,5 C 0,2 C 90 % 1022,9 hPa 0,0 mm 4,8 km/h (1 Bft) N-NW 337 0 min -0,9 C 5,1 km/h (1 Bft)
16.02.2016 02:31 0,5 C 0,3 C 90 % 1022,9 hPa 0,0 mm 3,9 km/h (1 Bft) N-NW 337 0 min -0,9 C 4,8 km/h (1 Bft)
16.02.2016 02:32 0,5 C 0,3 C 90 % 1022,9 hPa 0,0 mm 3,9 km/h (1 Bft) N-NW 337 0 min -0,9 C 4,8 km/h (1 Bft)
16.02.2016 02:33 0,5 C 0,3 C 90 % 1022,9 hPa 0,0 mm 3,9 km/h (1 Bft) N 360 0 min -0,9 C 4,8 km/h (1 Bft)
16.02.2016 02:34 0,5 C 0,3 C 90 % 1022,9 hPa 0,0 mm 3,9 km/h (1 Bft) N 360 0 min -0,9 C 4,8 km/h (1 Bft)
16.02.2016 02:35 0,5 C 0,3 C 90 % 1022,9 hPa 0,0 mm 3,3 km/h (1 Bft) NW 315 0 min -0,9 C 5,7 km/h (1 Bft)
16.02.2016 02:36 0,5 C 0,3 C 90 % 1022,9 hPa 0,0 mm 3,3 km/h (1 Bft) NW 315 0 min -0,9 C 5,7 km/h (1 Bft)
16.02.2016 02:37 0,5 C 0,3 C 90 % 1022,9 hPa 0,0 mm 3,6 km/h (1 Bft) N-NW 337 0 min -0,9 C 11,6 km/h (2 Bft)
16.02.2016 02:38 0,5 C 0,3 C 90 % 1022,9 hPa 0,0 mm 3,6 km/h (1 Bft) N-NW 337 0 min -0,9 C 11,6 km/h (2 Bft)
16.02.2016 02:39 0,5 C 0,3 C 90 % 1022,9 hPa 0,0 mm 4,2 km/h (1 Bft) N-NW 337 0 min -0,9 C 13,7 km/h (3 Bft)
16.02.2016 02:40 0,5 C 0,3 C 90 % 1022,9 hPa 0,0 mm 4,2 km/h (1 Bft) N-NW 337 0 min -0,9 C 13,7 km/h (3 Bft)
16.02.2016 02:41 0,5 C 0,2 C 90 % 1022,9 hPa 0,0 mm 5,1 km/h (1 Bft) NW 315 0 min -0,9 C 9,8 km/h (2 Bft)
16.02.2016 02:42 0,5 C 0,2 C 90 % 1022,9 hPa 0,0 mm 5,1 km/h (1 Bft) NW 315 0 min -0,9 C 9,8 km/h (2 Bft)
16.02.2016 02:43 0,5 C 0,2 C 90 % 1023,1 hPa 0,0 mm 5,1 km/h (1 Bft) N-NW 337 0 min -0,9 C 7,5 km/h (2 Bft)
16.02.2016 02:44 0,5 C 0,2 C 90 % 1023,1 hPa 0,0 mm 5,1 km/h (1 Bft) N-NW 337 0 min -0,9 C 7,5 km/h (2 Bft)
16.02.2016 02:45 0,5 C 0,1 C 90 % 1023,1 hPa 0,0 mm 5,4 km/h (1 Bft) W-NW 292 0 min -0,9 C 4,8 km/h (1 Bft)
16.02.2016 02:46 0,5 C 0,1 C 90 % 1023,1 hPa 0,0 mm 5,4 km/h (1 Bft) W-NW 292 0 min -0,9 C 4,8 km/h (1 Bft)
16.02.2016 02:47 0,5 C 0,1 C 90 % 1023,1 hPa 0,0 mm 6,0 km/h (2 Bft) NW 315 0 min -0,9 C 6,6 km/h (2 Bft)
16.02.2016 02:48 0,5 C 0,1 C 90 % 1023,1 hPa 0,0 mm 6,0 km/h (2 Bft) NW 315 0 min -0,9 C 6,6 km/h (2 Bft)
16.02.2016 02:49 0,4 C 0,0 C 90 % 1023,1 hPa 0,0 mm 6,0 km/h (2 Bft) N-NW 337 0 min -1,0 C 7,5 km/h (2 Bft)
16.02.2016 02:50 0,4 C 0,0 C 90 % 1023,1 hPa 0,0 mm 6,0 km/h (2 Bft) N-NW 337 0 min -1,0 C 7,5 km/h (2 Bft)
16.02.2016 02:51 0,4 C 0,1 C 90 % 1023,1 hPa 0,0 mm 5,1 km/h (1 Bft) NW 315 0 min -1,0 C 3,3 km/h (1 Bft)
16.02.2016 02:52 0,4 C 0,1 C 90 % 1023,1 hPa 0,0 mm 5,1 km/h (1 Bft) NW 315 0 min -1,0 C 3,3 km/h (1 Bft)
16.02.2016 02:53 0,4 C 0,2 C 90 % 1023,1 hPa 0,0 mm 4,5 km/h (1 Bft) N-NW 337 0 min -1,0 C 4,5 km/h (1 Bft)
16.02.2016 02:54 0,4 C 0,2 C 90 % 1023,1 hPa 0,0 mm 4,5 km/h (1 Bft) N-NW 337 0 min -1,0 C 4,5 km/h (1 Bft)
16.02.2016 02:55 0,4 C 0,2 C 90 % 1023,1 hPa 0,0 mm 4,5 km/h (1 Bft) NW 315 0 min -1,0 C 5,4 km/h (1 Bft)
16.02.2016 02:56 0,4 C 0,2 C 90 % 1023,1 hPa 0,0 mm 4,5 km/h (1 Bft) NW 315 0 min -1,0 C 5,4 km/h (1 Bft)
16.02.2016 02:57 0,4 C 0,1 C 90 % 1023,1 hPa 0,0 mm 4,8 km/h (1 Bft) N-NO 22 0 min -1,0 C 15,5 km/h (3 Bft)
16.02.2016 02:58 0,4 C 0,1 C 90 % 1023,1 hPa 0,0 mm 4,8 km/h (1 Bft) N-NO 22 0 min -1,0 C 15,5 km/h (3 Bft)
16.02.2016 02:59 0,4 C 0,1 C 90 % 1023,1 hPa 0,0 mm 5,4 km/h (1 Bft) N 360 0 min -1,0 C 14,3 km/h (3 Bft)
16.02.2016 03:00 0,4 C 0,1 C 90 % 1023,1 hPa 0,0 mm 5,4 km/h (1 Bft) N 360 0 min -1,0 C 14,3 km/h (3 Bft)
16.02.2016 03:01 0,4 C 0,0 C 90 % 1023,1 hPa 0,0 mm 6,0 km/h (2 Bft) NW 315 0 min -1,0 C 12,2 km/h (2 Bft)
16.02.2016 03:02 0,4 C 0,0 C 90 % 1023,1 hPa 0,0 mm 6,0 km/h (2 Bft) NW 315 0 min -1,0 C 12,2 km/h (2 Bft)
16.02.2016 03:03 0,4 C 0,0 C 90 % 1023,2 hPa 0,0 mm 6,0 km/h (2 Bft) NW 315 0 min -1,0 C 12,2 km/h (2 Bft)
16.02.2016 03:04 0,4 C 0,0 C 90 % 1023,2 hPa 0,0 mm 6,0 km/h (2 Bft) NW 315 0 min -1,0 C 12,2 km/h (2 Bft)
16.02.2016 03:05 0,4 C -0,1 C 90 % 1023,2 hPa 0,0 mm 6,9 km/h (2 Bft) N 360 0 min -1,0 C 8,0 km/h (2 Bft)
16.02.2016 03:06 0,4 C -0,1 C 90 % 1023,2 hPa 0,0 mm 6,9 km/h (2 Bft) N 360 0 min -1,0 C 8,0 km/h (2 Bft)
16.02.2016 03:07 0,4 C -0,1 C 90 % 1023,2 hPa 0,0 mm 6,9 km/h (2 Bft) N-NO 22 0 min -1,0 C 7,5 km/h (2 Bft)
16.02.2016 03:08 0,4 C -0,1 C 90 % 1023,2 hPa 0,0 mm 6,9 km/h (2 Bft) N-NO 22 0 min -1,0 C 7,5 km/h (2 Bft)
16.02.2016 03:09 0,4 C 0,0 C 90 % 1023,2 hPa 0,0 mm 6,0 km/h (2 Bft) N-NO 22 0 min -1,0 C 5,4 km/h (1 Bft)
16.02.2016 03:10 0,4 C 0,0 C 90 % 1023,2 hPa 0,0 mm 6,0 km/h (2 Bft) N-NO 22 0 min -1,0 C 5,4 km/h (1 Bft)
16.02.2016 03:11 0,4 C 0,0 C 90 % 1023,2 hPa 0,0 mm 6,0 km/h (2 Bft) N-NO 22 0 min -1,0 C 5,4 km/h (1 Bft)
16.02.2016 03:12 0,4 C 0,0 C 90 % 1023,2 hPa 0,0 mm 6,0 km/h (2 Bft) N-NO 22 0 min -1,0 C 5,4 km/h (1 Bft)
16.02.2016 03:13 0,4 C 0,0 C 90 % 1023,2 hPa 0,0 mm 5,7 km/h (1 Bft) O-NO 67 0 min -1,0 C 6,3 km/h (2 Bft)
16.02.2016 03:14 0,4 C 0,0 C 90 % 1023,2 hPa 0,0 mm 5,7 km/h (1 Bft) O-NO 67 0 min -1,0 C 6,3 km/h (2 Bft)
16.02.2016 03:15 0,4 C -0,1 C 91 % 1023,2 hPa 0,0 mm 6,3 km/h (2 Bft) NO 45 0 min -0,9 C 7,5 km/h (2 Bft)
16.02.2016 03:16 0,4 C -0,1 C 91 % 1023,2 hPa 0,0 mm 6,3 km/h (2 Bft) NO 45 0 min -0,9 C 7,5 km/h (2 Bft)
16.02.2016 03:17 0,4 C -0,1 C 91 % 1023,2 hPa 0,0 mm 6,3 km/h (2 Bft) O-NO 67 0 min -0,9 C 4,5 km/h (1 Bft)
16.02.2016 03:18 0,4 C -0,1 C 91 % 1023,2 hPa 0,0 mm 6,3 km/h (2 Bft) O-NO 67 0 min -0,9 C 4,5 km/h (1 Bft)
16.02.2016 03:19 0,4 C -0,1 C 91 % 1023,2 hPa 0,0 mm 6,3 km/h (2 Bft) N 360 0 min -0,9 C 0,0 km/h (0 Bft)
16.02.2016 03:20 0,4 C -0,1 C 91 % 1023,2 hPa 0,0 mm 6,3 km/h (2 Bft) N 360 0 min -0,9 C 0,0 km/h (0 Bft)
16.02.2016 03:21 0,4 C 0,0 C 91 % 1023,2 hPa 0,0 mm 5,7 km/h (1 Bft) NO 45 0 min -0,9 C 10,4 km/h (2 Bft)
16.02.2016 03:22 0,4 C 0,0 C 91 % 1023,2 hPa 0,0 mm 5,7 km/h (1 Bft) NO 45 0 min -0,9 C 10,4 km/h (2 Bft)
16.02.2016 03:23 0,4 C 0,0 C 91 % 1023,2 hPa 0,0 mm 6,0 km/h (2 Bft) N-NO 22 0 min -0,9 C 7,7 km/h (2 Bft)
16.02.2016 03:24 0,4 C 0,0 C 91 % 1023,2 hPa 0,0 mm 6,0 km/h (2 Bft) N-NO 22 0 min -0,9 C 7,7 km/h (2 Bft)
16.02.2016 03:25 0,4 C 0,1 C 91 % 1023,2 hPa 0,0 mm 5,1 km/h (1 Bft) O-NO 67 0 min -0,9 C 6,3 km/h (2 Bft)
16.02.2016 03:26 0,4 C 0,1 C 91 % 1023,2 hPa 0,0 mm 5,1 km/h (1 Bft) O-NO 67 0 min -0,9 C 6,3 km/h (2 Bft)
16.02.2016 03:27 0,4 C 0,1 C 91 % 1023,2 hPa 0,0 mm 4,8 km/h (1 Bft) O-SO 112 0 min -0,9 C 9,2 km/h (2 Bft)
16.02.2016 03:28 0,4 C 0,1 C 91 % 1023,2 hPa 0,0 mm 4,8 km/h (1 Bft) O-SO 112 0 min -0,9 C 9,2 km/h (2 Bft)
16.02.2016 03:29 0,4 C 0,0 C 91 % 1023,2 hPa 0,0 mm 5,7 km/h (1 Bft) N 360 0 min -0,9 C 17,0 km/h (3 Bft)
16.02.2016 03:30 0,4 C 0,0 C 91 % 1023,2 hPa 0,0 mm 5,7 km/h (1 Bft) N 360 0 min -0,9 C 17,0 km/h (3 Bft)
16.02.2016 03:31 0,4 C -0,1 C 91 % 1023,2 hPa 0,0 mm 6,6 km/h (2 Bft) N-NW 337 0 min -0,9 C 6,6 km/h (2 Bft)
16.02.2016 03:32 0,4 C -0,1 C 91 % 1023,2 hPa 0,0 mm 6,6 km/h (2 Bft) N-NW 337 0 min -0,9 C 6,6 km/h (2 Bft)
16.02.2016 03:33 0,4 C 0,0 C 91 % 1023,2 hPa 0,0 mm 5,7 km/h (1 Bft) N-NW 337 0 min -0,9 C 7,7 km/h (2 Bft)
16.02.2016 03:34 0,4 C 0,0 C 91 % 1023,2 hPa 0,0 mm 5,7 km/h (1 Bft) N-NW 337 0 min -0,9 C 7,7 km/h (2 Bft)
16.02.2016 03:35 0,4 C -0,1 C 91 % 1023,2 hPa 0,0 mm 6,6 km/h (2 Bft) O-NO 67 0 min -0,9 C 6,3 km/h (2 Bft)
16.02.2016 03:36 0,4 C -0,1 C 91 % 1023,2 hPa 0,0 mm 6,6 km/h (2 Bft) O-NO 67 0 min -0,9 C 6,3 km/h (2 Bft)
16.02.2016 03:37 0,4 C -0,2 C 91 % 1023,2 hPa 0,0 mm 7,2 km/h (2 Bft) N-NO 22 0 min -0,9 C 8,9 km/h (2 Bft)
16.02.2016 03:38 0,4 C -0,2 C 91 % 1023,2 hPa 0,0 mm 7,2 km/h (2 Bft) N-NO 22 0 min -0,9 C 8,9 km/h (2 Bft)
16.02.2016 03:39 0,4 C -0,2 C 91 % 1023,2 hPa 0,0 mm 7,5 km/h (2 Bft) NW 315 0 min -0,9 C 11,9 km/h (2 Bft)
16.02.2016 03:40 0,4 C -0,2 C 91 % 1023,2 hPa 0,0 mm 7,5 km/h (2 Bft) NW 315 0 min -0,9 C 11,9 km/h (2 Bft)
16.02.2016 03:41 0,4 C -0,2 C 91 % 1023,2 hPa 0,0 mm 7,2 km/h (2 Bft) O-SO 112 0 min -0,9 C 11,0 km/h (2 Bft)
16.02.2016 03:42 0,4 C -0,2 C 91 % 1023,2 hPa 0,0 mm 7,2 km/h (2 Bft) O-SO 112 0 min -0,9 C 11,0 km/h (2 Bft)
16.02.2016 03:43 0,4 C -0,3 C 91 % 1023,5 hPa 0,0 mm 8,0 km/h (2 Bft) N-NO 22 0 min -0,9 C 17,3 km/h (3 Bft)
16.02.2016 03:44 0,4 C -0,3 C 91 % 1023,5 hPa 0,0 mm 8,0 km/h (2 Bft) N-NO 22 0 min -0,9 C 17,3 km/h (3 Bft)
16.02.2016 03:45 0,4 C -0,3 C 91 % 1023,5 hPa 0,0 mm 8,3 km/h (2 Bft) N-NO 22 0 min -0,9 C 18,2 km/h (3 Bft)
16.02.2016 03:46 0,4 C -0,3 C 91 % 1023,5 hPa 0,0 mm 8,3 km/h (2 Bft) N-NO 22 0 min -0,9 C 18,2 km/h (3 Bft)
16.02.2016 03:47 0,4 C -0,3 C 91 % 1023,5 hPa 0,0 mm 8,6 km/h (2 Bft) N-NO 22 0 min -0,9 C 14,9 km/h (3 Bft)
16.02.2016 03:48 0,4 C -0,3 C 91 % 1023,5 hPa 0,0 mm 8,6 km/h (2 Bft) N-NO 22 0 min -0,9 C 14,9 km/h (3 Bft)
16.02.2016 03:49 0,4 C -0,3 C 91 % 1023,5 hPa 0,0 mm 8,9 km/h (2 Bft) O-NO 67 0 min -0,9 C 11,3 km/h (2 Bft)
16.02.2016 03:50 0,4 C -0,3 C 91 % 1023,5 hPa 0,0 mm 8,9 km/h (2 Bft) O-NO 67 0 min -0,9 C 11,3 km/h (2 Bft)
16.02.2016 03:51 0,4 C -0,3 C 91 % 1023,5 hPa 0,0 mm 8,9 km/h (2 Bft) N 360 0 min -0,9 C 8,3 km/h (2 Bft)
16.02.2016 03:52 0,4 C -0,3 C 91 % 1023,5 hPa 0,0 mm 8,9 km/h (2 Bft) N 360 0 min -0,9 C 8,3 km/h (2 Bft)
16.02.2016 03:53 0,3 C -0,4 C 91 % 1023,5 hPa 0,0 mm 8,3 km/h (2 Bft) O-NO 67 0 min -1,0 C 3,3 km/h (1 Bft)
16.02.2016 03:54 0,3 C -0,4 C 91 % 1023,5 hPa 0,0 mm 8,3 km/h (2 Bft) O-NO 67 0 min -1,0 C 3,3 km/h (1 Bft)
16.02.2016 03:55 0,3 C -0,3 C 91 % 1023,5 hPa 0,0 mm 7,7 km/h (2 Bft) N-NO 22 0 min -1,0 C 6,0 km/h (2 Bft)
16.02.2016 03:56 0,3 C -0,3 C 91 % 1023,5 hPa 0,0 mm 7,7 km/h (2 Bft) N-NO 22 0 min -1,0 C 6,0 km/h (2 Bft)
16.02.2016 03:57 0,3 C -0,1 C 91 % 1023,5 hPa 0,0 mm 6,0 km/h (2 Bft) N-NO 22 0 min -1,0 C 3,3 km/h (1 Bft)
16.02.2016 03:58 0,3 C -0,1 C 91 % 1023,5 hPa 0,0 mm 6,0 km/h (2 Bft) N-NO 22 0 min -1,0 C 3,3 km/h (1 Bft)
16.02.2016 03:59 0,3 C -0,1 C 91 % 1023,5 hPa 0,0 mm 5,4 km/h (1 Bft) O-NO 67 0 min -1,0 C 8,9 km/h (2 Bft)
16.02.2016 04:00 0,3 C -0,1 C 91 % 1023,5 hPa 0,0 mm 5,4 km/h (1 Bft) O-NO 67 0 min -1,0 C 8,9 km/h (2 Bft)
16.02.2016 04:01 0,3 C 0,0 C 91 % 1023,5 hPa 0,0 mm 4,8 km/h (1 Bft) N-NO 22 0 min -1,0 C 4,2 km/h (1 Bft)
16.02.2016 04:02 0,3 C 0,0 C 91 % 1023,5 hPa 0,0 mm 4,8 km/h (1 Bft) N-NO 22 0 min -1,0 C 4,2 km/h (1 Bft)
16.02.2016 04:03 0,3 C 0,1 C 91 % 1023,7 hPa 0,0 mm 4,5 km/h (1 Bft) N-NO 22 0 min -1,0 C 5,7 km/h (1 Bft)
16.02.2016 04:04 0,3 C 0,1 C 91 % 1023,7 hPa 0,0 mm 4,5 km/h (1 Bft) N-NO 22 0 min -1,0 C 5,7 km/h (1 Bft)
16.02.2016 04:05 0,3 C 0,1 C 91 % 1023,7 hPa 0,0 mm 4,5 km/h (1 Bft) S 180 0 min -1,0 C 10,4 km/h (2 Bft)
16.02.2016 04:06 0,3 C 0,1 C 91 % 1023,7 hPa 0,0 mm 4,5 km/h (1 Bft) S 180 0 min -1,0 C 10,4 km/h (2 Bft)
16.02.2016 04:07 0,3 C 0,0 C 91 % 1023,7 hPa 0,0 mm 5,1 km/h (1 Bft) N-NO 22 0 min -1,0 C 9,2 km/h (2 Bft)
16.02.2016 04:08 0,3 C 0,0 C 91 % 1023,7 hPa 0,0 mm 5,1 km/h (1 Bft) N-NO 22 0 min -1,0 C 9,2 km/h (2 Bft)
16.02.2016 04:09 0,3 C 0,0 C 91 % 1023,7 hPa 0,0 mm 4,8 km/h (1 Bft) N-NO 22 0 min -1,0 C 3,3 km/h (1 Bft)
16.02.2016 04:10 0,3 C 0,0 C 91 % 1023,7 hPa 0,0 mm 4,8 km/h (1 Bft) N-NO 22 0 min -1,0 C 3,3 km/h (1 Bft)
16.02.2016 04:11 0,3 C 0,1 C 91 % 1023,7 hPa 0,0 mm 3,9 km/h (1 Bft) N-NW 337 0 min -1,0 C 0,0 km/h (0 Bft)
16.02.2016 04:12 0,3 C 0,1 C 91 % 1023,7 hPa 0,0 mm 3,9 km/h (1 Bft) N-NW 337 0 min -1,0 C 0,0 km/h (0 Bft)
16.02.2016 04:13 0,3 C 0,1 C 91 % 1023,7 hPa 0,0 mm 3,9 km/h (1 Bft) NO 45 0 min -1,0 C 8,9 km/h (2 Bft)
16.02.2016 04:14 0,3 C 0,1 C 91 % 1023,7 hPa 0,0 mm 3,9 km/h (1 Bft) NO 45 0 min -1,0 C 8,9 km/h (2 Bft)
16.02.2016 04:15 0,3 C 0,1 C 91 % 1023,7 hPa 0,0 mm 4,2 km/h (1 Bft) O-NO 67 0 min -1,0 C 3,9 km/h (1 Bft)
16.02.2016 04:16 0,3 C 0,1 C 91 % 1023,7 hPa 0,0 mm 4,2 km/h (1 Bft) O-NO 67 0 min -1,0 C 3,9 km/h (1 Bft)
16.02.2016 04:17 0,3 C 0,1 C 91 % 1023,7 hPa 0,0 mm 4,2 km/h (1 Bft) O-NO 67 0 min -1,0 C 7,7 km/h (2 Bft)
16.02.2016 04:18 0,3 C 0,1 C 91 % 1023,7 hPa 0,0 mm 4,2 km/h (1 Bft) O-NO 67 0 min -1,0 C 7,7 km/h (2 Bft)
16.02.2016 04:19 0,3 C 0,1 C 91 % 1023,7 hPa 0,0 mm 4,5 km/h (1 Bft) N-NO 22 0 min -1,0 C 7,5 km/h (2 Bft)
16.02.2016 04:20 0,3 C 0,1 C 91 % 1023,7 hPa 0,0 mm 4,5 km/h (1 Bft) N-NO 22 0 min -1,0 C 7,5 km/h (2 Bft)
16.02.2016 04:21 0,2 C 0,0 C 86 % 1023,7 hPa 0,0 mm 5,1 km/h (1 Bft) O-NO 67 0 min -1,9 C 5,4 km/h (1 Bft)
16.02.2016 04:22 0,2 C 0,0 C 86 % 1023,7 hPa 0,0 mm 5,1 km/h (1 Bft) O-NO 67 0 min -1,9 C 5,4 km/h (1 Bft)
16.02.2016 04:23 0,2 C -0,1 C 86 % 1023,8 hPa 0,0 mm 5,4 km/h (1 Bft) N-NO 22 0 min -1,9 C 4,8 km/h (1 Bft)
16.02.2016 04:24 0,2 C -0,1 C 86 % 1023,8 hPa 0,0 mm 5,4 km/h (1 Bft) N-NO 22 0 min -1,9 C 4,8 km/h (1 Bft)
16.02.2016 04:25 0,2 C -0,1 C 91 % 1023,8 hPa 0,0 mm 5,1 km/h (1 Bft) NO 45 0 min -1,1 C 4,8 km/h (1 Bft)
16.02.2016 04:26 0,2 C -0,1 C 91 % 1023,8 hPa 0,0 mm 5,1 km/h (1 Bft) NO 45 0 min -1,1 C 4,8 km/h (1 Bft)
16.02.2016 04:27 0,2 C -0,1 C 91 % 1023,8 hPa 0,0 mm 5,1 km/h (1 Bft) O-NO 67 0 min -1,1 C 4,8 km/h (1 Bft)
16.02.2016 04:28 0,2 C -0,1 C 91 % 1023,8 hPa 0,0 mm 5,1 km/h (1 Bft) O-NO 67 0 min -1,1 C 4,8 km/h (1 Bft)
16.02.2016 04:29 0,2 C -0,1 C 91 % 1023,8 hPa 0,0 mm 5,1 km/h (1 Bft) NO 45 0 min -1,1 C 6,6 km/h (2 Bft)
16.02.2016 04:30 0,2 C -0,1 C 91 % 1023,8 hPa 0,0 mm 5,1 km/h (1 Bft) NO 45 0 min -1,1 C 6,6 km/h (2 Bft)
16.02.2016 04:31 0,2 C -0,1 C 92 % 1023,8 hPa 0,0 mm 5,1 km/h (1 Bft) N-NO 22 0 min -0,9 C 8,3 km/h (2 Bft)
16.02.2016 04:32 0,2 C -0,1 C 92 % 1023,8 hPa 0,0 mm 5,1 km/h (1 Bft) N-NO 22 0 min -0,9 C 8,3 km/h (2 Bft)
16.02.2016 04:33 0,2 C -0,2 C 92 % 1023,8 hPa 0,0 mm 5,7 km/h (1 Bft) N-NW 337 0 min -0,9 C 8,6 km/h (2 Bft)
16.02.2016 04:34 0,2 C -0,2 C 92 % 1023,8 hPa 0,0 mm 5,7 km/h (1 Bft) N-NW 337 0 min -0,9 C 8,6 km/h (2 Bft)
16.02.2016 04:35 0,2 C -0,1 C 92 % 1023,8 hPa 0,0 mm 5,4 km/h (1 Bft) O-SO 112 0 min -0,9 C 0,0 km/h (0 Bft)
16.02.2016 04:36 0,2 C -0,1 C 92 % 1023,8 hPa 0,0 mm 5,4 km/h (1 Bft) O-SO 112 0 min -0,9 C 0,0 km/h (0 Bft)
16.02.2016 04:37 0,2 C -0,2 C 92 % 1023,8 hPa 0,0 mm 6,0 km/h (2 Bft) O-NO 67 0 min -0,9 C 10,1 km/h (2 Bft)
16.02.2016 04:38 0,2 C -0,2 C 92 % 1023,8 hPa 0,0 mm 6,0 km/h (2 Bft) O-NO 67 0 min -0,9 C 10,1 km/h (2 Bft)
16.02.2016 04:39 0,1 C -0,2 C 87 % 1023,8 hPa 0,0 mm 6,0 km/h (2 Bft) NW 315 0 min -1,8 C 7,7 km/h (2 Bft)
16.02.2016 04:40 0,1 C -0,2 C 87 % 1023,8 hPa 0,0 mm 6,0 km/h (2 Bft) NW 315 0 min -1,8 C 7,7 km/h (2 Bft)
16.02.2016 04:41 0,1 C -0,3 C 87 % 1023,8 hPa 0,0 mm 6,6 km/h (2 Bft) N 360 0 min -1,8 C 11,0 km/h (2 Bft)
16.02.2016 04:42 0,1 C -0,3 C 87 % 1023,8 hPa 0,0 mm 6,6 km/h (2 Bft) N 360 0 min -1,8 C 11,0 km/h (2 Bft)
16.02.2016 04:43 0,1 C -0,4 C 87 % 1024,0 hPa 0,0 mm 7,5 km/h (2 Bft) NO 45 0 min -1,8 C 8,0 km/h (2 Bft)
16.02.2016 04:44 0,1 C -0,4 C 87 % 1024,0 hPa 0,0 mm 7,5 km/h (2 Bft) NO 45 0 min -1,8 C 8,0 km/h (2 Bft)
16.02.2016 04:45 0,1 C -0,4 C 92 % 1024,0 hPa 0,0 mm 6,9 km/h (2 Bft) O-NO 67 0 min -1,0 C 5,1 km/h (1 Bft)
16.02.2016 04:46 0,1 C -0,4 C 92 % 1024,0 hPa 0,0 mm 6,9 km/h (2 Bft) O-NO 67 0 min -1,0 C 5,1 km/h (1 Bft)
16.02.2016 04:47 0,1 C -0,4 C 92 % 1024,0 hPa 0,0 mm 6,9 km/h (2 Bft) N-NO 22 0 min -1,0 C 5,1 km/h (1 Bft)
16.02.2016 04:48 0,1 C -0,4 C 92 % 1024,0 hPa 0,0 mm 6,9 km/h (2 Bft) N-NO 22 0 min -1,0 C 5,1 km/h (1 Bft)
16.02.2016 04:49 0,1 C -0,5 C 92 % 1024,0 hPa 0,0 mm 7,2 km/h (2 Bft) N-NO 22 0 min -1,0 C 6,0 km/h (2 Bft)
16.02.2016 04:50 0,1 C -0,5 C 92 % 1024,0 hPa 0,0 mm 7,2 km/h (2 Bft) N-NO 22 0 min -1,0 C 6,0 km/h (2 Bft)
16.02.2016 04:51 0,1 C -0,4 C 92 % 1024,0 hPa 0,0 mm 6,9 km/h (2 Bft) NO 45 0 min -1,0 C 6,3 km/h (2 Bft)
16.02.2016 04:52 0,1 C -0,4 C 92 % 1024,0 hPa 0,0 mm 6,9 km/h (2 Bft) NO 45 0 min -1,0 C 6,3 km/h (2 Bft)
16.02.2016 04:53 0,1 C -0,3 C 92 % 1024,0 hPa 0,0 mm 5,7 km/h (1 Bft) NO 45 0 min -1,0 C 4,2 km/h (1 Bft)
16.02.2016 04:54 0,1 C -0,3 C 92 % 1024,0 hPa 0,0 mm 5,7 km/h (1 Bft) NO 45 0 min -1,0 C 4,2 km/h (1 Bft)
16.02.2016 04:55 0,1 C -0,3 C 92 % 1024,0 hPa 0,0 mm 6,0 km/h (2 Bft) O-SO 112 0 min -1,0 C 7,2 km/h (2 Bft)
16.02.2016 04:56 0,1 C -0,3 C 92 % 1024,0 hPa 0,0 mm 6,0 km/h (2 Bft) O-SO 112 0 min -1,0 C 7,2 km/h (2 Bft)
16.02.2016 04:57 0,1 C -0,2 C 92 % 1024,0 hPa 0,0 mm 5,4 km/h (1 Bft) O-SO 112 0 min -1,0 C 0,0 km/h (0 Bft)
16.02.2016 04:58 0,1 C -0,2 C 92 % 1024,0 hPa 0,0 mm 5,4 km/h (1 Bft) O-SO 112 0 min -1,0 C 0,0 km/h (0 Bft)
16.02.2016 04:59 0,1 C -0,2 C 92 % 1024,0 hPa 0,0 mm 5,4 km/h (1 Bft) N-NW 337 0 min -1,0 C 5,7 km/h (1 Bft)
16.02.2016 05:00 0,1 C -0,2 C 92 % 1024,0 hPa 0,0 mm 5,4 km/h (1 Bft) N-NW 337 0 min -1,0 C 5,7 km/h (1 Bft)
16.02.2016 05:01 0,1 C -0,2 C 92 % 1024,0 hPa 0,0 mm 4,8 km/h (1 Bft) O-NO 67 0 min -1,0 C 5,7 km/h (1 Bft)
16.02.2016 05:02 0,1 C -0,2 C 92 % 1024,0 hPa 0,0 mm 4,8 km/h (1 Bft) O-NO 67 0 min -1,0 C 5,7 km/h (1 Bft)
16.02.2016 05:03 0,1 C -0,2 C 92 % 1024,2 hPa 0,0 mm 4,8 km/h (1 Bft) NO 45 0 min -1,0 C 9,8 km/h (2 Bft)
16.02.2016 05:04 0,1 C -0,2 C 92 % 1024,2 hPa 0,0 mm 4,8 km/h (1 Bft) NO 45 0 min -1,0 C 9,8 km/h (2 Bft)
16.02.2016 05:05 0,1 C -0,2 C 92 % 1024,2 hPa 0,0 mm 5,1 km/h (1 Bft) NO 45 0 min -1,0 C 10,7 km/h (2 Bft)
16.02.2016 05:06 0,1 C -0,2 C 92 % 1024,2 hPa 0,0 mm 5,1 km/h (1 Bft) NO 45 0 min -1,0 C 10,7 km/h (2 Bft)
16.02.2016 05:07 0,1 C -0,3 C 92 % 1024,2 hPa 0,0 mm 5,7 km/h (1 Bft) O-NO 67 0 min -1,0 C 12,5 km/h (3 Bft)
16.02.2016 05:08 0,1 C -0,3 C 92 % 1024,2 hPa 0,0 mm 5,7 km/h (1 Bft) O-NO 67 0 min -1,0 C 12,5 km/h (3 Bft)
16.02.2016 05:09 0,1 C -0,3 C 92 % 1024,2 hPa 0,0 mm 5,7 km/h (1 Bft) O-NO 67 0 min -1,0 C 6,0 km/h (2 Bft)
16.02.2016 05:10 0,1 C -0,3 C 92 % 1024,2 hPa 0,0 mm 5,7 km/h (1 Bft) O-NO 67 0 min -1,0 C 6,0 km/h (2 Bft)
16.02.2016 05:11 0,0 C -0,4 C 87 % 1024,2 hPa 0,0 mm 6,6 km/h (2 Bft) W-SW 247 0 min -1,9 C 9,5 km/h (2 Bft)
16.02.2016 05:12 0,0 C -0,4 C 87 % 1024,2 hPa 0,0 mm 6,6 km/h (2 Bft) W-SW 247 0 min -1,9 C 9,5 km/h (2 Bft)
16.02.2016 05:13 0,0 C -0,4 C 87 % 1024,2 hPa 0,0 mm 6,0 km/h (2 Bft) O-SO 112 0 min -1,9 C 0,0 km/h (0 Bft)
16.02.2016 05:14 0,0 C -0,4 C 87 % 1024,2 hPa 0,0 mm 6,0 km/h (2 Bft) O-SO 112 0 min -1,9 C 0,0 km/h (0 Bft)
16.02.2016 05:15 0,0 C -0,4 C 92 % 1024,2 hPa 0,0 mm 5,7 km/h (1 Bft) N-NW 337 0 min -1,1 C 0,0 km/h (0 Bft)
16.02.2016 05:16 0,0 C -0,4 C 92 % 1024,2 hPa 0,0 mm 5,7 km/h (1 Bft) N-NW 337 0 min -1,1 C 0,0 km/h (0 Bft)
16.02.2016 05:17 0,0 C -0,2 C 87 % 1024,2 hPa 0,0 mm 4,5 km/h (1 Bft) O-SO 112 0 min -1,9 C 0,0 km/h (0 Bft)
16.02.2016 05:18 0,0 C -0,2 C 87 % 1024,2 hPa 0,0 mm 4,5 km/h (1 Bft) O-SO 112 0 min -1,9 C 0,0 km/h (0 Bft)
16.02.2016 05:19 0,0 C -0,1 C 87 % 1024,2 hPa 0,0 mm 3,3 km/h (1 Bft) SO 135 0 min -1,9 C 0,0 km/h (0 Bft)
16.02.2016 05:20 0,0 C -0,1 C 87 % 1024,2 hPa 0,0 mm 3,3 km/h (1 Bft) SO 135 0 min -1,9 C 0,0 km/h (0 Bft)
16.02.2016 05:21 0,0 C -0,1 C 87 % 1024,2 hPa 0,0 mm 2,7 km/h (1 Bft) N-NO 22 0 min -1,9 C 0,0 km/h (0 Bft)
16.02.2016 05:22 0,0 C -0,1 C 87 % 1024,2 hPa 0,0 mm 2,7 km/h (1 Bft) N-NO 22 0 min -1,9 C 0,0 km/h (0 Bft)
16.02.2016 05:23 0,0 C -0,1 C 87 % 1024,4 hPa 0,0 mm 2,4 km/h (1 Bft) N-NO 22 0 min -1,9 C 6,6 km/h (2 Bft)
16.02.2016 05:24 0,0 C -0,1 C 87 % 1024,4 hPa 0,0 mm 2,4 km/h (1 Bft) N-NO 22 0 min -1,9 C 6,6 km/h (2 Bft)
16.02.2016 05:25 0,0 C -0,1 C 87 % 1024,4 hPa 0,0 mm 3,3 km/h (1 Bft) N-NO 22 0 min -1,9 C 9,8 km/h (2 Bft)
16.02.2016 05:26 0,0 C -0,1 C 87 % 1024,4 hPa 0,0 mm 3,3 km/h (1 Bft) N-NO 22 0 min -1,9 C 9,8 km/h (2 Bft)
16.02.2016 05:27 0,0 C -0,2 C 92 % 1024,4 hPa 0,0 mm 3,9 km/h (1 Bft) N-NO 22 0 min -1,1 C 6,3 km/h (2 Bft)
16.02.2016 05:28 0,0 C -0,2 C 92 % 1024,4 hPa 0,0 mm 3,9 km/h (1 Bft) N-NO 22 0 min -1,1 C 6,3 km/h (2 Bft)
16.02.2016 05:29 0,0 C -0,3 C 92 % 1024,4 hPa 0,0 mm 4,8 km/h (1 Bft) N-NO 22 0 min -1,1 C 6,9 km/h (2 Bft)
16.02.2016 05:30 0,0 C -0,3 C 92 % 1024,4 hPa 0,0 mm 4,8 km/h (1 Bft) N-NO 22 0 min -1,1 C 6,9 km/h (2 Bft)
16.02.2016 05:31 0,0 C -0,3 C 92 % 1024,4 hPa 0,0 mm 4,8 km/h (1 Bft) O-NO 67 0 min -1,1 C 0,0 km/h (0 Bft)
16.02.2016 05:32 0,0 C -0,3 C 92 % 1024,4 hPa 0,0 mm 4,8 km/h (1 Bft) O-NO 67 0 min -1,1 C 0,0 km/h (0 Bft)
16.02.2016 05:33 0,0 C -0,4 C 92 % 1024,4 hPa 0,0 mm 5,7 km/h (1 Bft) S-SO 157 0 min -1,1 C 5,4 km/h (1 Bft)
16.02.2016 05:34 0,0 C -0,4 C 92 % 1024,4 hPa 0,0 mm 5,7 km/h (1 Bft) S-SO 157 0 min -1,1 C 5,4 km/h (1 Bft)
16.02.2016 05:35 0,0 C -0,4 C 92 % 1024,4 hPa 0,0 mm 5,1 km/h (1 Bft) N-NO 22 0 min -1,1 C 4,2 km/h (1 Bft)
16.02.2016 05:36 0,0 C -0,4 C 92 % 1024,4 hPa 0,0 mm 5,1 km/h (1 Bft) N-NO 22 0 min -1,1 C 4,2 km/h (1 Bft)
16.02.2016 05:37 0,0 C -0,3 C 92 % 1024,4 hPa 0,0 mm 4,8 km/h (1 Bft) O-NO 67 0 min -1,1 C 8,9 km/h (2 Bft)
16.02.2016 05:38 0,0 C -0,3 C 92 % 1024,4 hPa 0,0 mm 4,8 km/h (1 Bft) O-NO 67 0 min -1,1 C 8,9 km/h (2 Bft)
16.02.2016 05:39 0,0 C -0,2 C 92 % 1024,4 hPa 0,0 mm 4,2 km/h (1 Bft) N-NW 337 0 min -1,1 C 5,7 km/h (1 Bft)
16.02.2016 05:40 0,0 C -0,2 C 92 % 1024,4 hPa 0,0 mm 4,2 km/h (1 Bft) N-NW 337 0 min -1,1 C 5,7 km/h (1 Bft)
16.02.2016 05:41 0,0 C -0,2 C 92 % 1024,4 hPa 0,0 mm 4,2 km/h (1 Bft) O-SO 112 0 min -1,1 C 0,0 km/h (0 Bft)
16.02.2016 05:42 0,0 C -0,2 C 92 % 1024,4 hPa 0,0 mm 4,2 km/h (1 Bft) O-SO 112 0 min -1,1 C 0,0 km/h (0 Bft)
16.02.2016 05:43 0,0 C -0,2 C 92 % 1024,6 hPa 0,0 mm 3,9 km/h (1 Bft) N-NO 22 0 min -1,1 C 6,6 km/h (2 Bft)
16.02.2016 05:44 0,0 C -0,2 C 92 % 1024,6 hPa 0,0 mm 3,9 km/h (1 Bft) N-NO 22 0 min -1,1 C 6,6 km/h (2 Bft)
16.02.2016 05:45 0,0 C -0,2 C 92 % 1024,6 hPa 0,0 mm 3,9 km/h (1 Bft) NO 45 0 min -1,1 C 7,7 km/h (2 Bft)
16.02.2016 05:46 0,0 C -0,2 C 92 % 1024,6 hPa 0,0 mm 3,9 km/h (1 Bft) NO 45 0 min -1,1 C 7,7 km/h (2 Bft)
16.02.2016 05:47 0,0 C -0,2 C 92 % 1024,6 hPa 0,0 mm 3,9 km/h (1 Bft) N-NO 22 0 min -1,1 C 5,1 km/h (1 Bft)
16.02.2016 05:48 0,0 C -0,2 C 92 % 1024,6 hPa 0,0 mm 3,9 km/h (1 Bft) N-NO 22 0 min -1,1 C 5,1 km/h (1 Bft)
16.02.2016 05:49 0,0 C -0,2 C 92 % 1024,6 hPa 0,0 mm 3,3 km/h (1 Bft) NO 45 0 min -1,1 C 6,9 km/h (2 Bft)
16.02.2016 05:50 0,0 C -0,2 C 92 % 1024,6 hPa 0,0 mm 3,3 km/h (1 Bft) NO 45 0 min -1,1 C 6,9 km/h (2 Bft)
16.02.2016 05:51 0,0 C -0,2 C 92 % 1024,6 hPa 0,0 mm 3,3 km/h (1 Bft) NO 45 0 min -1,1 C 5,7 km/h (1 Bft)
16.02.2016 05:52 0,0 C -0,2 C 92 % 1024,6 hPa 0,0 mm 3,3 km/h (1 Bft) NO 45 0 min -1,1 C 5,7 km/h (1 Bft)
16.02.2016 05:53 0,0 C -0,3 C 92 % 1024,6 hPa 0,0 mm 4,5 km/h (1 Bft) N-NO 22 0 min -1,1 C 9,2 km/h (2 Bft)
16.02.2016 05:54 0,0 C -0,3 C 92 % 1024,6 hPa 0,0 mm 4,5 km/h (1 Bft) N-NO 22 0 min -1,1 C 9,2 km/h (2 Bft)
16.02.2016 05:55 0,0 C -0,2 C 92 % 1024,6 hPa 0,0 mm 4,2 km/h (1 Bft) O-NO 67 0 min -1,1 C 0,0 km/h (0 Bft)
16.02.2016 05:56 0,0 C -0,2 C 92 % 1024,6 hPa 0,0 mm 4,2 km/h (1 Bft) O-NO 67 0 min -1,1 C 0,0 km/h (0 Bft)
16.02.2016 05:57 0,0 C -0,3 C 92 % 1024,6 hPa 0,0 mm 4,5 km/h (1 Bft) O-NO 67 0 min -1,1 C 6,3 km/h (2 Bft)
16.02.2016 05:58 0,0 C -0,3 C 92 % 1024,6 hPa 0,0 mm 4,5 km/h (1 Bft) O-NO 67 0 min -1,1 C 6,3 km/h (2 Bft)
16.02.2016 05:59 0,0 C -0,2 C 92 % 1024,6 hPa 0,0 mm 4,2 km/h (1 Bft) NO 45 0 min -1,1 C 5,7 km/h (1 Bft)
16.02.2016 06:00 0,0 C -0,2 C 92 % 1024,6 hPa 0,0 mm 4,2 km/h (1 Bft) NO 45 0 min -1,1 C 5,7 km/h (1 Bft)
16.02.2016 06:01 0,0 C -0,3 C 92 % 1024,6 hPa 0,0 mm 4,5 km/h (1 Bft) N-NO 22 0 min -1,1 C 10,7 km/h (2 Bft)
16.02.2016 06:02 0,0 C -0,3 C 92 % 1024,6 hPa 0,0 mm 4,5 km/h (1 Bft) N-NO 22 0 min -1,1 C 10,7 km/h (2 Bft)
16.02.2016 06:03 0,0 C -0,3 C 92 % 1024,9 hPa 0,0 mm 4,5 km/h (1 Bft) N-NO 22 0 min -1,1 C 10,7 km/h (2 Bft)
16.02.2016 06:04 0,0 C -0,3 C 92 % 1024,9 hPa 0,0 mm 4,5 km/h (1 Bft) N-NO 22 0 min -1,1 C 10,7 km/h (2 Bft)
16.02.2016 06:05 0,0 C -0,2 C 92 % 1024,9 hPa 0,0 mm 3,9 km/h (1 Bft) O-SO 112 0 min -1,1 C 6,3 km/h (2 Bft)
16.02.2016 06:06 0,0 C -0,2 C 92 % 1024,9 hPa 0,0 mm 3,9 km/h (1 Bft) O-SO 112 0 min -1,1 C 6,3 km/h (2 Bft)
16.02.2016 06:07 0,0 C -0,3 C 92 % 1024,9 hPa 0,0 mm 4,5 km/h (1 Bft) O 90 0 min -1,1 C 10,1 km/h (2 Bft)
16.02.2016 06:08 0,0 C -0,3 C 92 % 1024,9 hPa 0,0 mm 4,5 km/h (1 Bft) O 90 0 min -1,1 C 10,1 km/h (2 Bft)
16.02.2016 06:09 0,0 C -0,3 C 92 % 1024,9 hPa 0,0 mm 4,5 km/h (1 Bft) N-NO 22 0 min -1,1 C 8,0 km/h (2 Bft)
16.02.2016 06:10 0,0 C -0,3 C 92 % 1024,9 hPa 0,0 mm 4,5 km/h (1 Bft) N-NO 22 0 min -1,1 C 8,0 km/h (2 Bft)
16.02.2016 06:11 -0,1 C -0,4 C 87 % 1024,9 hPa 0,0 mm 5,4 km/h (1 Bft) N-NO 22 0 min -2,0 C 5,7 km/h (1 Bft)
16.02.2016 06:12 -0,1 C -0,4 C 87 % 1024,9 hPa 0,0 mm 5,4 km/h (1 Bft) N-NO 22 0 min -2,0 C 5,7 km/h (1 Bft)
16.02.2016 06:13 -0,1 C -0,3 C 87 % 1024,9 hPa 0,0 mm 4,8 km/h (1 Bft) N-NO 22 0 min -2,0 C 6,9 km/h (2 Bft)
16.02.2016 06:14 -0,1 C -0,3 C 87 % 1024,9 hPa 0,0 mm 4,8 km/h (1 Bft) N-NO 22 0 min -2,0 C 6,9 km/h (2 Bft)
16.02.2016 06:15 -0,1 C -0,3 C 87 % 1024,9 hPa 0,0 mm 4,5 km/h (1 Bft) N-NO 22 0 min -2,0 C 5,7 km/h (1 Bft)
16.02.2016 06:16 -0,1 C -0,3 C 87 % 1024,9 hPa 0,0 mm 4,5 km/h (1 Bft) N-NO 22 0 min -2,0 C 5,7 km/h (1 Bft)
16.02.2016 06:17 -0,1 C -0,3 C 87 % 1024,9 hPa 0,0 mm 4,8 km/h (1 Bft) O-NO 67 0 min -2,0 C 7,5 km/h (2 Bft)
16.02.2016 06:18 -0,1 C -0,3 C 87 % 1024,9 hPa 0,0 mm 4,8 km/h (1 Bft) O-NO 67 0 min -2,0 C 7,5 km/h (2 Bft)
16.02.2016 06:19 -0,1 C -0,2 C 87 % 1024,9 hPa 0,0 mm 4,2 km/h (1 Bft) NO 45 0 min -2,0 C 4,2 km/h (1 Bft)
16.02.2016 06:20 -0,1 C -0,2 C 87 % 1024,9 hPa 0,0 mm 4,2 km/h (1 Bft) NO 45 0 min -2,0 C 4,2 km/h (1 Bft)
16.02.2016 06:21 -0,1 C -0,3 C 87 % 1024,9 hPa 0,0 mm 4,5 km/h (1 Bft) N-NW 337 0 min -2,0 C 6,0 km/h (2 Bft)
16.02.2016 06:22 -0,1 C -0,3 C 87 % 1024,9 hPa 0,0 mm 4,5 km/h (1 Bft) N-NW 337 0 min -2,0 C 6,0 km/h (2 Bft)
16.02.2016 06:23 -0,1 C -0,2 C 87 % 1025,1 hPa 0,0 mm 4,2 km/h (1 Bft) NW 315 0 min -2,0 C 9,5 km/h (2 Bft)
16.02.2016 06:24 -0,1 C -0,2 C 87 % 1025,1 hPa 0,0 mm 4,2 km/h (1 Bft) NW 315 0 min -2,0 C 9,5 km/h (2 Bft)
16.02.2016 06:25 -0,1 C -0,3 C 87 % 1025,1 hPa 0,0 mm 4,5 km/h (1 Bft) O-NO 67 0 min -2,0 C 6,9 km/h (2 Bft)
16.02.2016 06:26 -0,1 C -0,3 C 87 % 1025,1 hPa 0,0 mm 4,5 km/h (1 Bft) O-NO 67 0 min -2,0 C 6,9 km/h (2 Bft)
16.02.2016 06:27 -0,1 C -0,3 C 87 % 1025,1 hPa 0,0 mm 4,8 km/h (1 Bft) NO 45 0 min -2,0 C 8,0 km/h (2 Bft)
16.02.2016 06:28 -0,1 C -0,3 C 87 % 1025,1 hPa 0,0 mm 4,8 km/h (1 Bft) NO 45 0 min -2,0 C 8,0 km/h (2 Bft)
16.02.2016 06:29 -0,1 C -0,3 C 87 % 1025,1 hPa 0,0 mm 4,8 km/h (1 Bft) O-NO 67 0 min -2,0 C 7,7 km/h (2 Bft)
16.02.2016 06:30 -0,1 C -0,3 C 87 % 1025,1 hPa 0,0 mm 4,8 km/h (1 Bft) O-NO 67 0 min -2,0 C 7,7 km/h (2 Bft)
16.02.2016 06:31 -0,1 C -0,4 C 87 % 1025,1 hPa 0,0 mm 5,1 km/h (1 Bft) O-NO 67 0 min -2,0 C 6,0 km/h (2 Bft)
16.02.2016 06:32 -0,1 C -0,4 C 87 % 1025,1 hPa 0,0 mm 5,1 km/h (1 Bft) O-NO 67 0 min -2,0 C 6,0 km/h (2 Bft)
16.02.2016 06:33 -0,1 C -0,4 C 87 % 1025,1 hPa 0,0 mm 5,4 km/h (1 Bft) O-NO 67 0 min -2,0 C 3,9 km/h (1 Bft)
16.02.2016 06:34 -0,1 C -0,4 C 87 % 1025,1 hPa 0,0 mm 5,4 km/h (1 Bft) O-NO 67 0 min -2,0 C 3,9 km/h (1 Bft)
16.02.2016 06:35 -0,1 C -0,4 C 92 % 1025,1 hPa 0,0 mm 4,8 km/h (1 Bft) O-NO 67 0 min -1,2 C 8,0 km/h (2 Bft)
16.02.2016 06:36 -0,1 C -0,4 C 92 % 1025,1 hPa 0,0 mm 4,8 km/h (1 Bft) O-NO 67 0 min -1,2 C 8,0 km/h (2 Bft)
16.02.2016 06:37 -0,1 C -0,4 C 92 % 1025,1 hPa 0,0 mm 5,1 km/h (1 Bft) O-NO 67 0 min -1,2 C 5,4 km/h (1 Bft)
16.02.2016 06:38 -0,1 C -0,4 C 92 % 1025,1 hPa 0,0 mm 5,1 km/h (1 Bft) O-NO 67 0 min -1,2 C 5,4 km/h (1 Bft)
16.02.2016 06:39 -0,1 C -0,3 C 92 % 1025,1 hPa 0,0 mm 4,5 km/h (1 Bft) NO 45 0 min -1,2 C 6,3 km/h (2 Bft)
16.02.2016 06:40 -0,1 C -0,3 C 92 % 1025,1 hPa 0,0 mm 4,5 km/h (1 Bft) NO 45 0 min -1,2 C 6,3 km/h (2 Bft)
16.02.2016 06:41 -0,1 C -0,4 C 92 % 1025,1 hPa 0,0 mm 4,8 km/h (1 Bft) NO 45 0 min -1,2 C 8,0 km/h (2 Bft)
16.02.2016 06:42 -0,1 C -0,4 C 92 % 1025,1 hPa 0,0 mm 4,8 km/h (1 Bft) NO 45 0 min -1,2 C 8,0 km/h (2 Bft)
16.02.2016 06:43 -0,1 C -0,5 C 92 % 1025,1 hPa 0,0 mm 5,4 km/h (1 Bft) O-SO 112 0 min -1,2 C 6,9 km/h (2 Bft)
16.02.2016 06:44 -0,1 C -0,5 C 92 % 1025,1 hPa 0,0 mm 5,4 km/h (1 Bft) O-SO 112 0 min -1,2 C 6,9 km/h (2 Bft)
16.02.2016 06:45 -0,1 C -0,5 C 92 % 1025,1 hPa 0,0 mm 6,0 km/h (2 Bft) O-NO 67 0 min -1,2 C 6,6 km/h (2 Bft)
16.02.2016 06:46 -0,1 C -0,5 C 92 % 1025,1 hPa 0,0 mm 6,0 km/h (2 Bft) O-NO 67 0 min -1,2 C 6,6 km/h (2 Bft)
16.02.2016 06:47 -0,1 C -0,5 C 92 % 1025,1 hPa 0,0 mm 6,0 km/h (2 Bft) N-NO 22 0 min -1,2 C 8,6 km/h (2 Bft)
16.02.2016 06:48 -0,1 C -0,5 C 92 % 1025,1 hPa 0,0 mm 6,0 km/h (2 Bft) N-NO 22 0 min -1,2 C 8,6 km/h (2 Bft)
16.02.2016 06:49 -0,1 C -0,6 C 93 % 1025,1 hPa 0,0 mm 6,6 km/h (2 Bft) N-NO 22 0 min -1,1 C 8,0 km/h (2 Bft)
16.02.2016 06:50 -0,1 C -0,6 C 93 % 1025,1 hPa 0,0 mm 6,6 km/h (2 Bft) N-NO 22 0 min -1,1 C 8,0 km/h (2 Bft)
16.02.2016 06:51 -0,1 C -0,5 C 93 % 1025,1 hPa 0,0 mm 6,0 km/h (2 Bft) O-NO 67 0 min -1,1 C 0,0 km/h (0 Bft)
16.02.2016 06:52 -0,1 C -0,5 C 93 % 1025,1 hPa 0,0 mm 6,0 km/h (2 Bft) O-NO 67 0 min -1,1 C 0,0 km/h (0 Bft)
16.02.2016 06:53 -0,1 C -0,5 C 93 % 1025,1 hPa 0,0 mm 5,7 km/h (1 Bft) N-NO 22 0 min -1,1 C 4,8 km/h (1 Bft)
16.02.2016 06:54 -0,1 C -0,5 C 93 % 1025,1 hPa 0,0 mm 5,7 km/h (1 Bft) N-NO 22 0 min -1,1 C 4,8 km/h (1 Bft)
16.02.2016 06:55 -0,1 C -0,3 C 93 % 1025,1 hPa 0,0 mm 4,2 km/h (1 Bft) O 90 0 min -1,1 C 3,3 km/h (1 Bft)
16.02.2016 06:56 -0,1 C -0,3 C 93 % 1025,1 hPa 0,0 mm 4,2 km/h (1 Bft) O 90 0 min -1,1 C 3,3 km/h (1 Bft)
16.02.2016 06:57 -0,1 C -0,3 C 93 % 1025,1 hPa 0,0 mm 4,2 km/h (1 Bft) NO 45 0 min -1,1 C 13,1 km/h (3 Bft)
16.02.2016 06:58 -0,1 C -0,3 C 93 % 1025,1 hPa 0,0 mm 4,2 km/h (1 Bft) NO 45 0 min -1,1 C 13,1 km/h (3 Bft)
16.02.2016 06:59 -0,1 C -0,3 C 93 % 1025,1 hPa 0,0 mm 4,2 km/h (1 Bft) NO 45 0 min -1,1 C 4,2 km/h (1 Bft)
16.02.2016 07:00 -0,1 C -0,3 C 93 % 1025,1 hPa 0,0 mm 4,2 km/h (1 Bft) NO 45 0 min -1,1 C 4,2 km/h (1 Bft)
16.02.2016 07:01 -0,1 C -0,3 C 93 % 1025,1 hPa 0,0 mm 3,9 km/h (1 Bft) N-NO 22 0 min -1,1 C 4,2 km/h (1 Bft)
16.02.2016 07:02 -0,1 C -0,3 C 93 % 1025,1 hPa 0,0 mm 3,9 km/h (1 Bft) N-NO 22 0 min -1,1 C 4,2 km/h (1 Bft)
16.02.2016 07:03 -0,1 C -0,3 C 92 % 1025,4 hPa 0,0 mm 4,2 km/h (1 Bft) N-NO 22 0 min -1,2 C 8,3 km/h (2 Bft)
16.02.2016 07:04 -0,1 C -0,3 C 92 % 1025,4 hPa 0,0 mm 4,2 km/h (1 Bft) N-NO 22 0 min -1,2 C 8,3 km/h (2 Bft)
16.02.2016 07:05 -0,1 C -0,4 C 92 % 1025,4 hPa 0,0 mm 4,8 km/h (1 Bft) N-NO 22 0 min -1,2 C 11,9 km/h (2 Bft)
16.02.2016 07:06 -0,1 C -0,4 C 92 % 1025,4 hPa 0,0 mm 4,8 km/h (1 Bft) N-NO 22 0 min -1,2 C 11,9 km/h (2 Bft)
16.02.2016 07:07 -0,2 C -0,6 C 92 % 1025,4 hPa 0,0 mm 5,7 km/h (1 Bft) NO 45 0 min -1,3 C 13,1 km/h (3 Bft)
16.02.2016 07:08 -0,2 C -0,6 C 92 % 1025,4 hPa 0,0 mm 5,7 km/h (1 Bft) NO 45 0 min -1,3 C 13,1 km/h (3 Bft)
16.02.2016 07:09 -0,2 C -0,6 C 92 % 1025,4 hPa 0,0 mm 5,4 km/h (1 Bft) O 90 0 min -1,3 C 5,1 km/h (1 Bft)
16.02.2016 07:10 -0,2 C -0,6 C 92 % 1025,4 hPa 0,0 mm 5,4 km/h (1 Bft) O 90 0 min -1,3 C 5,1 km/h (1 Bft)
16.02.2016 07:11 -0,3 C -0,9 C 92 % 1025,4 hPa 0,0 mm 7,2 km/h (2 Bft) O-SO 112 0 min -1,4 C 8,3 km/h (2 Bft)
16.02.2016 07:12 -0,3 C -0,9 C 92 % 1025,4 hPa 0,0 mm 7,2 km/h (2 Bft) O-SO 112 0 min -1,4 C 8,3 km/h (2 Bft)
16.02.2016 07:13 -0,4 C -1,0 C 92 % 1025,4 hPa 0,0 mm 7,7 km/h (2 Bft) N-NO 22 0 min -1,5 C 15,5 km/h (3 Bft)
16.02.2016 07:14 -0,4 C -1,0 C 92 % 1025,4 hPa 0,0 mm 7,7 km/h (2 Bft) N-NO 22 0 min -1,5 C 15,5 km/h (3 Bft)
16.02.2016 07:15 -0,4 C -1,1 C 92 % 1025,4 hPa 0,0 mm 8,6 km/h (2 Bft) N-NO 22 0 min -1,5 C 19,1 km/h (3 Bft)
16.02.2016 07:16 -0,4 C -1,1 C 92 % 1025,4 hPa 0,0 mm 8,6 km/h (2 Bft) N-NO 22 0 min -1,5 C 19,1 km/h (3 Bft)
16.02.2016 07:17 -0,4 C -1,2 C 92 % 1025,4 hPa 0,0 mm 9,5 km/h (2 Bft) O-NO 67 0 min -1,5 C 8,9 km/h (2 Bft)
16.02.2016 07:18 -0,4 C -1,2 C 92 % 1025,4 hPa 0,0 mm 9,5 km/h (2 Bft) O-NO 67 0 min -1,5 C 8,9 km/h (2 Bft)
16.02.2016 07:19 -0,4 C -1,2 C 92 % 1025,4 hPa 0,0 mm 9,2 km/h (2 Bft) O-NO 67 0 min -1,5 C 4,5 km/h (1 Bft)
16.02.2016 07:20 -0,4 C -1,2 C 92 % 1025,4 hPa 0,0 mm 9,2 km/h (2 Bft) O-NO 67 0 min -1,5 C 4,5 km/h (1 Bft)
16.02.2016 07:21 -0,4 C -1,2 C 92 % 1025,4 hPa 0,0 mm 9,2 km/h (2 Bft) O-NO 67 0 min -1,5 C 15,8 km/h (3 Bft)
16.02.2016 07:22 -0,4 C -1,2 C 92 % 1025,4 hPa 0,0 mm 9,2 km/h (2 Bft) O-NO 67 0 min -1,5 C 15,8 km/h (3 Bft)
16.02.2016 07:23 -0,5 C -1,2 C 88 % 1025,8 hPa 0,0 mm 8,9 km/h (2 Bft) N-NO 22 0 min -2,2 C 9,8 km/h (2 Bft)
16.02.2016 07:24 -0,5 C -1,2 C 88 % 1025,8 hPa 0,0 mm 8,9 km/h (2 Bft) N-NO 22 0 min -2,2 C 9,8 km/h (2 Bft)
16.02.2016 07:25 -0,5 C -1,2 C 88 % 1025,8 hPa 0,0 mm 9,5 km/h (2 Bft) O-NO 67 0 min -2,2 C 12,5 km/h (3 Bft)
16.02.2016 07:26 -0,5 C -1,2 C 88 % 1025,8 hPa 0,0 mm 9,5 km/h (2 Bft) O-NO 67 0 min -2,2 C 12,5 km/h (3 Bft)
16.02.2016 07:27 -0,5 C -1,2 C 92 % 1025,8 hPa 0,0 mm 8,6 km/h (2 Bft) NW 315 0 min -1,6 C 9,8 km/h (2 Bft)
16.02.2016 07:28 -0,5 C -1,2 C 92 % 1025,8 hPa 0,0 mm 8,6 km/h (2 Bft) NW 315 0 min -1,6 C 9,8 km/h (2 Bft)
16.02.2016 07:29 -0,5 C -1,3 C 92 % 1025,8 hPa 0,0 mm 8,9 km/h (2 Bft) N-NW 337 0 min -1,6 C 13,1 km/h (3 Bft)
16.02.2016 07:30 -0,5 C -1,3 C 92 % 1025,8 hPa 0,0 mm 8,9 km/h (2 Bft) N-NW 337 0 min -1,6 C 13,1 km/h (3 Bft)
16.02.2016 07:31 -0,5 C -1,3 C 92 % 1025,8 hPa 0,0 mm 9,8 km/h (2 Bft) O-NO 67 0 min -1,6 C 16,7 km/h (3 Bft)
16.02.2016 07:32 -0,5 C -1,3 C 92 % 1025,8 hPa 0,0 mm 9,8 km/h (2 Bft) O-NO 67 0 min -1,6 C 16,7 km/h (3 Bft)
16.02.2016 07:33 -0,5 C -1,3 C 92 % 1025,8 hPa 0,0 mm 9,2 km/h (2 Bft) NO 45 0 min -1,6 C 10,4 km/h (2 Bft)
16.02.2016 07:34 -0,5 C -1,3 C 92 % 1025,8 hPa 0,0 mm 9,2 km/h (2 Bft) NO 45 0 min -1,6 C 10,4 km/h (2 Bft)
16.02.2016 07:35 -0,6 C -1,2 C 88 % 1025,8 hPa 0,0 mm 8,0 km/h (2 Bft) O-NO 67 0 min -2,3 C 6,6 km/h (2 Bft)
16.02.2016 07:36 -0,6 C -1,2 C 88 % 1025,8 hPa 0,0 mm 8,0 km/h (2 Bft) O-NO 67 0 min -2,3 C 6,6 km/h (2 Bft)
16.02.2016 07:37 -0,6 C -1,1 C 88 % 1025,8 hPa 0,0 mm 7,2 km/h (2 Bft) NO 45 0 min -2,3 C 5,4 km/h (1 Bft)
16.02.2016 07:38 -0,6 C -1,1 C 88 % 1025,8 hPa 0,0 mm 7,2 km/h (2 Bft) NO 45 0 min -2,3 C 5,4 km/h (1 Bft)
16.02.2016 07:39 -0,6 C -1,1 C 88 % 1025,8 hPa 0,0 mm 7,2 km/h (2 Bft) NO 45 0 min -2,3 C 14,6 km/h (3 Bft)
16.02.2016 07:40 -0,6 C -1,1 C 88 % 1025,8 hPa 0,0 mm 7,2 km/h (2 Bft) NO 45 0 min -2,3 C 14,6 km/h (3 Bft)
16.02.2016 07:41 -0,6 C -1,1 C 88 % 1025,8 hPa 0,0 mm 7,2 km/h (2 Bft) NO 45 0 min -2,3 C 8,6 km/h (2 Bft)
16.02.2016 07:42 -0,6 C -1,1 C 88 % 1025,8 hPa 0,0 mm 7,2 km/h (2 Bft) NO 45 0 min -2,3 C 8,6 km/h (2 Bft)
16.02.2016 07:43 -0,6 C -1,0 C 88 % 1026,2 hPa 0,0 mm 6,3 km/h (2 Bft) N-NO 22 0 min -2,3 C 6,9 km/h (2 Bft)
16.02.2016 07:44 -0,6 C -1,0 C 88 % 1026,2 hPa 0,0 mm 6,3 km/h (2 Bft) N-NO 22 0 min -2,3 C 6,9 km/h (2 Bft)
16.02.2016 07:45 -0,6 C -1,1 C 88 % 1026,2 hPa 0,0 mm 6,9 km/h (2 Bft) SO 135 0 min -2,3 C 4,8 km/h (1 Bft)
16.02.2016 07:46 -0,6 C -1,1 C 88 % 1026,2 hPa 0,0 mm 6,9 km/h (2 Bft) SO 135 0 min -2,3 C 4,8 km/h (1 Bft)
16.02.2016 07:47 -0,6 C -1,1 C 88 % 1026,2 hPa 0,0 mm 7,5 km/h (2 Bft) N-NW 337 0 min -2,3 C 17,0 km/h (3 Bft)
16.02.2016 07:48 -0,6 C -1,1 C 88 % 1026,2 hPa 0,0 mm 7,5 km/h (2 Bft) N-NW 337 0 min -2,3 C 17,0 km/h (3 Bft)
16.02.2016 07:49 -0,6 C -1,3 C 92 % 1026,2 hPa 0,0 mm 8,0 km/h (2 Bft) N-NO 22 0 min -1,7 C 9,8 km/h (2 Bft)
16.02.2016 07:50 -0,6 C -1,3 C 92 % 1026,2 hPa 0,0 mm 8,0 km/h (2 Bft) N-NO 22 0 min -1,7 C 9,8 km/h (2 Bft)
16.02.2016 07:51 -0,6 C -1,2 C 92 % 1026,2 hPa 0,0 mm 6,9 km/h (2 Bft) N-NO 22 0 min -1,7 C 8,3 km/h (2 Bft)
16.02.2016 07:52 -0,6 C -1,2 C 92 % 1026,2 hPa 0,0 mm 6,9 km/h (2 Bft) N-NO 22 0 min -1,7 C 8,3 km/h (2 Bft)
16.02.2016 07:53 -0,6 C -1,2 C 92 % 1026,2 hPa 0,0 mm 7,2 km/h (2 Bft) N-NO 22 0 min -1,7 C 12,8 km/h (3 Bft)
16.02.2016 07:54 -0,6 C -1,2 C 92 % 1026,2 hPa 0,0 mm 7,2 km/h (2 Bft) N-NO 22 0 min -1,7 C 12,8 km/h (3 Bft)
16.02.2016 07:55 -0,7 C -1,3 C 88 % 1026,2 hPa 0,0 mm 7,7 km/h (2 Bft) O 90 0 min -2,4 C 11,3 km/h (2 Bft)
16.02.2016 07:56 -0,7 C -1,3 C 88 % 1026,2 hPa 0,0 mm 7,7 km/h (2 Bft) O 90 0 min -2,4 C 11,3 km/h (2 Bft)
16.02.2016 07:57 -0,7 C -1,3 C 88 % 1026,2 hPa 0,0 mm 8,3 km/h (2 Bft) N-NO 22 0 min -2,4 C 13,4 km/h (3 Bft)
16.02.2016 07:58 -0,7 C -1,3 C 88 % 1026,2 hPa 0,0 mm 8,3 km/h (2 Bft) N-NO 22 0 min -2,4 C 13,4 km/h (3 Bft)
16.02.2016 07:59 -0,7 C -1,3 C 88 % 1026,2 hPa 0,0 mm 8,0 km/h (2 Bft) O-NO 67 0 min -2,4 C 12,5 km/h (3 Bft)
16.02.2016 08:00 -0,7 C -1,3 C 88 % 1026,2 hPa 0,0 mm 8,0 km/h (2 Bft) O-NO 67 0 min -2,4 C 12,5 km/h (3 Bft)
16.02.2016 08:01 -0,7 C -1,3 C 88 % 1026,2 hPa 0,0 mm 7,7 km/h (2 Bft) NO 45 0 min -2,4 C 11,9 km/h (2 Bft)
16.02.2016 08:02 -0,7 C -1,3 C 88 % 1026,2 hPa 0,0 mm 7,7 km/h (2 Bft) NO 45 0 min -2,4 C 11,9 km/h (2 Bft)
16.02.2016 08:03 -0,7 C -1,3 C 88 % 1026,3 hPa 0,0 mm 8,0 km/h (2 Bft) N-NO 22 0 min -2,4 C 9,5 km/h (2 Bft)
16.02.2016 08:04 -0,7 C -1,3 C 88 % 1026,3 hPa 0,0 mm 8,0 km/h (2 Bft) N-NO 22 0 min -2,4 C 9,5 km/h (2 Bft)
16.02.2016 08:06 -0,7 C -1,3 C 88 % 1026,3 hPa 0,0 mm 8,0 km/h (2 Bft) O-NO 67 0 min -2,4 C 9,8 km/h (2 Bft)
16.02.2016 08:08 -0,7 C -1,3 C 88 % 1026,3 hPa 0,0 mm 7,7 km/h (2 Bft) N-NO 22 0 min -2,4 C 10,7 km/h (2 Bft)
16.02.2016 08:09 -0,7 C -1,3 C 88 % 1026,3 hPa 0,0 mm 7,7 km/h (2 Bft) N-NO 22 0 min -2,4 C 6,6 km/h (2 Bft)
16.02.2016 08:10 -0,7 C -1,3 C 88 % 1026,3 hPa 0,0 mm 7,7 km/h (2 Bft) N-NO 22 0 min -2,4 C 6,6 km/h (2 Bft)
16.02.2016 08:11 -0,7 C -1,3 C 88 % 1026,3 hPa 0,0 mm 7,7 km/h (2 Bft) O-NO 67 0 min -2,4 C 6,9 km/h (2 Bft)
16.02.2016 08:12 -0,7 C -1,3 C 88 % 1026,3 hPa 0,0 mm 7,7 km/h (2 Bft) O-NO 67 0 min -2,4 C 6,9 km/h (2 Bft)
16.02.2016 08:13 -0,7 C -1,2 C 88 % 1026,3 hPa 0,0 mm 7,2 km/h (2 Bft) N-NO 22 0 min -2,4 C 13,7 km/h (3 Bft)
16.02.2016 08:14 -0,7 C -1,2 C 88 % 1026,3 hPa 0,0 mm 7,2 km/h (2 Bft) N-NO 22 0 min -2,4 C 25,9 km/h (4 Bft)
16.02.2016 08:15 -0,7 C -1,3 C 88 % 1026,3 hPa 0,0 mm 7,7 km/h (2 Bft) N-NO 22 0 min -2,4 C 5,1 km/h (1 Bft)
16.02.2016 08:16 -0,7 C -1,3 C 88 % 1026,3 hPa 0,0 mm 7,7 km/h (2 Bft) N-NO 22 0 min -2,4 C 5,1 km/h (1 Bft)
16.02.2016 08:17 -0,7 C -1,4 C 88 % 1026,3 hPa 0,0 mm 8,9 km/h (2 Bft) O-NO 67 0 min -2,4 C 14,3 km/h (3 Bft)
16.02.2016 08:18 -0,7 C -1,4 C 88 % 1026,3 hPa 0,0 mm 8,9 km/h (2 Bft) O-NO 67 0 min -2,4 C 14,3 km/h (3 Bft)
16.02.2016 08:19 -0,7 C -1,4 C 88 % 1026,3 hPa 0,0 mm 9,5 km/h (2 Bft) N-NO 22 0 min -2,4 C 15,2 km/h (3 Bft)
16.02.2016 08:20 -0,7 C -1,4 C 88 % 1026,3 hPa 0,0 mm 9,5 km/h (2 Bft) N-NO 22 0 min -2,4 C 15,2 km/h (3 Bft)
16.02.2016 08:21 -0,7 C -1,5 C 88 % 1026,3 hPa 0,0 mm 9,8 km/h (2 Bft) NO 45 0 min -2,4 C 13,4 km/h (3 Bft)
16.02.2016 08:22 -0,7 C -1,5 C 88 % 1026,3 hPa 0,0 mm 9,8 km/h (2 Bft) NO 45 0 min -2,4 C 13,4 km/h (3 Bft)
16.02.2016 08:23 -0,7 C -1,5 C 88 % 1026,6 hPa 0,0 mm 10,4 km/h (2 Bft) O-NO 67 0 min -2,4 C 13,4 km/h (3 Bft)
16.02.2016 08:24 -0,7 C -1,5 C 88 % 1026,6 hPa 0,0 mm 10,4 km/h (2 Bft) O-NO 67 0 min -2,4 C 13,4 km/h (3 Bft)
16.02.2016 08:25 -0,7 C -1,5 C 88 % 1026,6 hPa 0,0 mm 10,4 km/h (2 Bft) N-NO 22 0 min -2,4 C 8,6 km/h (2 Bft)
16.02.2016 08:26 -0,7 C -1,5 C 88 % 1026,6 hPa 0,0 mm 10,4 km/h (2 Bft) N-NO 22 0 min -2,4 C 8,6 km/h (2 Bft)
16.02.2016 08:27 -0,7 C -1,5 C 92 % 1026,6 hPa 0,0 mm 9,5 km/h (2 Bft) N-NO 22 0 min -1,8 C 11,9 km/h (2 Bft)
16.02.2016 08:28 -0,7 C -1,5 C 92 % 1026,6 hPa 0,0 mm 9,5 km/h (2 Bft) N-NO 22 0 min -1,8 C 11,9 km/h (2 Bft)
16.02.2016 08:29 -0,7 C -1,4 C 88 % 1026,6 hPa 0,0 mm 8,9 km/h (2 Bft) O-NO 67 0 min -2,4 C 8,3 km/h (2 Bft)
16.02.2016 08:30 -0,7 C -1,4 C 88 % 1026,6 hPa 0,0 mm 8,9 km/h (2 Bft) O-NO 67 0 min -2,4 C 8,3 km/h (2 Bft)
16.02.2016 08:31 -0,7 C -1,3 C 88 % 1026,6 hPa 0,0 mm 8,3 km/h (2 Bft) NO 45 0 min -2,4 C 9,2 km/h (2 Bft)
16.02.2016 08:32 -0,7 C -1,3 C 88 % 1026,6 hPa 0,0 mm 8,3 km/h (2 Bft) NO 45 0 min -2,4 C 9,2 km/h (2 Bft)
16.02.2016 08:33 -0,7 C -1,3 C 88 % 1026,6 hPa 0,0 mm 8,3 km/h (2 Bft) N 360 0 min -2,4 C 9,8 km/h (2 Bft)
16.02.2016 08:34 -0,7 C -1,3 C 88 % 1026,6 hPa 0,0 mm 8,3 km/h (2 Bft) N 360 0 min -2,4 C 9,8 km/h (2 Bft)
16.02.2016 08:35 -0,7 C -1,3 C 88 % 1026,6 hPa 0,0 mm 8,0 km/h (2 Bft) N-NO 22 0 min -2,4 C 6,0 km/h (2 Bft)
16.02.2016 08:36 -0,7 C -1,3 C 88 % 1026,6 hPa 0,0 mm 8,0 km/h (2 Bft) N-NO 22 0 min -2,4 C 6,0 km/h (2 Bft)
16.02.2016 08:37 -0,7 C -1,2 C 88 % 1026,6 hPa 0,0 mm 7,5 km/h (2 Bft) O-NO 67 0 min -2,4 C 10,7 km/h (2 Bft)
16.02.2016 08:38 -0,7 C -1,2 C 88 % 1026,6 hPa 0,0 mm 7,5 km/h (2 Bft) O-NO 67 0 min -2,4 C 10,7 km/h (2 Bft)
16.02.2016 08:39 -0,7 C -1,2 C 92 % 1026,6 hPa 0,0 mm 6,9 km/h (2 Bft) O-SO 112 0 min -1,8 C 11,3 km/h (2 Bft)
16.02.2016 08:40 -0,7 C -1,2 C 92 % 1026,6 hPa 0,0 mm 6,9 km/h (2 Bft) O-SO 112 0 min -1,8 C 11,3 km/h (2 Bft)
16.02.2016 08:41 -0,7 C -1,2 C 92 % 1026,6 hPa 0,0 mm 6,6 km/h (2 Bft) N-NO 22 0 min -1,8 C 8,6 km/h (2 Bft)
16.02.2016 08:42 -0,7 C -1,2 C 92 % 1026,6 hPa 0,0 mm 6,6 km/h (2 Bft) N-NO 22 0 min -1,8 C 8,6 km/h (2 Bft)
16.02.2016 08:43 -0,7 C -1,1 C 88 % 1026,8 hPa 0,0 mm 6,0 km/h (2 Bft) O-NO 67 0 min -2,4 C 9,5 km/h (2 Bft)
16.02.2016 08:44 -0,7 C -1,1 C 88 % 1026,8 hPa 0,0 mm 6,0 km/h (2 Bft) O-NO 67 0 min -2,4 C 9,5 km/h (2 Bft)
16.02.2016 08:45 -0,7 C -1,1 C 88 % 1026,8 hPa 0,0 mm 6,0 km/h (2 Bft) NO 45 0 min -2,4 C 10,7 km/h (2 Bft)
16.02.2016 08:46 -0,7 C -1,1 C 88 % 1026,8 hPa 0,0 mm 6,0 km/h (2 Bft) NO 45 0 min -2,4 C 10,7 km/h (2 Bft)
16.02.2016 08:47 -0,9 C -1,1 C 88 % 1026,8 hPa 0,0 mm 6,0 km/h (2 Bft) O-NO 67 0 min -2,6 C 8,6 km/h (2 Bft)
16.02.2016 08:48 -0,9 C -1,1 C 88 % 1026,8 hPa 0,0 mm 6,0 km/h (2 Bft) O-NO 67 0 min -2,6 C 8,6 km/h (2 Bft)
16.02.2016 08:49 -0,7 C -1,0 C 88 % 1026,8 hPa 0,0 mm 5,7 km/h (1 Bft) O-NO 67 0 min -2,4 C 6,0 km/h (2 Bft)
16.02.2016 08:50 -0,7 C -1,0 C 88 % 1026,8 hPa 0,0 mm 5,7 km/h (1 Bft) O-NO 67 0 min -2,4 C 6,0 km/h (2 Bft)
16.02.2016 08:51 -0,7 C -1,0 C 88 % 1026,8 hPa 0,0 mm 5,4 km/h (1 Bft) NO 45 0 min -2,4 C 8,0 km/h (2 Bft)
16.02.2016 08:52 -0,7 C -1,0 C 88 % 1026,8 hPa 0,0 mm 5,4 km/h (1 Bft) NO 45 0 min -2,4 C 8,0 km/h (2 Bft)
16.02.2016 08:53 -0,7 C -1,0 C 88 % 1026,8 hPa 0,0 mm 6,0 km/h (2 Bft) NW 315 0 min -2,4 C 4,2 km/h (1 Bft)
16.02.2016 08:54 -0,7 C -1,0 C 88 % 1026,8 hPa 0,0 mm 6,0 km/h (2 Bft) NW 315 0 min -2,4 C 4,2 km/h (1 Bft)
16.02.2016 08:55 -0,9 C -1,1 C 88 % 1026,8 hPa 0,0 mm 6,0 km/h (2 Bft) O-NO 67 0 min -2,6 C 8,6 km/h (2 Bft)
16.02.2016 08:56 -0,9 C -1,1 C 88 % 1026,8 hPa 0,0 mm 6,0 km/h (2 Bft) O-NO 67 0 min -2,6 C 8,6 km/h (2 Bft)
16.02.2016 08:57 -0,9 C -1,0 C 88 % 1026,8 hPa 0,0 mm 4,8 km/h (1 Bft) NW 315 0 min -2,6 C 8,6 km/h (2 Bft)
16.02.2016 08:58 -0,9 C -1,0 C 88 % 1026,8 hPa 0,0 mm 4,8 km/h (1 Bft) NW 315 0 min -2,6 C 8,6 km/h (2 Bft)
16.02.2016 08:59 -0,9 C -1,1 C 88 % 1026,8 hPa 0,0 mm 5,4 km/h (1 Bft) N-NW 337 0 min -2,6 C 8,9 km/h (2 Bft)
16.02.2016 09:00 -0,9 C -1,1 C 88 % 1026,8 hPa 0,0 mm 5,4 km/h (1 Bft) N-NW 337 0 min -2,6 C 8,9 km/h (2 Bft)
16.02.2016 09:01 -0,9 C -0,9 C 88 % 1026,8 hPa 0,0 mm 4,5 km/h (1 Bft) O-NO 67 0 min -2,6 C 5,1 km/h (1 Bft)
16.02.2016 09:02 -0,9 C -0,9 C 88 % 1026,8 hPa 0,0 mm 4,5 km/h (1 Bft) O-NO 67 0 min -2,6 C 5,1 km/h (1 Bft)
16.02.2016 09:03 -0,9 C -0,9 C 88 % 1027,0 hPa 0,0 mm 4,8 km/h (1 Bft) N-NO 22 0 min -2,6 C 16,4 km/h (3 Bft)
16.02.2016 09:04 -0,9 C -0,9 C 88 % 1027,0 hPa 0,0 mm 4,8 km/h (1 Bft) N-NO 22 0 min -2,6 C 16,4 km/h (3 Bft)
16.02.2016 09:05 -0,9 C -1,1 C 88 % 1027,0 hPa 0,0 mm 5,4 km/h (1 Bft) N-NO 22 0 min -2,6 C 7,7 km/h (2 Bft)
16.02.2016 09:06 -0,9 C -1,1 C 88 % 1027,0 hPa 0,0 mm 5,4 km/h (1 Bft) N-NO 22 0 min -2,6 C 7,7 km/h (2 Bft)
16.02.2016 09:07 -0,9 C -1,1 C 88 % 1027,0 hPa 0,0 mm 5,7 km/h (1 Bft) O-NO 67 0 min -2,6 C 8,6 km/h (2 Bft)
16.02.2016 09:08 -0,9 C -1,1 C 88 % 1027,0 hPa 0,0 mm 5,7 km/h (1 Bft) O-NO 67 0 min -2,6 C 8,6 km/h (2 Bft)
16.02.2016 09:09 -0,9 C -1,1 C 88 % 1027,0 hPa 0,0 mm 5,4 km/h (1 Bft) N-NO 22 0 min -2,6 C 6,6 km/h (2 Bft)
16.02.2016 09:10 -0,9 C -1,1 C 88 % 1027,0 hPa 0,0 mm 5,4 km/h (1 Bft) N-NO 22 0 min -2,6 C 6,6 km/h (2 Bft)
16.02.2016 09:11 -0,9 C -1,2 C 88 % 1027,0 hPa 0,0 mm 5,7 km/h (1 Bft) SO 135 0 min -2,6 C 0,0 km/h (0 Bft)
16.02.2016 09:12 -0,9 C -1,2 C 88 % 1027,0 hPa 0,0 mm 5,7 km/h (1 Bft) SO 135 0 min -2,6 C 0,0 km/h (0 Bft)
16.02.2016 09:13 -0,9 C -0,9 C 88 % 1027,0 hPa 0,0 mm 4,8 km/h (1 Bft) N-NO 22 0 min -2,6 C 0,0 km/h (0 Bft)
16.02.2016 09:14 -0,9 C -0,9 C 88 % 1027,0 hPa 0,0 mm 4,8 km/h (1 Bft) N-NO 22 0 min -2,6 C 0,0 km/h (0 Bft)
16.02.2016 09:15 -0,9 C -0,8 C 88 % 1027,0 hPa 0,0 mm 3,6 km/h (1 Bft) N-NO 22 0 min -2,6 C 0,0 km/h (0 Bft)
16.02.2016 09:16 -0,9 C -0,8 C 88 % 1027,0 hPa 0,0 mm 3,6 km/h (1 Bft) N-NO 22 0 min -2,6 C 0,0 km/h (0 Bft)
16.02.2016 09:17 -0,9 C -0,8 C 88 % 1027,0 hPa 0,0 mm 2,4 km/h (1 Bft) O-SO 112 0 min -2,6 C 5,4 km/h (1 Bft)
16.02.2016 09:18 -0,9 C -0,8 C 88 % 1027,0 hPa 0,0 mm 2,4 km/h (1 Bft) O-SO 112 0 min -2,6 C 5,4 km/h (1 Bft)
16.02.2016 09:19 -0,9 C -0,8 C 88 % 1027,0 hPa 0,0 mm 2,7 km/h (1 Bft) O 90 0 min -2,6 C 13,4 km/h (3 Bft)
16.02.2016 09:20 -0,9 C -0,8 C 88 % 1027,0 hPa 0,0 mm 2,7 km/h (1 Bft) O 90 0 min -2,6 C 13,4 km/h (3 Bft)
16.02.2016 09:21 -0,9 C -0,8 C 88 % 1027,0 hPa 0,0 mm 2,7 km/h (1 Bft) O-NO 67 0 min -2,6 C 8,6 km/h (2 Bft)
16.02.2016 09:22 -0,9 C -0,8 C 88 % 1027,0 hPa 0,0 mm 2,7 km/h (1 Bft) O-NO 67 0 min -2,6 C 8,6 km/h (2 Bft)
16.02.2016 09:23 -0,9 C -0,9 C 88 % 1027,0 hPa 0,0 mm 4,2 km/h (1 Bft) O-NO 67 0 min -2,6 C 9,8 km/h (2 Bft)
16.02.2016 09:24 -0,9 C -0,9 C 88 % 1027,0 hPa 0,0 mm 4,2 km/h (1 Bft) O-NO 67 0 min -2,6 C 9,8 km/h (2 Bft)
16.02.2016 09:25 -0,9 C -1,0 C 88 % 1027,0 hPa 0,0 mm 4,8 km/h (1 Bft) N-NO 22 0 min -2,6 C 5,1 km/h (1 Bft)
16.02.2016 09:26 -0,9 C -1,0 C 88 % 1027,0 hPa 0,0 mm 4,8 km/h (1 Bft) N-NO 22 0 min -2,6 C 5,1 km/h (1 Bft)
16.02.2016 09:27 -0,9 C -1,2 C 88 % 1027,0 hPa 0,0 mm 6,3 km/h (2 Bft) N-NO 22 0 min -2,6 C 9,2 km/h (2 Bft)
16.02.2016 09:28 -0,9 C -1,2 C 88 % 1027,0 hPa 0,0 mm 6,3 km/h (2 Bft) N-NO 22 0 min -2,6 C 9,2 km/h (2 Bft)
16.02.2016 09:29 -0,9 C -1,2 C 88 % 1027,0 hPa 0,0 mm 6,3 km/h (2 Bft) N-NO 22 0 min -2,6 C 6,3 km/h (2 Bft)
16.02.2016 09:30 -0,9 C -1,2 C 88 % 1027,0 hPa 0,0 mm 6,3 km/h (2 Bft) N-NO 22 0 min -2,6 C 6,3 km/h (2 Bft)
16.02.2016 09:31 -0,9 C -1,2 C 88 % 1027,0 hPa 0,0 mm 5,7 km/h (1 Bft) O-NO 67 0 min -2,6 C 3,0 km/h (1 Bft)
16.02.2016 09:32 -0,9 C -1,2 C 88 % 1027,0 hPa 0,0 mm 5,7 km/h (1 Bft) O-NO 67 0 min -2,6 C 3,0 km/h (1 Bft)
16.02.2016 09:33 -0,9 C -0,9 C 88 % 1027,0 hPa 0,0 mm 4,8 km/h (1 Bft) O-NO 67 0 min -2,6 C 3,9 km/h (1 Bft)
16.02.2016 09:34 -0,9 C -0,9 C 88 % 1027,0 hPa 0,0 mm 4,8 km/h (1 Bft) O-NO 67 0 min -2,6 C 3,9 km/h (1 Bft)
16.02.2016 09:35 -0,9 C -0,8 C 88 % 1027,0 hPa 0,0 mm 4,2 km/h (1 Bft) W-SW 247 0 min -2,6 C 4,5 km/h (1 Bft)
16.02.2016 09:36 -0,9 C -0,8 C 88 % 1027,0 hPa 0,0 mm 4,2 km/h (1 Bft) W-SW 247 0 min -2,6 C 4,5 km/h (1 Bft)
16.02.2016 09:37 -0,9 C -0,8 C 88 % 1027,0 hPa 0,0 mm 3,6 km/h (1 Bft) O-NO 67 0 min -2,6 C 5,4 km/h (1 Bft)
16.02.2016 09:38 -0,9 C -0,8 C 88 % 1027,0 hPa 0,0 mm 3,6 km/h (1 Bft) O-NO 67 0 min -2,6 C 5,4 km/h (1 Bft)
16.02.2016 09:39 -0,9 C -0,8 C 88 % 1027,0 hPa 0,0 mm 2,7 km/h (1 Bft) NO 45 0 min -2,6 C 0,0 km/h (0 Bft)
16.02.2016 09:40 -0,9 C -0,8 C 88 % 1027,0 hPa 0,0 mm 2,7 km/h (1 Bft) NO 45 0 min -2,6 C 0,0 km/h (0 Bft)
16.02.2016 09:41 -0,9 C -0,7 C 88 % 1027,0 hPa 0,0 mm 2,4 km/h (1 Bft) NO 45 0 min -2,6 C 4,5 km/h (1 Bft)
16.02.2016 09:42 -0,9 C -0,7 C 88 % 1027,0 hPa 0,0 mm 2,4 km/h (1 Bft) NO 45 0 min -2,6 C 4,5 km/h (1 Bft)
16.02.2016 09:43 -0,9 C -0,7 C 88 % 1027,1 hPa 0,0 mm 2,7 km/h (1 Bft) O-NO 67 0 min -2,6 C 6,0 km/h (2 Bft)
16.02.2016 09:44 -0,9 C -0,7 C 88 % 1027,1 hPa 0,0 mm 2,7 km/h (1 Bft) O-NO 67 0 min -2,6 C 6,0 km/h (2 Bft)
16.02.2016 09:45 -0,9 C -0,7 C 88 % 1027,1 hPa 0,0 mm 3,3 km/h (1 Bft) NO 45 0 min -2,6 C 7,2 km/h (2 Bft)
16.02.2016 09:46 -0,9 C -0,7 C 88 % 1027,1 hPa 0,0 mm 3,3 km/h (1 Bft) NO 45 0 min -2,6 C 7,2 km/h (2 Bft)
16.02.2016 09:47 -0,9 C -0,7 C 88 % 1027,1 hPa 0,0 mm 3,3 km/h (1 Bft) O-NO 67 0 min -2,6 C 4,2 km/h (1 Bft)
16.02.2016 09:48 -0,9 C -0,7 C 88 % 1027,1 hPa 0,0 mm 3,3 km/h (1 Bft) O-NO 67 0 min -2,6 C 4,2 km/h (1 Bft)
16.02.2016 09:49 -0,9 C -0,7 C 88 % 1027,1 hPa 0,0 mm 3,6 km/h (1 Bft) N-NO 22 0 min -2,6 C 6,0 km/h (2 Bft)
16.02.2016 09:50 -0,9 C -0,7 C 88 % 1027,1 hPa 0,0 mm 3,6 km/h (1 Bft) N-NO 22 0 min -2,6 C 6,0 km/h (2 Bft)
16.02.2016 09:51 -0,9 C -0,7 C 88 % 1027,1 hPa 0,0 mm 4,2 km/h (1 Bft) NO 45 0 min -2,6 C 3,9 km/h (1 Bft)
16.02.2016 09:52 -0,9 C -0,7 C 88 % 1027,1 hPa 0,0 mm 4,2 km/h (1 Bft) NO 45 0 min -2,6 C 3,9 km/h (1 Bft)
16.02.2016 09:53 -0,9 C -0,8 C 88 % 1027,1 hPa 0,0 mm 4,5 km/h (1 Bft) N-NO 22 0 min -2,6 C 8,6 km/h (2 Bft)
16.02.2016 09:54 -0,9 C -0,8 C 88 % 1027,1 hPa 0,0 mm 4,5 km/h (1 Bft) N-NO 22 0 min -2,6 C 8,6 km/h (2 Bft)
16.02.2016 09:55 -0,9 C -0,9 C 88 % 1027,1 hPa 0,0 mm 5,4 km/h (1 Bft) NW 315 0 min -2,6 C 8,0 km/h (2 Bft)
16.02.2016 09:56 -0,9 C -0,9 C 88 % 1027,1 hPa 0,0 mm 5,4 km/h (1 Bft) NW 315 0 min -2,6 C 8,0 km/h (2 Bft)
16.02.2016 09:57 -0,9 C -1,0 C 88 % 1027,1 hPa 0,0 mm 5,7 km/h (1 Bft) NO 45 0 min -2,6 C 7,7 km/h (2 Bft)
16.02.2016 09:58 -0,9 C -1,0 C 88 % 1027,1 hPa 0,0 mm 5,7 km/h (1 Bft) NO 45 0 min -2,6 C 7,7 km/h (2 Bft)
16.02.2016 09:59 -0,9 C -1,0 C 88 % 1027,1 hPa 0,0 mm 6,0 km/h (2 Bft) N-NO 22 0 min -2,6 C 9,2 km/h (2 Bft)
16.02.2016 10:00 -0,9 C -1,0 C 88 % 1027,1 hPa 0,0 mm 6,0 km/h (2 Bft) N-NO 22 0 min -2,6 C 9,2 km/h (2 Bft)
16.02.2016 10:01 -0,9 C -1,0 C 88 % 1027,1 hPa 0,0 mm 6,0 km/h (2 Bft) N-NO 22 0 min -2,6 C 3,9 km/h (1 Bft)
16.02.2016 10:02 -0,9 C -1,0 C 88 % 1027,1 hPa 0,0 mm 6,0 km/h (2 Bft) N-NO 22 0 min -2,6 C 3,9 km/h (1 Bft)
16.02.2016 10:03 -0,9 C -1,1 C 88 % 1027,4 hPa 0,0 mm 6,6 km/h (2 Bft) NO 45 0 min -2,6 C 10,4 km/h (2 Bft)
16.02.2016 10:04 -0,9 C -1,1 C 88 % 1027,4 hPa 0,0 mm 6,6 km/h (2 Bft) NO 45 0 min -2,6 C 10,4 km/h (2 Bft)
16.02.2016 10:05 -0,9 C -1,1 C 87 % 1027,4 hPa 0,0 mm 6,6 km/h (2 Bft) NO 45 0 min -2,8 C 9,2 km/h (2 Bft)
16.02.2016 10:06 -0,9 C -1,1 C 87 % 1027,4 hPa 0,0 mm 6,6 km/h (2 Bft) NO 45 0 min -2,8 C 9,2 km/h (2 Bft)
16.02.2016 10:07 -0,9 C -1,1 C 87 % 1027,4 hPa 0,0 mm 6,9 km/h (2 Bft) NO 45 0 min -2,8 C 9,8 km/h (2 Bft)
16.02.2016 10:08 -0,9 C -1,1 C 87 % 1027,4 hPa 0,0 mm 6,9 km/h (2 Bft) NO 45 0 min -2,8 C 9,8 km/h (2 Bft)
16.02.2016 10:09 -0,9 C -1,1 C 87 % 1027,4 hPa 0,0 mm 6,6 km/h (2 Bft) NO 45 0 min -2,8 C 5,4 km/h (1 Bft)
16.02.2016 10:10 -0,9 C -1,1 C 87 % 1027,4 hPa 0,0 mm 6,6 km/h (2 Bft) NO 45 0 min -2,8 C 5,4 km/h (1 Bft)
16.02.2016 10:11 -0,9 C -1,0 C 87 % 1027,4 hPa 0,0 mm 6,0 km/h (2 Bft) O-NO 67 0 min -2,8 C 0,0 km/h (0 Bft)
16.02.2016 10:12 -0,9 C -1,0 C 87 % 1027,4 hPa 0,0 mm 6,0 km/h (2 Bft) O-NO 67 0 min -2,8 C 0,0 km/h (0 Bft)
16.02.2016 10:13 -0,9 C -1,0 C 87 % 1027,4 hPa 0,0 mm 6,3 km/h (2 Bft) N-NO 22 0 min -2,8 C 9,2 km/h (2 Bft)
16.02.2016 10:14 -0,9 C -1,0 C 87 % 1027,4 hPa 0,0 mm 6,3 km/h (2 Bft) N-NO 22 0 min -2,8 C 9,2 km/h (2 Bft)
16.02.2016 10:15 -0,9 C -1,0 C 87 % 1027,4 hPa 0,0 mm 6,0 km/h (2 Bft) NO 45 0 min -2,8 C 8,6 km/h (2 Bft)
16.02.2016 10:16 -0,9 C -1,0 C 87 % 1027,4 hPa 0,0 mm 6,0 km/h (2 Bft) NO 45 0 min -2,8 C 8,6 km/h (2 Bft)
16.02.2016 10:17 -0,9 C -1,0 C 87 % 1027,4 hPa 0,0 mm 6,0 km/h (2 Bft) NO 45 0 min -2,8 C 8,3 km/h (2 Bft)
16.02.2016 10:18 -0,9 C -1,0 C 87 % 1027,4 hPa 0,0 mm 6,0 km/h (2 Bft) NO 45 0 min -2,8 C 8,3 km/h (2 Bft)
16.02.2016 10:19 -0,9 C -1,0 C 87 % 1027,4 hPa 0,0 mm 6,0 km/h (2 Bft) NO 45 0 min -2,8 C 6,6 km/h (2 Bft)
16.02.2016 10:20 -0,9 C -1,0 C 87 % 1027,4 hPa 0,0 mm 6,0 km/h (2 Bft) NO 45 0 min -2,8 C 6,6 km/h (2 Bft)
16.02.2016 10:21 -0,9 C -1,0 C 87 % 1027,4 hPa 0,0 mm 6,0 km/h (2 Bft) N-NO 22 0 min -2,8 C 3,9 km/h (1 Bft)
16.02.2016 10:22 -0,9 C -1,0 C 87 % 1027,4 hPa 0,0 mm 6,0 km/h (2 Bft) N-NO 22 0 min -2,8 C 3,9 km/h (1 Bft)
16.02.2016 10:23 -0,7 C -1,0 C 87 % 1027,4 hPa 0,0 mm 6,0 km/h (2 Bft) N-NO 22 0 min -2,6 C 6,6 km/h (2 Bft)
16.02.2016 10:24 -0,7 C -1,0 C 87 % 1027,4 hPa 0,0 mm 6,0 km/h (2 Bft) N-NO 22 0 min -2,6 C 6,6 km/h (2 Bft)
16.02.2016 10:25 -0,7 C -0,8 C 87 % 1027,4 hPa 0,0 mm 5,4 km/h (1 Bft) NO 45 0 min -2,6 C 7,5 km/h (2 Bft)
16.02.2016 10:26 -0,7 C -0,8 C 87 % 1027,4 hPa 0,0 mm 5,4 km/h (1 Bft) NO 45 0 min -2,6 C 7,5 km/h (2 Bft)
16.02.2016 10:27 -0,7 C -0,7 C 87 % 1027,4 hPa 0,0 mm 4,8 km/h (1 Bft) O-NO 67 0 min -2,6 C 5,4 km/h (1 Bft)
16.02.2016 10:28 -0,7 C -0,7 C 87 % 1027,4 hPa 0,0 mm 4,8 km/h (1 Bft) O-NO 67 0 min -2,6 C 5,4 km/h (1 Bft)
16.02.2016 10:29 -0,7 C -0,6 C 87 % 1027,4 hPa 0,0 mm 3,9 km/h (1 Bft) O-NO 67 0 min -2,6 C 0,0 km/h (0 Bft)
16.02.2016 10:30 -0,7 C -0,6 C 87 % 1027,4 hPa 0,0 mm 3,9 km/h (1 Bft) O-NO 67 0 min -2,6 C 0,0 km/h (0 Bft)
16.02.2016 10:31 -0,7 C -0,6 C 87 % 1027,4 hPa 0,0 mm 3,3 km/h (1 Bft) O 90 0 min -2,6 C 0,0 km/h (0 Bft)
16.02.2016 10:32 -0,7 C -0,6 C 87 % 1027,4 hPa 0,0 mm 3,3 km/h (1 Bft) O 90 0 min -2,6 C 0,0 km/h (0 Bft)
16.02.2016 10:33 -0,7 C -0,6 C 87 % 1027,4 hPa 0,0 mm 3,6 km/h (1 Bft) O-NO 67 0 min -2,6 C 8,6 km/h (2 Bft)
16.02.2016 10:34 -0,7 C -0,6 C 87 % 1027,4 hPa 0,0 mm 3,6 km/h (1 Bft) O-NO 67 0 min -2,6 C 8,6 km/h (2 Bft)
16.02.2016 10:35 -0,7 C -0,6 C 87 % 1027,4 hPa 0,0 mm 3,6 km/h (1 Bft) O-NO 67 0 min -2,6 C 7,2 km/h (2 Bft)
16.02.2016 10:36 -0,7 C -0,6 C 87 % 1027,4 hPa 0,0 mm 3,6 km/h (1 Bft) O-NO 67 0 min -2,6 C 7,2 km/h (2 Bft)
16.02.2016 10:37 -0,7 C -0,6 C 87 % 1027,4 hPa 0,0 mm 3,3 km/h (1 Bft) O-SO 112 0 min -2,6 C 3,0 km/h (1 Bft)
16.02.2016 10:38 -0,7 C -0,6 C 87 % 1027,4 hPa 0,0 mm 3,3 km/h (1 Bft) O-SO 112 0 min -2,6 C 3,0 km/h (1 Bft)
16.02.2016 10:39 -0,7 C -0,5 C 87 % 1027,4 hPa 0,0 mm 3,6 km/h (1 Bft) S-SO 157 0 min -2,6 C 4,2 km/h (1 Bft)
16.02.2016 10:40 -0,7 C -0,5 C 87 % 1027,4 hPa 0,0 mm 3,6 km/h (1 Bft) S-SO 157 0 min -2,6 C 4,2 km/h (1 Bft)
16.02.2016 10:41 -0,7 C -0,5 C 87 % 1027,4 hPa 0,0 mm 4,2 km/h (1 Bft) O-NO 67 0 min -2,6 C 7,2 km/h (2 Bft)
16.02.2016 10:42 -0,7 C -0,5 C 87 % 1027,4 hPa 0,0 mm 4,2 km/h (1 Bft) O-NO 67 0 min -2,6 C 7,2 km/h (2 Bft)
16.02.2016 10:43 -0,7 C -0,5 C 87 % 1027,3 hPa 0,0 mm 5,1 km/h (1 Bft) NO 45 0 min -2,6 C 10,4 km/h (2 Bft)
16.02.2016 10:44 -0,7 C -0,5 C 87 % 1027,3 hPa 0,0 mm 5,1 km/h (1 Bft) NO 45 0 min -2,6 C 10,4 km/h (2 Bft)
16.02.2016 10:45 -0,7 C -0,6 C 87 % 1027,3 hPa 0,0 mm 5,7 km/h (1 Bft) NO 45 0 min -2,6 C 12,5 km/h (3 Bft)
16.02.2016 10:46 -0,7 C -0,6 C 87 % 1027,3 hPa 0,0 mm 5,7 km/h (1 Bft) NO 45 0 min -2,6 C 12,5 km/h (3 Bft)
16.02.2016 10:47 -0,7 C -0,8 C 87 % 1027,3 hPa 0,0 mm 6,3 km/h (2 Bft) O-NO 67 0 min -2,6 C 7,7 km/h (2 Bft)
16.02.2016 10:48 -0,7 C -0,8 C 87 % 1027,3 hPa 0,0 mm 6,3 km/h (2 Bft) O-NO 67 0 min -2,6 C 7,7 km/h (2 Bft)
16.02.2016 10:49 -0,7 C -0,9 C 87 % 1027,3 hPa 0,0 mm 6,6 km/h (2 Bft) NO 45 0 min -2,6 C 8,3 km/h (2 Bft)
16.02.2016 10:50 -0,7 C -0,9 C 87 % 1027,3 hPa 0,0 mm 6,6 km/h (2 Bft) NO 45 0 min -2,6 C 8,3 km/h (2 Bft)
16.02.2016 10:51 -0,7 C -0,8 C 87 % 1027,3 hPa 0,0 mm 7,5 km/h (2 Bft) O-NO 67 0 min -2,6 C 7,7 km/h (2 Bft)
16.02.2016 10:52 -0,7 C -0,8 C 87 % 1027,3 hPa 0,0 mm 7,5 km/h (2 Bft) O-NO 67 0 min -2,6 C 7,7 km/h (2 Bft)
16.02.2016 10:53 -0,7 C -0,7 C 87 % 1027,3 hPa 0,0 mm 7,2 km/h (2 Bft) O-NO 67 0 min -2,6 C 5,7 km/h (1 Bft)
16.02.2016 10:54 -0,7 C -0,7 C 87 % 1027,3 hPa 0,0 mm 7,2 km/h (2 Bft) O-NO 67 0 min -2,6 C 5,7 km/h (1 Bft)
16.02.2016 10:55 -0,6 C -0,7 C 87 % 1027,3 hPa 0,0 mm 6,9 km/h (2 Bft) NO 45 0 min -2,5 C 8,3 km/h (2 Bft)
16.02.2016 10:56 -0,6 C -0,7 C 87 % 1027,3 hPa 0,0 mm 6,9 km/h (2 Bft) NO 45 0 min -2,5 C 8,3 km/h (2 Bft)
16.02.2016 10:57 -0,6 C -0,6 C 87 % 1027,3 hPa 0,0 mm 6,6 km/h (2 Bft) O-NO 67 0 min -2,5 C 11,9 km/h (2 Bft)
16.02.2016 10:58 -0,6 C -0,6 C 87 % 1027,3 hPa 0,0 mm 6,6 km/h (2 Bft) O-NO 67 0 min -2,5 C 11,9 km/h (2 Bft)
16.02.2016 10:59 -0,6 C -0,7 C 87 % 1027,3 hPa 0,0 mm 7,2 km/h (2 Bft) O 90 0 min -2,5 C 9,5 km/h (2 Bft)
16.02.2016 11:00 -0,6 C -0,7 C 87 % 1027,3 hPa 0,0 mm 7,2 km/h (2 Bft) O 90 0 min -2,5 C 9,5 km/h (2 Bft)
16.02.2016 11:01 -0,6 C -0,7 C 87 % 1027,3 hPa 0,0 mm 6,9 km/h (2 Bft) O 90 0 min -2,5 C 5,1 km/h (1 Bft)
16.02.2016 11:02 -0,6 C -0,7 C 87 % 1027,3 hPa 0,0 mm 6,9 km/h (2 Bft) O 90 0 min -2,5 C 5,1 km/h (1 Bft)
16.02.2016 11:03 -0,6 C -0,7 C 87 % 1027,6 hPa 0,0 mm 6,9 km/h (2 Bft) O-NO 67 0 min -2,5 C 6,6 km/h (2 Bft)
16.02.2016 11:04 -0,6 C -0,7 C 87 % 1027,6 hPa 0,0 mm 6,9 km/h (2 Bft) O-NO 67 0 min -2,5 C 6,6 km/h (2 Bft)
16.02.2016 11:05 -0,6 C -0,8 C 88 % 1027,6 hPa 0,0 mm 7,5 km/h (2 Bft) O-NO 67 0 min -2,3 C 12,5 km/h (3 Bft)
16.02.2016 11:06 -0,6 C -0,8 C 88 % 1027,6 hPa 0,0 mm 7,5 km/h (2 Bft) O-NO 67 0 min -2,3 C 12,5 km/h (3 Bft)
16.02.2016 11:07 -0,6 C -0,8 C 88 % 1027,6 hPa 0,0 mm 7,7 km/h (2 Bft) O-NO 67 0 min -2,3 C 9,5 km/h (2 Bft)
16.02.2016 11:08 -0,6 C -0,8 C 88 % 1027,6 hPa 0,0 mm 7,7 km/h (2 Bft) O-NO 67 0 min -2,3 C 9,5 km/h (2 Bft)
16.02.2016 11:09 -0,6 C -0,7 C 88 % 1027,6 hPa 0,0 mm 7,7 km/h (2 Bft) O-NO 67 0 min -2,3 C 9,8 km/h (2 Bft)
16.02.2016 11:10 -0,6 C -0,7 C 88 % 1027,6 hPa 0,0 mm 7,7 km/h (2 Bft) O-NO 67 0 min -2,3 C 9,8 km/h (2 Bft)
16.02.2016 11:11 -0,6 C -0,8 C 88 % 1027,6 hPa 0,0 mm 8,0 km/h (2 Bft) O-NO 67 0 min -2,3 C 8,0 km/h (2 Bft)
16.02.2016 11:12 -0,6 C -0,8 C 88 % 1027,6 hPa 0,0 mm 8,0 km/h (2 Bft) O-NO 67 0 min -2,3 C 8,0 km/h (2 Bft)
16.02.2016 11:13 -0,6 C -0,8 C 88 % 1027,6 hPa 0,0 mm 8,9 km/h (2 Bft) N-NO 22 0 min -2,3 C 13,7 km/h (3 Bft)
16.02.2016 11:14 -0,6 C -0,8 C 88 % 1027,6 hPa 0,0 mm 8,9 km/h (2 Bft) N-NO 22 0 min -2,3 C 13,7 km/h (3 Bft)
16.02.2016 11:15 -0,6 C -0,9 C 88 % 1027,6 hPa 0,0 mm 9,8 km/h (2 Bft) NO 45 0 min -2,3 C 20,3 km/h (4 Bft)
16.02.2016 11:16 -0,6 C -0,9 C 88 % 1027,6 hPa 0,0 mm 9,8 km/h (2 Bft) NO 45 0 min -2,3 C 20,3 km/h (4 Bft)
16.02.2016 11:17 -0,6 C -1,0 C 88 % 1027,6 hPa 0,0 mm 10,4 km/h (2 Bft) O-NO 67 0 min -2,3 C 17,0 km/h (3 Bft)
16.02.2016 11:18 -0,6 C -1,0 C 88 % 1027,6 hPa 0,0 mm 10,4 km/h (2 Bft) O-NO 67 0 min -2,3 C 17,0 km/h (3 Bft)
16.02.2016 11:19 -0,6 C -1,0 C 88 % 1027,6 hPa 0,0 mm 10,7 km/h (2 Bft) O-NO 67 0 min -2,3 C 9,8 km/h (2 Bft)
16.02.2016 11:20 -0,6 C -1,0 C 88 % 1027,6 hPa 0,0 mm 10,7 km/h (2 Bft) O-NO 67 0 min -2,3 C 9,8 km/h (2 Bft)
16.02.2016 11:21 -0,6 C -1,0 C 88 % 1027,6 hPa 0,0 mm 10,4 km/h (2 Bft) NO 45 0 min -2,3 C 15,2 km/h (3 Bft)
16.02.2016 11:22 -0,6 C -1,0 C 88 % 1027,6 hPa 0,0 mm 10,4 km/h (2 Bft) NO 45 0 min -2,3 C 15,2 km/h (3 Bft)
16.02.2016 11:23 -0,6 C -1,1 C 88 % 1027,8 hPa 0,0 mm 10,7 km/h (2 Bft) O 90 0 min -2,3 C 10,7 km/h (2 Bft)
16.02.2016 11:24 -0,6 C -1,1 C 88 % 1027,8 hPa 0,0 mm 10,7 km/h (2 Bft) O 90 0 min -2,3 C 10,7 km/h (2 Bft)
16.02.2016 11:25 -0,6 C -1,1 C 88 % 1027,8 hPa 0,0 mm 11,0 km/h (2 Bft) NO 45 0 min -2,3 C 13,4 km/h (3 Bft)
16.02.2016 11:26 -0,6 C -1,1 C 88 % 1027,8 hPa 0,0 mm 11,0 km/h (2 Bft) NO 45 0 min -2,3 C 13,4 km/h (3 Bft)
16.02.2016 11:27 -0,6 C -1,1 C 88 % 1027,8 hPa 0,0 mm 10,7 km/h (2 Bft) O-NO 67 0 min -2,3 C 11,0 km/h (2 Bft)
16.02.2016 11:28 -0,6 C -1,1 C 88 % 1027,8 hPa 0,0 mm 10,7 km/h (2 Bft) O-NO 67 0 min -2,3 C 11,0 km/h (2 Bft)
16.02.2016 11:29 -0,7 C -1,1 C 88 % 1027,8 hPa 0,0 mm 10,7 km/h (2 Bft) O 90 0 min -2,4 C 15,2 km/h (3 Bft)
16.02.2016 11:30 -0,7 C -1,1 C 88 % 1027,8 hPa 0,0 mm 10,7 km/h (2 Bft) O 90 0 min -2,4 C 15,2 km/h (3 Bft)
16.02.2016 11:31 -0,7 C -1,3 C 88 % 1027,8 hPa 0,0 mm 11,3 km/h (2 Bft) NO 45 0 min -2,4 C 14,9 km/h (3 Bft)
16.02.2016 11:32 -0,7 C -1,3 C 88 % 1027,8 hPa 0,0 mm 11,3 km/h (2 Bft) NO 45 0 min -2,4 C 14,9 km/h (3 Bft)
16.02.2016 11:33 -0,7 C -1,2 C 88 % 1027,8 hPa 0,0 mm 10,4 km/h (2 Bft) O-NO 67 0 min -2,4 C 10,7 km/h (2 Bft)
16.02.2016 11:34 -0,7 C -1,2 C 88 % 1027,8 hPa 0,0 mm 10,4 km/h (2 Bft) O-NO 67 0 min -2,4 C 10,7 km/h (2 Bft)
16.02.2016 11:35 -0,7 C -1,4 C 88 % 1027,8 hPa 0,0 mm 10,4 km/h (2 Bft) NO 45 0 min -2,4 C 12,8 km/h (3 Bft)
16.02.2016 11:36 -0,7 C -1,4 C 88 % 1027,8 hPa 0,0 mm 10,4 km/h (2 Bft) NO 45 0 min -2,4 C 12,8 km/h (3 Bft)
16.02.2016 11:37 -0,7 C -1,4 C 88 % 1027,8 hPa 0,0 mm 10,7 km/h (2 Bft) NO 45 0 min -2,4 C 19,1 km/h (3 Bft)
16.02.2016 11:38 -0,7 C -1,4 C 88 % 1027,8 hPa 0,0 mm 10,7 km/h (2 Bft) NO 45 0 min -2,4 C 19,1 km/h (3 Bft)
16.02.2016 11:39 -0,7 C -1,4 C 88 % 1027,8 hPa 0,0 mm 10,7 km/h (2 Bft) O-NO 67 0 min -2,4 C 16,1 km/h (3 Bft)
16.02.2016 11:40 -0,7 C -1,4 C 88 % 1027,8 hPa 0,0 mm 10,7 km/h (2 Bft) O-NO 67 0 min -2,4 C 16,1 km/h (3 Bft)
16.02.2016 11:41 -0,9 C -1,4 C 88 % 1027,8 hPa 0,0 mm 11,0 km/h (2 Bft) O-NO 67 0 min -2,6 C 11,3 km/h (2 Bft)
16.02.2016 11:42 -0,9 C -1,4 C 88 % 1027,8 hPa 0,0 mm 11,0 km/h (2 Bft) O-NO 67 0 min -2,6 C 11,3 km/h (2 Bft)
16.02.2016 11:43 -0,9 C -1,4 C 88 % 1027,6 hPa 0,0 mm 10,7 km/h (2 Bft) NO 45 0 min -2,6 C 17,9 km/h (3 Bft)
16.02.2016 11:44 -0,9 C -1,4 C 88 % 1027,6 hPa 0,0 mm 10,7 km/h (2 Bft) NO 45 0 min -2,6 C 17,9 km/h (3 Bft)
16.02.2016 11:45 -0,9 C -1,4 C 88 % 1027,6 hPa 0,0 mm 10,7 km/h (2 Bft) O-NO 67 0 min -2,6 C 15,8 km/h (3 Bft)
16.02.2016 11:46 -0,9 C -1,4 C 88 % 1027,6 hPa 0,0 mm 10,7 km/h (2 Bft) O-NO 67 0 min -2,6 C 15,8 km/h (3 Bft)
16.02.2016 11:47 -0,9 C -1,4 C 88 % 1027,6 hPa 0,0 mm 10,7 km/h (2 Bft) O 90 0 min -2,6 C 10,7 km/h (2 Bft)
16.02.2016 11:48 -0,9 C -1,4 C 88 % 1027,6 hPa 0,0 mm 10,7 km/h (2 Bft) O 90 0 min -2,6 C 10,7 km/h (2 Bft)
16.02.2016 11:49 -0,9 C -1,4 C 88 % 1027,6 hPa 0,0 mm 10,7 km/h (2 Bft) O-NO 67 0 min -2,6 C 14,0 km/h (3 Bft)
16.02.2016 11:50 -0,9 C -1,4 C 88 % 1027,6 hPa 0,0 mm 10,7 km/h (2 Bft) O-NO 67 0 min -2,6 C 14,0 km/h (3 Bft)
16.02.2016 11:51 -0,9 C -1,4 C 88 % 1027,6 hPa 0,0 mm 10,1 km/h (2 Bft) O-NO 67 0 min -2,6 C 7,5 km/h (2 Bft)
16.02.2016 11:52 -0,9 C -1,4 C 88 % 1027,6 hPa 0,0 mm 10,1 km/h (2 Bft) O-NO 67 0 min -2,6 C 7,5 km/h (2 Bft)
16.02.2016 11:53 -0,9 C -1,3 C 88 % 1027,6 hPa 0,0 mm 9,8 km/h (2 Bft) O 90 0 min -2,6 C 8,3 km/h (2 Bft)
16.02.2016 11:54 -0,9 C -1,3 C 88 % 1027,6 hPa 0,0 mm 9,8 km/h (2 Bft) O 90 0 min -2,6 C 8,3 km/h (2 Bft)
16.02.2016 11:55 -0,9 C -1,3 C 88 % 1027,6 hPa 0,0 mm 9,8 km/h (2 Bft) O-NO 67 0 min -2,6 C 18,5 km/h (3 Bft)
16.02.2016 11:56 -0,9 C -1,3 C 88 % 1027,6 hPa 0,0 mm 9,8 km/h (2 Bft) O-NO 67 0 min -2,6 C 18,5 km/h (3 Bft)
16.02.2016 11:57 -0,9 C -1,3 C 88 % 1027,6 hPa 0,0 mm 9,8 km/h (2 Bft) O-NO 67 0 min -2,6 C 8,9 km/h (2 Bft)
16.02.2016 11:58 -0,9 C -1,3 C 88 % 1027,6 hPa 0,0 mm 9,8 km/h (2 Bft) O-NO 67 0 min -2,6 C 8,9 km/h (2 Bft)
16.02.2016 11:59 -0,9 C -1,2 C 88 % 1027,6 hPa 0,0 mm 9,2 km/h (2 Bft) O-NO 67 0 min -2,6 C 18,8 km/h (3 Bft)
16.02.2016 12:00 -0,9 C -1,2 C 88 % 1027,6 hPa 0,0 mm 9,2 km/h (2 Bft) O-NO 67 0 min -2,6 C 18,8 km/h (3 Bft)
16.02.2016 12:01 -0,9 C -1,1 C 88 % 1027,6 hPa 0,0 mm 8,9 km/h (2 Bft) SO 135 0 min -2,6 C 10,7 km/h (2 Bft)
16.02.2016 12:02 -0,9 C -1,1 C 88 % 1027,6 hPa 0,0 mm 8,9 km/h (2 Bft) SO 135 0 min -2,6 C 10,7 km/h (2 Bft)
16.02.2016 12:03 -0,9 C -1,1 C 88 % 1027,6 hPa 0,0 mm 8,9 km/h (2 Bft) SO 135 0 min -2,6 C 10,7 km/h (2 Bft)
16.02.2016 12:04 -0,9 C -1,1 C 88 % 1027,6 hPa 0,0 mm 8,9 km/h (2 Bft) SO 135 0 min -2,6 C 10,7 km/h (2 Bft)
16.02.2016 12:05 -0,9 C -1,1 C 88 % 1027,6 hPa 0,0 mm 9,8 km/h (2 Bft) O-NO 67 0 min -2,6 C 10,1 km/h (2 Bft)
16.02.2016 12:06 -0,9 C -1,1 C 88 % 1027,6 hPa 0,0 mm 9,8 km/h (2 Bft) O-NO 67 0 min -2,6 C 10,1 km/h (2 Bft)
16.02.2016 12:07 -0,9 C -1,0 C 88 % 1027,6 hPa 0,0 mm 9,8 km/h (2 Bft) O-NO 67 0 min -2,6 C 9,8 km/h (2 Bft)
16.02.2016 12:08 -0,9 C -1,0 C 88 % 1027,6 hPa 0,0 mm 9,8 km/h (2 Bft) O-NO 67 0 min -2,6 C 9,8 km/h (2 Bft)
16.02.2016 12:09 -0,9 C -1,1 C 88 % 1027,6 hPa 0,0 mm 10,4 km/h (2 Bft) O-NO 67 0 min -2,6 C 11,3 km/h (2 Bft)
16.02.2016 12:10 -0,9 C -1,1 C 88 % 1027,6 hPa 0,0 mm 10,4 km/h (2 Bft) O-NO 67 0 min -2,6 C 11,3 km/h (2 Bft)
16.02.2016 12:11 -0,9 C -1,1 C 88 % 1027,6 hPa 0,0 mm 10,4 km/h (2 Bft) NO 45 0 min -2,6 C 8,9 km/h (2 Bft)
16.02.2016 12:12 -0,9 C -1,1 C 88 % 1027,6 hPa 0,0 mm 10,4 km/h (2 Bft) NO 45 0 min -2,6 C 8,9 km/h (2 Bft)
16.02.2016 12:13 -0,9 C -1,2 C 88 % 1027,6 hPa 0,0 mm 11,0 km/h (2 Bft) N-NO 22 0 min -2,6 C 11,6 km/h (2 Bft)
16.02.2016 12:14 -0,9 C -1,2 C 88 % 1027,6 hPa 0,0 mm 11,0 km/h (2 Bft) N-NO 22 0 min -2,6 C 11,6 km/h (2 Bft)
16.02.2016 12:15 -0,9 C -1,0 C 88 % 1027,6 hPa 0,0 mm 10,1 km/h (2 Bft) NO 45 0 min -2,6 C 6,6 km/h (2 Bft)
16.02.2016 12:16 -0,9 C -1,0 C 88 % 1027,6 hPa 0,0 mm 10,1 km/h (2 Bft) NO 45 0 min -2,6 C 6,6 km/h (2 Bft)
16.02.2016 12:17 -0,9 C -0,9 C 88 % 1027,6 hPa 0,0 mm 9,5 km/h (2 Bft) N-NO 22 0 min -2,6 C 14,3 km/h (3 Bft)
16.02.2016 12:18 -0,9 C -0,9 C 88 % 1027,6 hPa 0,0 mm 9,5 km/h (2 Bft) N-NO 22 0 min -2,6 C 14,3 km/h (3 Bft)
16.02.2016 12:19 -0,9 C -0,9 C 88 % 1027,6 hPa 0,0 mm 9,2 km/h (2 Bft) N 360 0 min -2,6 C 5,7 km/h (1 Bft)
16.02.2016 12:20 -0,9 C -0,9 C 88 % 1027,6 hPa 0,0 mm 9,2 km/h (2 Bft) N 360 0 min -2,6 C 5,7 km/h (1 Bft)
16.02.2016 12:21 -0,9 C -0,8 C 88 % 1027,6 hPa 0,0 mm 8,6 km/h (2 Bft) O-NO 67 0 min -2,6 C 12,8 km/h (3 Bft)
16.02.2016 12:22 -0,9 C -0,8 C 88 % 1027,6 hPa 0,0 mm 8,6 km/h (2 Bft) O-NO 67 0 min -2,6 C 12,8 km/h (3 Bft)
16.02.2016 12:23 -0,7 C -0,8 C 88 % 1027,6 hPa 0,0 mm 8,9 km/h (2 Bft) O-NO 67 0 min -2,4 C 18,5 km/h (3 Bft)
16.02.2016 12:24 -0,7 C -0,8 C 88 % 1027,6 hPa 0,0 mm 8,9 km/h (2 Bft) O-NO 67 0 min -2,4 C 18,5 km/h (3 Bft)
16.02.2016 12:25 -0,7 C -0,9 C 88 % 1027,6 hPa 0,0 mm 9,5 km/h (2 Bft) O-NO 67 0 min -2,4 C 17,6 km/h (3 Bft)
16.02.2016 12:26 -0,7 C -0,9 C 88 % 1027,6 hPa 0,0 mm 9,5 km/h (2 Bft) O-NO 67 0 min -2,4 C 17,6 km/h (3 Bft)
16.02.2016 12:27 -0,9 C -0,9 C 88 % 1027,6 hPa 0,0 mm 10,1 km/h (2 Bft) O-NO 67 0 min -2,6 C 16,4 km/h (3 Bft)
16.02.2016 12:28 -0,9 C -0,9 C 88 % 1027,6 hPa 0,0 mm 10,1 km/h (2 Bft) O-NO 67 0 min -2,6 C 16,4 km/h (3 Bft)
16.02.2016 12:29 -0,9 C -1,0 C 88 % 1027,6 hPa 0,0 mm 10,4 km/h (2 Bft) O-NO 67 0 min -2,6 C 13,1 km/h (3 Bft)
16.02.2016 12:31 -0,9 C -1,0 C 88 % 1027,6 hPa 0,0 mm 11,0 km/h (2 Bft) SW 225 0 min -2,6 C 11,0 km/h (2 Bft)
16.02.2016 12:34 -0,9 C -1,0 C 88 % 1027,6 hPa 0,0 mm 11,0 km/h (2 Bft) N-NO 22 0 min -2,6 C 14,3 km/h (3 Bft)
16.02.2016 12:35 -0,7 C -0,9 C 88 % 1027,6 hPa 0,0 mm 10,1 km/h (2 Bft) O-NO 67 0 min -2,4 C 15,5 km/h (3 Bft)
16.02.2016 12:36 -0,7 C -0,9 C 88 % 1027,6 hPa 0,0 mm 10,1 km/h (2 Bft) O-NO 67 0 min -2,4 C 15,5 km/h (3 Bft)
16.02.2016 12:38 -0,7 C -0,9 C 88 % 1027,6 hPa 0,0 mm 9,8 km/h (2 Bft) O-NO 67 0 min -2,4 C 15,2 km/h (3 Bft)
16.02.2016 12:41 -0,9 C -1,0 C 88 % 1027,6 hPa 0,0 mm 9,8 km/h (2 Bft) O-NO 67 0 min -2,6 C 11,9 km/h (2 Bft)
16.02.2016 12:42 -0,9 C -1,0 C 88 % 1027,6 hPa 0,0 mm 9,8 km/h (2 Bft) O-NO 67 0 min -2,6 C 11,9 km/h (2 Bft)
16.02.2016 12:43 -0,9 C -0,9 C 88 % 1027,4 hPa 0,0 mm 10,1 km/h (2 Bft) O-NO 67 0 min -2,6 C 15,5 km/h (3 Bft)
16.02.2016 12:44 -0,9 C -1,1 C 88 % 1027,4 hPa 0,0 mm 10,7 km/h (2 Bft) O-NO 67 0 min -2,6 C 10,7 km/h (2 Bft)
16.02.2016 12:49 -0,7 C -0,9 C 88 % 1027,4 hPa 0,0 mm 9,8 km/h (2 Bft) O-NO 67 0 min -2,4 C 8,9 km/h (2 Bft)
16.02.2016 12:54 -0,7 C -0,8 C 88 % 1027,4 hPa 0,0 mm 8,0 km/h (2 Bft) O-NO 67 0 min -2,4 C 14,0 km/h (3 Bft)
16.02.2016 12:59 -0,7 C -0,9 C 88 % 1027,4 hPa 0,0 mm 9,2 km/h (2 Bft) O-NO 67 0 min -2,4 C 17,0 km/h (3 Bft)
16.02.2016 13:04 -0,7 C -0,9 C 88 % 1027,4 hPa 0,0 mm 9,8 km/h (2 Bft) O-NO 67 0 min -2,4 C 7,7 km/h (2 Bft)
16.02.2016 13:09 -0,7 C -0,9 C 88 % 1027,4 hPa 0,0 mm 9,2 km/h (2 Bft) NO 45 0 min -2,4 C 10,1 km/h (2 Bft)
16.02.2016 13:14 -0,7 C -0,7 C 88 % 1027,4 hPa 0,0 mm 7,2 km/h (2 Bft) O 90 0 min -2,4 C 6,6 km/h (2 Bft)
16.02.2016 13:19 -0,9 C -0,8 C 88 % 1027,4 hPa 0,0 mm 7,2 km/h (2 Bft) NO 45 0 min -2,6 C 13,1 km/h (3 Bft)
16.02.2016 13:24 -0,9 C -1,0 C 88 % 1027,4 hPa 0,0 mm 8,0 km/h (2 Bft) O-NO 67 0 min -2,6 C 9,2 km/h (2 Bft)
16.02.2016 13:29 -0,9 C -0,9 C 88 % 1027,4 hPa 0,0 mm 7,5 km/h (2 Bft) O-NO 67 0 min -2,6 C 6,9 km/h (2 Bft)
16.02.2016 13:34 -0,9 C -0,8 C 88 % 1027,4 hPa 0,0 mm 6,9 km/h (2 Bft) NO 45 0 min -2,6 C 8,9 km/h (2 Bft)
16.02.2016 13:39 -0,9 C -0,8 C 88 % 1027,4 hPa 0,0 mm 7,2 km/h (2 Bft) NO 45 0 min -2,6 C 20,0 km/h (4 Bft)
16.02.2016 13:44 -0,7 C -0,7 C 88 % 1027,4 hPa 0,0 mm 7,2 km/h (2 Bft) O-NO 67 0 min -2,4 C 9,2 km/h (2 Bft)
16.02.2016 13:49 -0,7 C -0,7 C 88 % 1027,4 hPa 0,0 mm 6,9 km/h (2 Bft) NO 45 0 min -2,4 C 11,0 km/h (2 Bft)
16.02.2016 13:54 -0,7 C -1,0 C 88 % 1027,4 hPa 0,0 mm 8,3 km/h (2 Bft) O-NO 67 0 min -2,4 C 12,5 km/h (3 Bft)
16.02.2016 13:59 -0,9 C -1,2 C 88 % 1027,4 hPa 0,0 mm 10,1 km/h (2 Bft) SW 225 0 min -2,6 C 12,5 km/h (3 Bft)
16.02.2016 14:04 -0,7 C -0,9 C 88 % 1027,3 hPa 0,0 mm 7,7 km/h (2 Bft) NO 45 0 min -2,4 C 8,6 km/h (2 Bft)
16.02.2016 14:06 -0,7 C -0,9 C 88 % 1027,3 hPa 0,0 mm 7,7 km/h (2 Bft) NO 45 0 min -2,4 C 8,6 km/h (2 Bft)
16.02.2016 14:07 -0,7 C -0,8 C 88 % 1027,3 hPa 0,0 mm 7,5 km/h (2 Bft) N-NO 22 0 min -2,4 C 4,8 km/h (1 Bft)
16.02.2016 14:08 -0,7 C -0,8 C 88 % 1027,3 hPa 0,0 mm 7,5 km/h (2 Bft) N-NO 22 0 min -2,4 C 4,8 km/h (1 Bft)
16.02.2016 14:09 -0,7 C -0,8 C 88 % 1027,3 hPa 0,0 mm 7,5 km/h (2 Bft) O 90 0 min -2,4 C 16,1 km/h (3 Bft)
16.02.2016 14:10 -0,7 C -0,8 C 88 % 1027,3 hPa 0,0 mm 7,5 km/h (2 Bft) O 90 0 min -2,4 C 16,1 km/h (3 Bft)
16.02.2016 14:11 -0,9 C -0,9 C 88 % 1027,3 hPa 0,0 mm 7,5 km/h (2 Bft) NO 45 0 min -2,6 C 17,9 km/h (3 Bft)
16.02.2016 14:12 -0,9 C -0,9 C 88 % 1027,3 hPa 0,0 mm 7,5 km/h (2 Bft) NO 45 0 min -2,6 C 17,9 km/h (3 Bft)
16.02.2016 14:13 -0,9 C -1,0 C 88 % 1027,3 hPa 0,0 mm 8,0 km/h (2 Bft) O-SO 112 0 min -2,6 C 3,6 km/h (1 Bft)
16.02.2016 14:14 -0,9 C -1,0 C 88 % 1027,3 hPa 0,0 mm 8,0 km/h (2 Bft) O-SO 112 0 min -2,6 C 3,6 km/h (1 Bft)
16.02.2016 14:15 -0,7 C -0,9 C 88 % 1027,3 hPa 0,0 mm 7,7 km/h (2 Bft) O 90 0 min -2,4 C 11,3 km/h (2 Bft)
16.02.2016 14:16 -0,7 C -0,9 C 88 % 1027,3 hPa 0,0 mm 7,7 km/h (2 Bft) O 90 0 min -2,4 C 11,3 km/h (2 Bft)
16.02.2016 14:17 -0,7 C -0,9 C 88 % 1027,3 hPa 0,0 mm 8,0 km/h (2 Bft) O-NO 67 0 min -2,4 C 9,5 km/h (2 Bft)
16.02.2016 14:18 -0,7 C -0,9 C 88 % 1027,3 hPa 0,0 mm 8,0 km/h (2 Bft) O-NO 67 0 min -2,4 C 9,5 km/h (2 Bft)
16.02.2016 14:19 -0,7 C -1,0 C 88 % 1027,3 hPa 0,0 mm 8,0 km/h (2 Bft) NO 45 0 min -2,4 C 14,0 km/h (3 Bft)
16.02.2016 14:20 -0,7 C -1,0 C 88 % 1027,3 hPa 0,0 mm 8,0 km/h (2 Bft) NO 45 0 min -2,4 C 14,0 km/h (3 Bft)
16.02.2016 14:21 -0,7 C -1,0 C 88 % 1027,3 hPa 0,0 mm 8,0 km/h (2 Bft) O-SO 112 0 min -2,4 C 10,7 km/h (2 Bft)
16.02.2016 14:22 -0,7 C -1,0 C 88 % 1027,3 hPa 0,0 mm 8,0 km/h (2 Bft) O-SO 112 0 min -2,4 C 10,7 km/h (2 Bft)
16.02.2016 14:23 -0,9 C -0,9 C 88 % 1027,2 hPa 0,0 mm 7,2 km/h (2 Bft) NO 45 0 min -2,6 C 6,9 km/h (2 Bft)
16.02.2016 14:24 -0,9 C -0,9 C 88 % 1027,2 hPa 0,0 mm 7,2 km/h (2 Bft) NO 45 0 min -2,6 C 6,9 km/h (2 Bft)
16.02.2016 14:25 -0,9 C -0,9 C 88 % 1027,2 hPa 0,0 mm 7,7 km/h (2 Bft) O-NO 67 0 min -2,6 C 10,1 km/h (2 Bft)
16.02.2016 14:26 -0,9 C -0,9 C 88 % 1027,2 hPa 0,0 mm 7,7 km/h (2 Bft) O-NO 67 0 min -2,6 C 10,1 km/h (2 Bft)
16.02.2016 14:27 -0,9 C -0,9 C 88 % 1027,2 hPa 0,0 mm 7,5 km/h (2 Bft) N-NO 22 0 min -2,6 C 6,9 km/h (2 Bft)
16.02.2016 14:28 -0,9 C -0,9 C 88 % 1027,2 hPa 0,0 mm 7,5 km/h (2 Bft) N-NO 22 0 min -2,6 C 6,9 km/h (2 Bft)
16.02.2016 14:29 -0,9 C -1,0 C 88 % 1027,2 hPa 0,0 mm 7,7 km/h (2 Bft) NO 45 0 min -2,6 C 19,1 km/h (3 Bft)
16.02.2016 14:30 -0,9 C -1,0 C 88 % 1027,2 hPa 0,0 mm 7,7 km/h (2 Bft) NO 45 0 min -2,6 C 19,1 km/h (3 Bft)
16.02.2016 14:31 -0,9 C -1,1 C 88 % 1027,2 hPa 0,0 mm 8,6 km/h (2 Bft) O-NO 67 0 min -2,6 C 15,2 km/h (3 Bft)
16.02.2016 14:32 -0,9 C -1,1 C 88 % 1027,2 hPa 0,0 mm 8,6 km/h (2 Bft) O-NO 67 0 min -2,6 C 15,2 km/h (3 Bft)
16.02.2016 14:33 -0,9 C -1,1 C 88 % 1027,2 hPa 0,0 mm 8,6 km/h (2 Bft) O 90 0 min -2,6 C 5,1 km/h (1 Bft)
16.02.2016 14:34 -0,9 C -1,1 C 88 % 1027,2 hPa 0,0 mm 8,6 km/h (2 Bft) O 90 0 min -2,6 C 5,1 km/h (1 Bft)
16.02.2016 14:35 -0,7 C -1,0 C 88 % 1027,2 hPa 0,0 mm 9,2 km/h (2 Bft) O-NO 67 0 min -2,4 C 8,3 km/h (2 Bft)
16.02.2016 14:36 -0,7 C -1,0 C 88 % 1027,2 hPa 0,0 mm 9,2 km/h (2 Bft) O-NO 67 0 min -2,4 C 8,3 km/h (2 Bft)
16.02.2016 14:37 -0,7 C -1,0 C 88 % 1027,2 hPa 0,0 mm 8,9 km/h (2 Bft) O-NO 67 0 min -2,4 C 8,9 km/h (2 Bft)
16.02.2016 14:38 -0,7 C -1,0 C 88 % 1027,2 hPa 0,0 mm 8,9 km/h (2 Bft) O-NO 67 0 min -2,4 C 8,9 km/h (2 Bft)
16.02.2016 14:39 -0,7 C -1,0 C 88 % 1027,2 hPa 0,0 mm 9,5 km/h (2 Bft) O-NO 67 0 min -2,4 C 10,4 km/h (2 Bft)
16.02.2016 14:40 -0,7 C -1,0 C 88 % 1027,2 hPa 0,0 mm 9,5 km/h (2 Bft) O-NO 67 0 min -2,4 C 10,4 km/h (2 Bft)
16.02.2016 14:41 -0,7 C -1,0 C 88 % 1027,2 hPa 0,0 mm 8,0 km/h (2 Bft) NO 45 0 min -2,4 C 12,5 km/h (3 Bft)
16.02.2016 14:42 -0,7 C -1,0 C 88 % 1027,2 hPa 0,0 mm 8,0 km/h (2 Bft) NO 45 0 min -2,4 C 12,5 km/h (3 Bft)
16.02.2016 14:43 -0,7 C -1,0 C 88 % 1027,2 hPa 0,0 mm 8,3 km/h (2 Bft) NO 45 0 min -2,4 C 14,3 km/h (3 Bft)
16.02.2016 14:44 -0,7 C -1,0 C 88 % 1027,2 hPa 0,0 mm 8,3 km/h (2 Bft) NO 45 0 min -2,4 C 14,3 km/h (3 Bft)
16.02.2016 14:45 -0,7 C -1,0 C 88 % 1027,2 hPa 0,0 mm 8,3 km/h (2 Bft) O 90 0 min -2,4 C 7,2 km/h (2 Bft)
16.02.2016 14:46 -0,7 C -1,0 C 88 % 1027,2 hPa 0,0 mm 8,3 km/h (2 Bft) O 90 0 min -2,4 C 7,2 km/h (2 Bft)
16.02.2016 14:47 -0,7 C -1,1 C 88 % 1027,2 hPa 0,0 mm 8,6 km/h (2 Bft) O-NO 67 0 min -2,4 C 7,5 km/h (2 Bft)
16.02.2016 14:48 -0,7 C -1,1 C 88 % 1027,2 hPa 0,0 mm 8,6 km/h (2 Bft) O-NO 67 0 min -2,4 C 7,5 km/h (2 Bft)
16.02.2016 14:49 -0,7 C -1,1 C 88 % 1027,2 hPa 0,0 mm 8,6 km/h (2 Bft) O 90 0 min -2,4 C 12,2 km/h (2 Bft)
16.02.2016 14:50 -0,7 C -1,1 C 88 % 1027,2 hPa 0,0 mm 8,6 km/h (2 Bft) O 90 0 min -2,4 C 12,2 km/h (2 Bft)
16.02.2016 14:51 -0,7 C -1,1 C 88 % 1027,2 hPa 0,0 mm 8,3 km/h (2 Bft) S 180 0 min -2,4 C 0,0 km/h (0 Bft)
16.02.2016 14:52 -0,7 C -1,1 C 88 % 1027,2 hPa 0,0 mm 8,3 km/h (2 Bft) S 180 0 min -2,4 C 0,0 km/h (0 Bft)
16.02.2016 14:53 -0,7 C -1,0 C 88 % 1027,2 hPa 0,0 mm 7,7 km/h (2 Bft) NO 45 0 min -2,4 C 9,8 km/h (2 Bft)
16.02.2016 14:54 -0,7 C -1,0 C 88 % 1027,2 hPa 0,0 mm 7,7 km/h (2 Bft) NO 45 0 min -2,4 C 9,8 km/h (2 Bft)
16.02.2016 14:55 -0,7 C -1,0 C 88 % 1027,2 hPa 0,0 mm 7,2 km/h (2 Bft) NO 45 0 min -2,4 C 5,7 km/h (1 Bft)
16.02.2016 14:56 -0,7 C -1,0 C 88 % 1027,2 hPa 0,0 mm 7,2 km/h (2 Bft) NO 45 0 min -2,4 C 5,7 km/h (1 Bft)
16.02.2016 14:57 -0,7 C -0,9 C 88 % 1027,2 hPa 0,0 mm 6,9 km/h (2 Bft) N-NO 22 0 min -2,4 C 11,3 km/h (2 Bft)
16.02.2016 14:58 -0,7 C -0,9 C 88 % 1027,2 hPa 0,0 mm 6,9 km/h (2 Bft) N-NO 22 0 min -2,4 C 11,3 km/h (2 Bft)
16.02.2016 14:59 -0,7 C -1,1 C 88 % 1027,2 hPa 0,0 mm 7,7 km/h (2 Bft) O 90 0 min -2,4 C 14,6 km/h (3 Bft)
16.02.2016 15:00 -0,7 C -1,1 C 88 % 1027,2 hPa 0,0 mm 7,7 km/h (2 Bft) O 90 0 min -2,4 C 14,6 km/h (3 Bft)
16.02.2016 15:01 -0,7 C -0,9 C 88 % 1027,2 hPa 0,0 mm 6,9 km/h (2 Bft) O-NO 67 0 min -2,4 C 17,0 km/h (3 Bft)
16.02.2016 15:02 -0,7 C -0,9 C 88 % 1027,2 hPa 0,0 mm 6,9 km/h (2 Bft) O-NO 67 0 min -2,4 C 17,0 km/h (3 Bft)
16.02.2016 15:03 -0,7 C -1,1 C 88 % 1027,3 hPa 0,0 mm 7,7 km/h (2 Bft) O-NO 67 0 min -2,4 C 9,2 km/h (2 Bft)
16.02.2016 15:04 -0,7 C -1,1 C 88 % 1027,3 hPa 0,0 mm 7,7 km/h (2 Bft) O-NO 67 0 min -2,4 C 9,2 km/h (2 Bft)
16.02.2016 15:05 -0,7 C -1,1 C 88 % 1027,3 hPa 0,0 mm 8,0 km/h (2 Bft) NO 45 0 min -2,4 C 10,1 km/h (2 Bft)
16.02.2016 15:06 -0,7 C -1,1 C 88 % 1027,3 hPa 0,0 mm 8,0 km/h (2 Bft) NO 45 0 min -2,4 C 10,1 km/h (2 Bft)
16.02.2016 15:07 -0,7 C -1,1 C 88 % 1027,3 hPa 0,0 mm 8,3 km/h (2 Bft) O 90 0 min -2,4 C 12,8 km/h (3 Bft)
16.02.2016 15:08 -0,7 C -1,1 C 88 % 1027,3 hPa 0,0 mm 8,3 km/h (2 Bft) O 90 0 min -2,4 C 12,8 km/h (3 Bft)
16.02.2016 15:09 -0,7 C -1,2 C 88 % 1027,3 hPa 0,0 mm 8,3 km/h (2 Bft) O-NO 67 0 min -2,4 C 9,2 km/h (2 Bft)
16.02.2016 15:10 -0,7 C -1,2 C 88 % 1027,3 hPa 0,0 mm 8,3 km/h (2 Bft) O-NO 67 0 min -2,4 C 9,2 km/h (2 Bft)
16.02.2016 15:11 -0,7 C -1,2 C 88 % 1027,3 hPa 0,0 mm 8,6 km/h (2 Bft) O-NO 67 0 min -2,4 C 11,3 km/h (2 Bft)
16.02.2016 15:12 -0,7 C -1,2 C 88 % 1027,3 hPa 0,0 mm 8,6 km/h (2 Bft) O-NO 67 0 min -2,4 C 11,3 km/h (2 Bft)
16.02.2016 15:13 -0,7 C -1,0 C 88 % 1027,3 hPa 0,0 mm 7,5 km/h (2 Bft) NO 45 0 min -2,4 C 6,6 km/h (2 Bft)
16.02.2016 15:14 -0,7 C -1,0 C 88 % 1027,3 hPa 0,0 mm 7,5 km/h (2 Bft) NO 45 0 min -2,4 C 6,6 km/h (2 Bft)
16.02.2016 15:15 -0,7 C -1,0 C 88 % 1027,3 hPa 0,0 mm 6,9 km/h (2 Bft) O-NO 67 0 min -2,4 C 9,2 km/h (2 Bft)
16.02.2016 15:16 -0,7 C -1,0 C 88 % 1027,3 hPa 0,0 mm 6,9 km/h (2 Bft) O-NO 67 0 min -2,4 C 9,2 km/h (2 Bft)
16.02.2016 15:17 -0,7 C -0,9 C 88 % 1027,3 hPa 0,0 mm 6,6 km/h (2 Bft) NO 45 0 min -2,4 C 4,8 km/h (1 Bft)
16.02.2016 15:18 -0,7 C -0,9 C 88 % 1027,3 hPa 0,0 mm 6,6 km/h (2 Bft) NO 45 0 min -2,4 C 4,8 km/h (1 Bft)
16.02.2016 15:19 -0,7 C -0,8 C 88 % 1027,3 hPa 0,0 mm 6,0 km/h (2 Bft) O-NO 67 0 min -2,4 C 14,6 km/h (3 Bft)
16.02.2016 15:20 -0,7 C -0,8 C 88 % 1027,3 hPa 0,0 mm 6,0 km/h (2 Bft) O-NO 67 0 min -2,4 C 14,6 km/h (3 Bft)
16.02.2016 15:21 -0,7 C -0,8 C 88 % 1027,3 hPa 0,0 mm 5,7 km/h (1 Bft) O-NO 67 0 min -2,4 C 9,8 km/h (2 Bft)
16.02.2016 15:22 -0,7 C -0,8 C 88 % 1027,3 hPa 0,0 mm 5,7 km/h (1 Bft) O-NO 67 0 min -2,4 C 9,8 km/h (2 Bft)
16.02.2016 15:23 -0,7 C -0,9 C 88 % 1027,3 hPa 0,0 mm 6,3 km/h (2 Bft) O-NO 67 0 min -2,4 C 11,0 km/h (2 Bft)
16.02.2016 15:24 -0,7 C -0,9 C 88 % 1027,3 hPa 0,0 mm 6,3 km/h (2 Bft) O-NO 67 0 min -2,4 C 11,0 km/h (2 Bft)
16.02.2016 15:25 -0,7 C -1,0 C 88 % 1027,3 hPa 0,0 mm 6,9 km/h (2 Bft) O-NO 67 0 min -2,4 C 7,2 km/h (2 Bft)
16.02.2016 15:26 -0,7 C -1,0 C 88 % 1027,3 hPa 0,0 mm 6,9 km/h (2 Bft) O-NO 67 0 min -2,4 C 7,2 km/h (2 Bft)
16.02.2016 15:27 -0,7 C -0,9 C 88 % 1027,3 hPa 0,0 mm 6,9 km/h (2 Bft) SW 225 0 min -2,4 C 8,0 km/h (2 Bft)
16.02.2016 15:28 -0,7 C -0,9 C 88 % 1027,3 hPa 0,0 mm 6,9 km/h (2 Bft) SW 225 0 min -2,4 C 8,0 km/h (2 Bft)
16.02.2016 15:29 -0,7 C -1,0 C 88 % 1027,3 hPa 0,0 mm 7,5 km/h (2 Bft) NO 45 0 min -2,4 C 9,8 km/h (2 Bft)
16.02.2016 15:30 -0,7 C -1,0 C 88 % 1027,3 hPa 0,0 mm 7,5 km/h (2 Bft) NO 45 0 min -2,4 C 9,8 km/h (2 Bft)
16.02.2016 15:31 -0,7 C -1,0 C 88 % 1027,3 hPa 0,0 mm 7,5 km/h (2 Bft) NO 45 0 min -2,4 C 7,5 km/h (2 Bft)
16.02.2016 15:32 -0,7 C -1,0 C 88 % 1027,3 hPa 0,0 mm 7,5 km/h (2 Bft) NO 45 0 min -2,4 C 7,5 km/h (2 Bft)
16.02.2016 15:33 -0,7 C -0,9 C 88 % 1027,3 hPa 0,0 mm 6,6 km/h (2 Bft) O-NO 67 0 min -2,4 C 8,6 km/h (2 Bft)
16.02.2016 15:34 -0,7 C -0,9 C 88 % 1027,3 hPa 0,0 mm 6,6 km/h (2 Bft) O-NO 67 0 min -2,4 C 8,6 km/h (2 Bft)
16.02.2016 15:35 -0,7 C -0,9 C 88 % 1027,3 hPa 0,0 mm 6,6 km/h (2 Bft) O-NO 67 0 min -2,4 C 9,5 km/h (2 Bft)
16.02.2016 15:36 -0,7 C -0,9 C 88 % 1027,3 hPa 0,0 mm 6,6 km/h (2 Bft) O-NO 67 0 min -2,4 C 9,5 km/h (2 Bft)
16.02.2016 15:37 -0,7 C -0,9 C 88 % 1027,3 hPa 0,0 mm 6,3 km/h (2 Bft) O 90 0 min -2,4 C 6,9 km/h (2 Bft)
16.02.2016 15:38 -0,7 C -0,9 C 88 % 1027,3 hPa 0,0 mm 6,3 km/h (2 Bft) O 90 0 min -2,4 C 6,9 km/h (2 Bft)
16.02.2016 15:39 -0,7 C -0,9 C 88 % 1027,3 hPa 0,0 mm 6,0 km/h (2 Bft) O-NO 67 0 min -2,4 C 4,5 km/h (1 Bft)
16.02.2016 15:40 -0,7 C -0,9 C 88 % 1027,3 hPa 0,0 mm 6,0 km/h (2 Bft) O-NO 67 0 min -2,4 C 4,5 km/h (1 Bft)
16.02.2016 15:41 -0,7 C -0,8 C 88 % 1027,3 hPa 0,0 mm 5,1 km/h (1 Bft) O-NO 67 0 min -2,4 C 7,2 km/h (2 Bft)
16.02.2016 15:42 -0,7 C -0,8 C 88 % 1027,3 hPa 0,0 mm 5,1 km/h (1 Bft) O-NO 67 0 min -2,4 C 7,2 km/h (2 Bft)
16.02.2016 15:43 -0,7 C -0,8 C 88 % 1027,2 hPa 0,0 mm 5,1 km/h (1 Bft) N-NO 22 0 min -2,4 C 4,8 km/h (1 Bft)
16.02.2016 15:44 -0,7 C -0,8 C 88 % 1027,2 hPa 0,0 mm 5,1 km/h (1 Bft) N-NO 22 0 min -2,4 C 4,8 km/h (1 Bft)
16.02.2016 15:45 -0,7 C -0,8 C 88 % 1027,2 hPa 0,0 mm 5,1 km/h (1 Bft) O-NO 67 0 min -2,4 C 7,5 km/h (2 Bft)
16.02.2016 15:46 -0,7 C -0,8 C 88 % 1027,2 hPa 0,0 mm 5,1 km/h (1 Bft) O-NO 67 0 min -2,4 C 7,5 km/h (2 Bft)
16.02.2016 15:47 -0,7 C -0,9 C 88 % 1027,2 hPa 0,0 mm 5,4 km/h (1 Bft) NO 45 0 min -2,4 C 7,2 km/h (2 Bft)
16.02.2016 15:48 -0,7 C -0,9 C 88 % 1027,2 hPa 0,0 mm 5,4 km/h (1 Bft) NO 45 0 min -2,4 C 7,2 km/h (2 Bft)
16.02.2016 15:49 -0,7 C -0,9 C 88 % 1027,2 hPa 0,0 mm 5,4 km/h (1 Bft) O-SO 112 0 min -2,4 C 8,9 km/h (2 Bft)
16.02.2016 15:50 -0,7 C -0,9 C 88 % 1027,2 hPa 0,0 mm 5,4 km/h (1 Bft) O-SO 112 0 min -2,4 C 8,9 km/h (2 Bft)
16.02.2016 15:51 -0,7 C -1,0 C 88 % 1027,2 hPa 0,0 mm 6,3 km/h (2 Bft) O-NO 67 0 min -2,4 C 8,9 km/h (2 Bft)
16.02.2016 15:52 -0,7 C -1,0 C 88 % 1027,2 hPa 0,0 mm 6,3 km/h (2 Bft) O-NO 67 0 min -2,4 C 8,9 km/h (2 Bft)
16.02.2016 15:53 -0,7 C -1,0 C 88 % 1027,2 hPa 0,0 mm 6,3 km/h (2 Bft) O-NO 67 0 min -2,4 C 5,4 km/h (1 Bft)
16.02.2016 15:54 -0,7 C -1,0 C 88 % 1027,2 hPa 0,0 mm 6,3 km/h (2 Bft) O-NO 67 0 min -2,4 C 5,4 km/h (1 Bft)
16.02.2016 15:55 -0,7 C -1,0 C 88 % 1027,2 hPa 0,0 mm 6,0 km/h (2 Bft) NO 45 0 min -2,4 C 6,0 km/h (2 Bft)
16.02.2016 15:56 -0,7 C -1,0 C 88 % 1027,2 hPa 0,0 mm 6,0 km/h (2 Bft) NO 45 0 min -2,4 C 6,0 km/h (2 Bft)
16.02.2016 15:57 -0,7 C -0,9 C 88 % 1027,2 hPa 0,0 mm 5,4 km/h (1 Bft) O-NO 67 0 min -2,4 C 8,3 km/h (2 Bft)
16.02.2016 15:58 -0,7 C -0,9 C 88 % 1027,2 hPa 0,0 mm 5,4 km/h (1 Bft) O-NO 67 0 min -2,4 C 8,3 km/h (2 Bft)
16.02.2016 15:59 -0,7 C -0,8 C 88 % 1027,2 hPa 0,0 mm 4,8 km/h (1 Bft) NO 45 0 min -2,4 C 5,1 km/h (1 Bft)
16.02.2016 16:00 -0,7 C -0,8 C 88 % 1027,2 hPa 0,0 mm 4,8 km/h (1 Bft) NO 45 0 min -2,4 C 5,1 km/h (1 Bft)
16.02.2016 16:01 -0,7 C -0,7 C 88 % 1027,2 hPa 0,0 mm 4,5 km/h (1 Bft) O-NO 67 0 min -2,4 C 8,3 km/h (2 Bft)
16.02.2016 16:02 -0,7 C -0,7 C 88 % 1027,2 hPa 0,0 mm 4,5 km/h (1 Bft) O-NO 67 0 min -2,4 C 8,3 km/h (2 Bft)
16.02.2016 16:03 -0,7 C -0,8 C 88 % 1027,0 hPa 0,0 mm 4,8 km/h (1 Bft) O 90 0 min -2,4 C 9,2 km/h (2 Bft)
16.02.2016 16:04 -0,7 C -0,8 C 88 % 1027,0 hPa 0,0 mm 4,8 km/h (1 Bft) O 90 0 min -2,4 C 9,2 km/h (2 Bft)
16.02.2016 16:05 -0,7 C -0,9 C 88 % 1027,0 hPa 0,0 mm 5,1 km/h (1 Bft) O-NO 67 0 min -2,4 C 10,7 km/h (2 Bft)
16.02.2016 16:06 -0,7 C -0,9 C 88 % 1027,0 hPa 0,0 mm 5,1 km/h (1 Bft) O-NO 67 0 min -2,4 C 10,7 km/h (2 Bft)
16.02.2016 16:07 -0,6 C -0,9 C 88 % 1027,0 hPa 0,0 mm 5,4 km/h (1 Bft) NO 45 0 min -2,3 C 5,4 km/h (1 Bft)
16.02.2016 16:08 -0,6 C -0,9 C 88 % 1027,0 hPa 0,0 mm 5,4 km/h (1 Bft) NO 45 0 min -2,3 C 5,4 km/h (1 Bft)
16.02.2016 16:09 -0,6 C -0,9 C 88 % 1027,0 hPa 0,0 mm 6,0 km/h (2 Bft) O-NO 67 0 min -2,3 C 6,6 km/h (2 Bft)
16.02.2016 16:10 -0,6 C -0,9 C 88 % 1027,0 hPa 0,0 mm 6,0 km/h (2 Bft) O-NO 67 0 min -2,3 C 6,6 km/h (2 Bft)
16.02.2016 16:11 -0,6 C -0,9 C 88 % 1027,0 hPa 0,0 mm 6,0 km/h (2 Bft) O-NO 67 0 min -2,3 C 3,0 km/h (1 Bft)
16.02.2016 16:12 -0,6 C -0,9 C 88 % 1027,0 hPa 0,0 mm 6,0 km/h (2 Bft) O-NO 67 0 min -2,3 C 3,0 km/h (1 Bft)
16.02.2016 16:13 -0,6 C -0,8 C 88 % 1027,0 hPa 0,0 mm 5,7 km/h (1 Bft) NO 45 0 min -2,3 C 6,9 km/h (2 Bft)
16.02.2016 16:14 -0,6 C -0,8 C 88 % 1027,0 hPa 0,0 mm 5,7 km/h (1 Bft) NO 45 0 min -2,3 C 6,9 km/h (2 Bft)
16.02.2016 16:15 -0,6 C -0,9 C 88 % 1027,0 hPa 0,0 mm 6,0 km/h (2 Bft) O-NO 67 0 min -2,3 C 13,7 km/h (3 Bft)
16.02.2016 16:16 -0,6 C -0,9 C 88 % 1027,0 hPa 0,0 mm 6,0 km/h (2 Bft) O-NO 67 0 min -2,3 C 13,7 km/h (3 Bft)
16.02.2016 16:17 -0,6 C -0,9 C 88 % 1027,0 hPa 0,0 mm 5,7 km/h (1 Bft) NO 45 0 min -2,3 C 4,2 km/h (1 Bft)
16.02.2016 16:18 -0,6 C -0,9 C 88 % 1027,0 hPa 0,0 mm 5,7 km/h (1 Bft) NO 45 0 min -2,3 C 4,2 km/h (1 Bft)
16.02.2016 16:19 -0,6 C -0,9 C 88 % 1027,0 hPa 0,0 mm 5,7 km/h (1 Bft) O-NO 67 0 min -2,3 C 15,8 km/h (3 Bft)
16.02.2016 16:20 -0,6 C -0,9 C 88 % 1027,0 hPa 0,0 mm 5,7 km/h (1 Bft) O-NO 67 0 min -2,3 C 15,8 km/h (3 Bft)
16.02.2016 16:21 -0,6 C -1,0 C 88 % 1027,0 hPa 0,0 mm 6,6 km/h (2 Bft) O-SO 112 0 min -2,3 C 11,3 km/h (2 Bft)
16.02.2016 16:22 -0,6 C -1,0 C 88 % 1027,0 hPa 0,0 mm 6,6 km/h (2 Bft) O-SO 112 0 min -2,3 C 11,3 km/h (2 Bft)
16.02.2016 16:23 -0,6 C -1,1 C 88 % 1027,2 hPa 0,0 mm 6,9 km/h (2 Bft) N-NO 22 0 min -2,3 C 6,6 km/h (2 Bft)
16.02.2016 16:24 -0,6 C -1,1 C 88 % 1027,2 hPa 0,0 mm 6,9 km/h (2 Bft) N-NO 22 0 min -2,3 C 6,6 km/h (2 Bft)
16.02.2016 16:25 -0,6 C -1,1 C 88 % 1027,2 hPa 0,0 mm 7,2 km/h (2 Bft) O 90 0 min -2,3 C 5,7 km/h (1 Bft)
16.02.2016 16:26 -0,6 C -1,1 C 88 % 1027,2 hPa 0,0 mm 7,2 km/h (2 Bft) O 90 0 min -2,3 C 5,7 km/h (1 Bft)
16.02.2016 16:27 -0,6 C -1,1 C 88 % 1027,2 hPa 0,0 mm 7,2 km/h (2 Bft) O-NO 67 0 min -2,3 C 13,4 km/h (3 Bft)
16.02.2016 16:28 -0,6 C -1,1 C 88 % 1027,2 hPa 0,0 mm 7,2 km/h (2 Bft) O-NO 67 0 min -2,3 C 13,4 km/h (3 Bft)
16.02.2016 16:29 -0,6 C -1,1 C 88 % 1027,2 hPa 0,0 mm 7,7 km/h (2 Bft) NO 45 0 min -2,3 C 14,0 km/h (3 Bft)
16.02.2016 16:30 -0,6 C -1,1 C 88 % 1027,2 hPa 0,0 mm 7,7 km/h (2 Bft) NO 45 0 min -2,3 C 14,0 km/h (3 Bft)
16.02.2016 16:31 -0,6 C -1,2 C 88 % 1027,2 hPa 0,0 mm 7,7 km/h (2 Bft) NO 45 0 min -2,3 C 10,7 km/h (2 Bft)
16.02.2016 16:32 -0,6 C -1,2 C 88 % 1027,2 hPa 0,0 mm 7,7 km/h (2 Bft) NO 45 0 min -2,3 C 10,7 km/h (2 Bft)
16.02.2016 16:33 -0,6 C -1,2 C 88 % 1027,2 hPa 0,0 mm 7,7 km/h (2 Bft) O 90 0 min -2,3 C 11,3 km/h (2 Bft)
16.02.2016 16:34 -0,6 C -1,2 C 88 % 1027,2 hPa 0,0 mm 7,7 km/h (2 Bft) O 90 0 min -2,3 C 11,3 km/h (2 Bft)
16.02.2016 16:35 -0,6 C -1,1 C 88 % 1027,2 hPa 0,0 mm 7,5 km/h (2 Bft) O-NO 67 0 min -2,3 C 3,3 km/h (1 Bft)
16.02.2016 16:36 -0,6 C -1,1 C 88 % 1027,2 hPa 0,0 mm 7,5 km/h (2 Bft) O-NO 67 0 min -2,3 C 3,3 km/h (1 Bft)
16.02.2016 16:37 -0,6 C -1,1 C 88 % 1027,2 hPa 0,0 mm 6,9 km/h (2 Bft) N-NO 22 0 min -2,3 C 0,0 km/h (0 Bft)
16.02.2016 16:38 -0,6 C -1,1 C 88 % 1027,2 hPa 0,0 mm 6,9 km/h (2 Bft) N-NO 22 0 min -2,3 C 0,0 km/h (0 Bft)
16.02.2016 16:39 -0,6 C -1,1 C 88 % 1027,2 hPa 0,0 mm 6,9 km/h (2 Bft) O-NO 67 0 min -2,3 C 8,9 km/h (2 Bft)
16.02.2016 16:40 -0,6 C -1,1 C 88 % 1027,2 hPa 0,0 mm 6,9 km/h (2 Bft) O-NO 67 0 min -2,3 C 8,9 km/h (2 Bft)
16.02.2016 16:41 -0,6 C -1,1 C 88 % 1027,2 hPa 0,0 mm 6,6 km/h (2 Bft) NO 45 0 min -2,3 C 12,5 km/h (3 Bft)
16.02.2016 16:42 -0,6 C -1,1 C 88 % 1027,2 hPa 0,0 mm 6,6 km/h (2 Bft) NO 45 0 min -2,3 C 12,5 km/h (3 Bft)
16.02.2016 16:43 -0,6 C -1,1 C 88 % 1027,1 hPa 0,0 mm 6,6 km/h (2 Bft) O-NO 67 0 min -2,3 C 10,7 km/h (2 Bft)
16.02.2016 16:44 -0,6 C -1,1 C 88 % 1027,1 hPa 0,0 mm 6,6 km/h (2 Bft) O-NO 67 0 min -2,3 C 10,7 km/h (2 Bft)
16.02.2016 16:45 -0,6 C -1,1 C 88 % 1027,1 hPa 0,0 mm 6,9 km/h (2 Bft) NO 45 0 min -2,3 C 11,0 km/h (2 Bft)
16.02.2016 16:46 -0,6 C -1,1 C 88 % 1027,1 hPa 0,0 mm 6,9 km/h (2 Bft) NO 45 0 min -2,3 C 11,0 km/h (2 Bft)
16.02.2016 16:47 -0,6 C -1,1 C 88 % 1027,1 hPa 0,0 mm 7,2 km/h (2 Bft) NO 45 0 min -2,3 C 5,1 km/h (1 Bft)
16.02.2016 16:48 -0,6 C -1,1 C 88 % 1027,1 hPa 0,0 mm 7,2 km/h (2 Bft) NO 45 0 min -2,3 C 5,1 km/h (1 Bft)
16.02.2016 16:49 -0,6 C -1,1 C 88 % 1027,1 hPa 0,0 mm 7,2 km/h (2 Bft) O-NO 67 0 min -2,3 C 7,2 km/h (2 Bft)
16.02.2016 16:50 -0,6 C -1,1 C 88 % 1027,1 hPa 0,0 mm 7,2 km/h (2 Bft) O-NO 67 0 min -2,3 C 7,2 km/h (2 Bft)
16.02.2016 16:51 -0,6 C -1,1 C 88 % 1027,1 hPa 0,0 mm 6,6 km/h (2 Bft) N-NO 22 0 min -2,3 C 7,2 km/h (2 Bft)
16.02.2016 16:52 -0,6 C -1,1 C 88 % 1027,1 hPa 0,0 mm 6,6 km/h (2 Bft) N-NO 22 0 min -2,3 C 7,2 km/h (2 Bft)
16.02.2016 16:53 -0,6 C -1,1 C 88 % 1027,1 hPa 0,0 mm 6,6 km/h (2 Bft) S-SO 157 0 min -2,3 C 5,4 km/h (1 Bft)
16.02.2016 16:54 -0,6 C -1,1 C 88 % 1027,1 hPa 0,0 mm 6,6 km/h (2 Bft) S-SO 157 0 min -2,3 C 5,4 km/h (1 Bft)
16.02.2016 16:55 -0,6 C -0,9 C 88 % 1027,1 hPa 0,0 mm 5,7 km/h (1 Bft) O-NO 67 0 min -2,3 C 5,1 km/h (1 Bft)
16.02.2016 16:56 -0,6 C -0,9 C 88 % 1027,1 hPa 0,0 mm 5,7 km/h (1 Bft) O-NO 67 0 min -2,3 C 5,1 km/h (1 Bft)
16.02.2016 16:57 -0,6 C -0,9 C 88 % 1027,1 hPa 0,0 mm 5,4 km/h (1 Bft) O-NO 67 0 min -2,3 C 16,4 km/h (3 Bft)
16.02.2016 16:58 -0,6 C -0,9 C 88 % 1027,1 hPa 0,0 mm 5,4 km/h (1 Bft) O-NO 67 0 min -2,3 C 16,4 km/h (3 Bft)
16.02.2016 16:59 -0,5 C -0,8 C 92 % 1027,1 hPa 0,0 mm 4,8 km/h (1 Bft) O 90 0 min -1,6 C 0,0 km/h (0 Bft)
16.02.2016 17:00 -0,5 C -0,8 C 92 % 1027,1 hPa 0,0 mm 4,8 km/h (1 Bft) O 90 0 min -1,6 C 0,0 km/h (0 Bft)
16.02.2016 17:01 -0,5 C -0,8 C 92 % 1027,1 hPa 0,0 mm 5,1 km/h (1 Bft) NO 45 0 min -1,6 C 9,8 km/h (2 Bft)
16.02.2016 17:02 -0,5 C -0,8 C 92 % 1027,1 hPa 0,0 mm 5,1 km/h (1 Bft) NO 45 0 min -1,6 C 9,8 km/h (2 Bft)
16.02.2016 17:03 -0,5 C -0,7 C 92 % 1027,1 hPa 0,0 mm 4,5 km/h (1 Bft) NO 45 0 min -1,6 C 6,9 km/h (2 Bft)
16.02.2016 17:04 -0,5 C -0,7 C 92 % 1027,1 hPa 0,0 mm 4,5 km/h (1 Bft) NO 45 0 min -1,6 C 6,9 km/h (2 Bft)
16.02.2016 17:05 -0,5 C -0,7 C 92 % 1027,1 hPa 0,0 mm 4,5 km/h (1 Bft) NO 45 0 min -1,6 C 6,9 km/h (2 Bft)
16.02.2016 17:06 -0,5 C -0,7 C 92 % 1027,1 hPa 0,0 mm 4,5 km/h (1 Bft) NO 45 0 min -1,6 C 6,9 km/h (2 Bft)
16.02.2016 17:07 -0,5 C -0,7 C 88 % 1027,1 hPa 0,0 mm 4,5 km/h (1 Bft) O-NO 67 0 min -2,2 C 10,7 km/h (2 Bft)
16.02.2016 17:08 -0,5 C -0,7 C 88 % 1027,1 hPa 0,0 mm 4,5 km/h (1 Bft) O-NO 67 0 min -2,2 C 10,7 km/h (2 Bft)
16.02.2016 17:09 -0,5 C -0,9 C 92 % 1027,1 hPa 0,0 mm 5,7 km/h (1 Bft) NO 45 0 min -1,6 C 16,4 km/h (3 Bft)
16.02.2016 17:10 -0,5 C -0,9 C 92 % 1027,1 hPa 0,0 mm 5,7 km/h (1 Bft) NO 45 0 min -1,6 C 16,4 km/h (3 Bft)
16.02.2016 17:11 -0,5 C -0,9 C 88 % 1027,1 hPa 0,0 mm 6,0 km/h (2 Bft) N-NO 22 0 min -2,2 C 5,7 km/h (1 Bft)
16.02.2016 17:12 -0,5 C -0,9 C 88 % 1027,1 hPa 0,0 mm 6,0 km/h (2 Bft) N-NO 22 0 min -2,2 C 5,7 km/h (1 Bft)
16.02.2016 17:13 -0,5 C -0,9 C 88 % 1027,1 hPa 0,0 mm 6,0 km/h (2 Bft) O-NO 67 0 min -2,2 C 6,9 km/h (2 Bft)
16.02.2016 17:14 -0,5 C -0,9 C 88 % 1027,1 hPa 0,0 mm 6,0 km/h (2 Bft) O-NO 67 0 min -2,2 C 6,9 km/h (2 Bft)
16.02.2016 17:15 -0,5 C -0,8 C 88 % 1027,1 hPa 0,0 mm 5,7 km/h (1 Bft) N-NO 22 0 min -2,2 C 5,4 km/h (1 Bft)
16.02.2016 17:16 -0,5 C -0,8 C 88 % 1027,1 hPa 0,0 mm 5,7 km/h (1 Bft) N-NO 22 0 min -2,2 C 5,4 km/h (1 Bft)
16.02.2016 17:17 -0,5 C -0,9 C 88 % 1027,1 hPa 0,0 mm 6,6 km/h (2 Bft) O-NO 67 0 min -2,2 C 16,1 km/h (3 Bft)
16.02.2016 17:18 -0,5 C -0,9 C 88 % 1027,1 hPa 0,0 mm 6,6 km/h (2 Bft) O-NO 67 0 min -2,2 C 16,1 km/h (3 Bft)
16.02.2016 17:19 -0,5 C -1,0 C 88 % 1027,1 hPa 0,0 mm 6,9 km/h (2 Bft) O-NO 67 0 min -2,2 C 13,7 km/h (3 Bft)
16.02.2016 17:20 -0,5 C -1,0 C 88 % 1027,1 hPa 0,0 mm 6,9 km/h (2 Bft) O-NO 67 0 min -2,2 C 13,7 km/h (3 Bft)
16.02.2016 17:21 -0,5 C -0,9 C 89 % 1027,1 hPa 0,0 mm 6,3 km/h (2 Bft) O 90 0 min -2,1 C 4,2 km/h (1 Bft)
16.02.2016 17:22 -0,5 C -0,9 C 89 % 1027,1 hPa 0,0 mm 6,3 km/h (2 Bft) O 90 0 min -2,1 C 4,2 km/h (1 Bft)
16.02.2016 17:23 -0,5 C -0,8 C 89 % 1027,1 hPa 0,0 mm 5,7 km/h (1 Bft) O-NO 67 0 min -2,1 C 0,0 km/h (0 Bft)
16.02.2016 17:24 -0,5 C -0,8 C 89 % 1027,1 hPa 0,0 mm 5,7 km/h (1 Bft) O-NO 67 0 min -2,1 C 0,0 km/h (0 Bft)
16.02.2016 17:25 -0,5 C -0,9 C 89 % 1027,1 hPa 0,0 mm 6,0 km/h (2 Bft) O 90 0 min -2,1 C 7,2 km/h (2 Bft)
16.02.2016 17:26 -0,5 C -0,9 C 89 % 1027,1 hPa 0,0 mm 6,0 km/h (2 Bft) O 90 0 min -2,1 C 7,2 km/h (2 Bft)
16.02.2016 17:27 -0,5 C -0,9 C 89 % 1027,1 hPa 0,0 mm 6,3 km/h (2 Bft) O-NO 67 0 min -2,1 C 11,6 km/h (2 Bft)
16.02.2016 17:28 -0,5 C -0,9 C 89 % 1027,1 hPa 0,0 mm 6,3 km/h (2 Bft) O-NO 67 0 min -2,1 C 11,6 km/h (2 Bft)
16.02.2016 17:29 -0,5 C -0,8 C 89 % 1027,1 hPa 0,0 mm 5,1 km/h (1 Bft) O-NO 67 0 min -2,1 C 8,9 km/h (2 Bft)
16.02.2016 17:30 -0,5 C -0,8 C 89 % 1027,1 hPa 0,0 mm 5,1 km/h (1 Bft) O-NO 67 0 min -2,1 C 8,9 km/h (2 Bft)
16.02.2016 17:31 -0,5 C -0,8 C 89 % 1027,1 hPa 0,0 mm 5,4 km/h (1 Bft) O-NO 67 0 min -2,1 C 13,1 km/h (3 Bft)
16.02.2016 17:32 -0,5 C -0,8 C 89 % 1027,1 hPa 0,0 mm 5,4 km/h (1 Bft) O-NO 67 0 min -2,1 C 13,1 km/h (3 Bft)
16.02.2016 17:33 -0,5 C -0,8 C 89 % 1027,1 hPa 0,0 mm 5,4 km/h (1 Bft) O-SO 112 0 min -2,1 C 7,5 km/h (2 Bft)
16.02.2016 17:34 -0,5 C -0,8 C 89 % 1027,1 hPa 0,0 mm 5,4 km/h (1 Bft) O-SO 112 0 min -2,1 C 7,5 km/h (2 Bft)
16.02.2016 17:35 -0,5 C -0,8 C 89 % 1027,1 hPa 0,0 mm 5,4 km/h (1 Bft) O-NO 67 0 min -2,1 C 6,3 km/h (2 Bft)
16.02.2016 17:36 -0,5 C -0,8 C 89 % 1027,1 hPa 0,0 mm 5,4 km/h (1 Bft) O-NO 67 0 min -2,1 C 6,3 km/h (2 Bft)
16.02.2016 17:37 -0,5 C -0,8 C 89 % 1027,1 hPa 0,0 mm 5,7 km/h (1 Bft) O 90 0 min -2,1 C 5,4 km/h (1 Bft)
16.02.2016 17:38 -0,5 C -0,8 C 89 % 1027,1 hPa 0,0 mm 5,7 km/h (1 Bft) O 90 0 min -2,1 C 5,4 km/h (1 Bft)
16.02.2016 17:39 -0,5 C -0,8 C 89 % 1027,1 hPa 0,0 mm 5,7 km/h (1 Bft) N-NO 22 0 min -2,1 C 10,7 km/h (2 Bft)
16.02.2016 17:40 -0,5 C -0,8 C 89 % 1027,1 hPa 0,0 mm 5,7 km/h (1 Bft) N-NO 22 0 min -2,1 C 10,7 km/h (2 Bft)
16.02.2016 17:41 -0,5 C -0,9 C 89 % 1027,1 hPa 0,0 mm 6,0 km/h (2 Bft) O-NO 67 0 min -2,1 C 5,7 km/h (1 Bft)
16.02.2016 17:42 -0,5 C -0,9 C 89 % 1027,1 hPa 0,0 mm 6,0 km/h (2 Bft) O-NO 67 0 min -2,1 C 5,7 km/h (1 Bft)
16.02.2016 17:43 -0,5 C -0,9 C 89 % 1027,1 hPa 0,0 mm 6,0 km/h (2 Bft) NO 45 0 min -2,1 C 10,7 km/h (2 Bft)
16.02.2016 17:44 -0,5 C -0,9 C 89 % 1027,1 hPa 0,0 mm 6,0 km/h (2 Bft) NO 45 0 min -2,1 C 10,7 km/h (2 Bft)
16.02.2016 17:45 -0,5 C -0,9 C 89 % 1027,1 hPa 0,0 mm 6,3 km/h (2 Bft) O-NO 67 0 min -2,1 C 4,5 km/h (1 Bft)
16.02.2016 17:46 -0,5 C -0,9 C 89 % 1027,1 hPa 0,0 mm 6,3 km/h (2 Bft) O-NO 67 0 min -2,1 C 4,5 km/h (1 Bft)
16.02.2016 17:47 -0,5 C -0,9 C 89 % 1027,1 hPa 0,0 mm 6,0 km/h (2 Bft) NO 45 0 min -2,1 C 4,5 km/h (1 Bft)
16.02.2016 17:48 -0,5 C -0,9 C 89 % 1027,1 hPa 0,0 mm 6,0 km/h (2 Bft) NO 45 0 min -2,1 C 4,5 km/h (1 Bft)
16.02.2016 17:49 -0,5 C -0,8 C 89 % 1027,1 hPa 0,0 mm 5,4 km/h (1 Bft) O 90 0 min -2,1 C 3,0 km/h (1 Bft)
16.02.2016 17:50 -0,5 C -0,8 C 89 % 1027,1 hPa 0,0 mm 5,4 km/h (1 Bft) O 90 0 min -2,1 C 3,0 km/h (1 Bft)
16.02.2016 17:51 -0,5 C -0,7 C 89 % 1027,1 hPa 0,0 mm 5,1 km/h (1 Bft) O-NO 67 0 min -2,1 C 11,6 km/h (2 Bft)
16.02.2016 17:52 -0,5 C -0,7 C 89 % 1027,1 hPa 0,0 mm 5,1 km/h (1 Bft) O-NO 67 0 min -2,1 C 11,6 km/h (2 Bft)
16.02.2016 17:53 -0,5 C -0,7 C 89 % 1027,1 hPa 0,0 mm 4,8 km/h (1 Bft) O-SO 112 0 min -2,1 C 3,6 km/h (1 Bft)
16.02.2016 17:54 -0,5 C -0,7 C 89 % 1027,1 hPa 0,0 mm 4,8 km/h (1 Bft) O-SO 112 0 min -2,1 C 3,6 km/h (1 Bft)
16.02.2016 17:55 -0,5 C -0,6 C 89 % 1027,1 hPa 0,0 mm 3,9 km/h (1 Bft) O 90 0 min -2,1 C 3,0 km/h (1 Bft)
16.02.2016 17:56 -0,5 C -0,6 C 89 % 1027,1 hPa 0,0 mm 3,9 km/h (1 Bft) O 90 0 min -2,1 C 3,0 km/h (1 Bft)
16.02.2016 17:57 -0,5 C -0,6 C 89 % 1027,1 hPa 0,0 mm 4,2 km/h (1 Bft) O-NO 67 0 min -2,1 C 6,6 km/h (2 Bft)
16.02.2016 17:58 -0,5 C -0,6 C 89 % 1027,1 hPa 0,0 mm 4,2 km/h (1 Bft) O-NO 67 0 min -2,1 C 6,6 km/h (2 Bft)
16.02.2016 17:59 -0,4 C -0,7 C 93 % 1027,1 hPa 0,0 mm 4,8 km/h (1 Bft) NO 45 0 min -1,4 C 5,7 km/h (1 Bft)
16.02.2016 18:00 -0,4 C -0,7 C 93 % 1027,1 hPa 0,0 mm 4,8 km/h (1 Bft) NO 45 0 min -1,4 C 5,7 km/h (1 Bft)
16.02.2016 18:01 -0,4 C -0,7 C 93 % 1027,1 hPa 0,0 mm 4,8 km/h (1 Bft) NO 45 0 min -1,4 C 9,2 km/h (2 Bft)
16.02.2016 18:02 -0,4 C -0,7 C 93 % 1027,1 hPa 0,0 mm 4,8 km/h (1 Bft) NO 45 0 min -1,4 C 9,2 km/h (2 Bft)
16.02.2016 18:03 -0,4 C -0,6 C 93 % 1027,2 hPa 0,0 mm 4,5 km/h (1 Bft) NO 45 0 min -1,4 C 8,6 km/h (2 Bft)
16.02.2016 18:04 -0,4 C -0,6 C 93 % 1027,2 hPa 0,0 mm 4,5 km/h (1 Bft) NO 45 0 min -1,4 C 8,6 km/h (2 Bft)
16.02.2016 18:05 -0,4 C -0,6 C 93 % 1027,2 hPa 0,0 mm 4,5 km/h (1 Bft) SO 135 0 min -1,4 C 3,3 km/h (1 Bft)
16.02.2016 18:06 -0,4 C -0,6 C 93 % 1027,2 hPa 0,0 mm 4,5 km/h (1 Bft) SO 135 0 min -1,4 C 3,3 km/h (1 Bft)
16.02.2016 18:07 -0,4 C -0,7 C 93 % 1027,2 hPa 0,0 mm 4,8 km/h (1 Bft) N-NO 22 0 min -1,4 C 5,4 km/h (1 Bft)
16.02.2016 18:08 -0,4 C -0,7 C 93 % 1027,2 hPa 0,0 mm 4,8 km/h (1 Bft) N-NO 22 0 min -1,4 C 5,4 km/h (1 Bft)
16.02.2016 18:09 -0,4 C -0,6 C 93 % 1027,2 hPa 0,0 mm 3,9 km/h (1 Bft) N-NO 22 0 min -1,4 C 4,5 km/h (1 Bft)
16.02.2016 18:10 -0,4 C -0,6 C 93 % 1027,2 hPa 0,0 mm 3,9 km/h (1 Bft) N-NO 22 0 min -1,4 C 4,5 km/h (1 Bft)
16.02.2016 18:11 -0,4 C -0,6 C 93 % 1027,2 hPa 0,0 mm 4,5 km/h (1 Bft) O-NO 67 0 min -1,4 C 4,8 km/h (1 Bft)
16.02.2016 18:12 -0,4 C -0,6 C 93 % 1027,2 hPa 0,0 mm 4,5 km/h (1 Bft) O-NO 67 0 min -1,4 C 4,8 km/h (1 Bft)
16.02.2016 18:13 -0,4 C -0,7 C 93 % 1027,2 hPa 0,0 mm 4,8 km/h (1 Bft) O 90 0 min -1,4 C 6,3 km/h (2 Bft)
16.02.2016 18:14 -0,4 C -0,7 C 93 % 1027,2 hPa 0,0 mm 4,8 km/h (1 Bft) O 90 0 min -1,4 C 6,3 km/h (2 Bft)
16.02.2016 18:15 -0,4 C -0,7 C 93 % 1027,2 hPa 0,0 mm 5,1 km/h (1 Bft) SO 135 0 min -1,4 C 7,2 km/h (2 Bft)
16.02.2016 18:16 -0,4 C -0,7 C 93 % 1027,2 hPa 0,0 mm 5,1 km/h (1 Bft) SO 135 0 min -1,4 C 7,2 km/h (2 Bft)
16.02.2016 18:17 -0,4 C -0,6 C 93 % 1027,2 hPa 0,0 mm 4,2 km/h (1 Bft) O-NO 67 0 min -1,4 C 3,0 km/h (1 Bft)
16.02.2016 18:18 -0,4 C -0,6 C 93 % 1027,2 hPa 0,0 mm 4,2 km/h (1 Bft) O-NO 67 0 min -1,4 C 3,0 km/h (1 Bft)
16.02.2016 18:19 -0,4 C -0,6 C 93 % 1027,2 hPa 0,0 mm 4,8 km/h (1 Bft) O-NO 67 0 min -1,4 C 7,7 km/h (2 Bft)
16.02.2016 18:20 -0,4 C -0,6 C 93 % 1027,2 hPa 0,0 mm 4,8 km/h (1 Bft) O-NO 67 0 min -1,4 C 7,7 km/h (2 Bft)
16.02.2016 18:21 -0,3 C -0,6 C 93 % 1027,2 hPa 0,0 mm 5,1 km/h (1 Bft) O-NO 67 0 min -1,3 C 12,2 km/h (2 Bft)
16.02.2016 18:22 -0,3 C -0,6 C 93 % 1027,2 hPa 0,0 mm 5,1 km/h (1 Bft) O-NO 67 0 min -1,3 C 12,2 km/h (2 Bft)
16.02.2016 18:23 -0,3 C -0,6 C 93 % 1027,3 hPa 0,0 mm 5,1 km/h (1 Bft) NO 45 0 min -1,3 C 6,9 km/h (2 Bft)
16.02.2016 18:24 -0,3 C -0,6 C 93 % 1027,3 hPa 0,0 mm 5,1 km/h (1 Bft) NO 45 0 min -1,3 C 6,9 km/h (2 Bft)
16.02.2016 18:25 -0,3 C -0,6 C 93 % 1027,3 hPa 0,0 mm 5,4 km/h (1 Bft) O-NO 67 0 min -1,3 C 5,1 km/h (1 Bft)
16.02.2016 18:26 -0,3 C -0,6 C 93 % 1027,3 hPa 0,0 mm 5,4 km/h (1 Bft) O-NO 67 0 min -1,3 C 5,1 km/h (1 Bft)
16.02.2016 18:27 -0,3 C -0,7 C 93 % 1027,3 hPa 0,0 mm 6,0 km/h (2 Bft) N-NO 22 0 min -1,3 C 6,6 km/h (2 Bft)
16.02.2016 18:28 -0,3 C -0,7 C 93 % 1027,3 hPa 0,0 mm 6,0 km/h (2 Bft) N-NO 22 0 min -1,3 C 6,6 km/h (2 Bft)
16.02.2016 18:29 -0,3 C -0,8 C 93 % 1027,3 hPa 0,0 mm 6,3 km/h (2 Bft) NO 45 0 min -1,3 C 7,7 km/h (2 Bft)
16.02.2016 18:30 -0,3 C -0,8 C 93 % 1027,3 hPa 0,0 mm 6,3 km/h (2 Bft) NO 45 0 min -1,3 C 7,7 km/h (2 Bft)
16.02.2016 18:31 -0,3 C -0,6 C 93 % 1027,3 hPa 0,0 mm 5,4 km/h (1 Bft) O 90 0 min -1,3 C 0,0 km/h (0 Bft)
16.02.2016 18:32 -0,3 C -0,6 C 93 % 1027,3 hPa 0,0 mm 5,4 km/h (1 Bft) O 90 0 min -1,3 C 0,0 km/h (0 Bft)
16.02.2016 18:33 -0,3 C -0,6 C 93 % 1027,3 hPa 0,0 mm 5,1 km/h (1 Bft) O-SO 112 0 min -1,3 C 7,7 km/h (2 Bft)
16.02.2016 18:34 -0,3 C -0,6 C 93 % 1027,3 hPa 0,0 mm 5,1 km/h (1 Bft) O-SO 112 0 min -1,3 C 7,7 km/h (2 Bft)
16.02.2016 18:35 -0,3 C -0,5 C 93 % 1027,3 hPa 0,0 mm 4,5 km/h (1 Bft) O-NO 67 0 min -1,3 C 0,0 km/h (0 Bft)
16.02.2016 18:36 -0,3 C -0,5 C 93 % 1027,3 hPa 0,0 mm 4,5 km/h (1 Bft) O-NO 67 0 min -1,3 C 0,0 km/h (0 Bft)
16.02.2016 18:37 -0,3 C -0,5 C 93 % 1027,3 hPa 0,0 mm 4,5 km/h (1 Bft) O 90 0 min -1,3 C 10,1 km/h (2 Bft)
16.02.2016 18:38 -0,3 C -0,5 C 93 % 1027,3 hPa 0,0 mm 4,5 km/h (1 Bft) O 90 0 min -1,3 C 10,1 km/h (2 Bft)
16.02.2016 18:39 -0,3 C -0,5 C 93 % 1027,3 hPa 0,0 mm 4,5 km/h (1 Bft) N-NO 22 0 min -1,3 C 6,0 km/h (2 Bft)
16.02.2016 18:40 -0,3 C -0,5 C 93 % 1027,3 hPa 0,0 mm 4,5 km/h (1 Bft) N-NO 22 0 min -1,3 C 6,0 km/h (2 Bft)
16.02.2016 18:41 -0,3 C -0,5 C 93 % 1027,3 hPa 0,0 mm 4,5 km/h (1 Bft) O-NO 67 0 min -1,3 C 6,6 km/h (2 Bft)
16.02.2016 18:42 -0,3 C -0,5 C 93 % 1027,3 hPa 0,0 mm 4,5 km/h (1 Bft) O-NO 67 0 min -1,3 C 6,6 km/h (2 Bft)
16.02.2016 18:43 -0,3 C -0,5 C 93 % 1027,2 hPa 0,0 mm 4,2 km/h (1 Bft) O-NO 67 0 min -1,3 C 3,6 km/h (1 Bft)
16.02.2016 18:44 -0,3 C -0,5 C 93 % 1027,2 hPa 0,0 mm 4,2 km/h (1 Bft) O-NO 67 0 min -1,3 C 3,6 km/h (1 Bft)
16.02.2016 18:45 -0,3 C -0,5 C 93 % 1027,2 hPa 0,0 mm 4,5 km/h (1 Bft) O-NO 67 0 min -1,3 C 12,5 km/h (3 Bft)
16.02.2016 18:46 -0,3 C -0,5 C 93 % 1027,2 hPa 0,0 mm 4,5 km/h (1 Bft) O-NO 67 0 min -1,3 C 12,5 km/h (3 Bft)
16.02.2016 18:47 -0,3 C -0,5 C 93 % 1027,2 hPa 0,0 mm 4,5 km/h (1 Bft) O 90 0 min -1,3 C 8,3 km/h (2 Bft)
16.02.2016 18:48 -0,3 C -0,5 C 93 % 1027,2 hPa 0,0 mm 4,5 km/h (1 Bft) O 90 0 min -1,3 C 8,3 km/h (2 Bft)
16.02.2016 18:49 -0,3 C -0,5 C 93 % 1027,2 hPa 0,0 mm 4,2 km/h (1 Bft) O 90 0 min -1,3 C 4,8 km/h (1 Bft)
16.02.2016 18:50 -0,3 C -0,5 C 93 % 1027,2 hPa 0,0 mm 4,2 km/h (1 Bft) O 90 0 min -1,3 C 4,8 km/h (1 Bft)
16.02.2016 18:51 -0,2 C -0,4 C 93 % 1027,2 hPa 0,0 mm 4,2 km/h (1 Bft) NO 45 0 min -1,2 C 5,4 km/h (1 Bft)
16.02.2016 18:52 -0,2 C -0,4 C 93 % 1027,2 hPa 0,0 mm 4,2 km/h (1 Bft) NO 45 0 min -1,2 C 5,4 km/h (1 Bft)
16.02.2016 18:53 -0,2 C -0,5 C 93 % 1027,2 hPa 0,0 mm 5,1 km/h (1 Bft) O-NO 67 0 min -1,2 C 11,6 km/h (2 Bft)
16.02.2016 18:54 -0,2 C -0,5 C 93 % 1027,2 hPa 0,0 mm 5,1 km/h (1 Bft) O-NO 67 0 min -1,2 C 11,6 km/h (2 Bft)
16.02.2016 18:55 -0,2 C -0,5 C 93 % 1027,2 hPa 0,0 mm 5,4 km/h (1 Bft) O-SO 112 0 min -1,2 C 10,7 km/h (2 Bft)
16.02.2016 18:56 -0,2 C -0,5 C 93 % 1027,2 hPa 0,0 mm 5,4 km/h (1 Bft) O-SO 112 0 min -1,2 C 10,7 km/h (2 Bft)
16.02.2016 18:57 -0,2 C -0,7 C 93 % 1027,2 hPa 0,0 mm 6,3 km/h (2 Bft) NO 45 0 min -1,2 C 11,9 km/h (2 Bft)
16.02.2016 18:58 -0,2 C -0,7 C 93 % 1027,2 hPa 0,0 mm 6,3 km/h (2 Bft) NO 45 0 min -1,2 C 11,9 km/h (2 Bft)
16.02.2016 18:59 -0,2 C -0,8 C 94 % 1027,2 hPa 0,0 mm 7,5 km/h (2 Bft) N-NO 22 0 min -1,0 C 10,7 km/h (2 Bft)
16.02.2016 19:00 -0,2 C -0,8 C 94 % 1027,2 hPa 0,0 mm 7,5 km/h (2 Bft) N-NO 22 0 min -1,0 C 10,7 km/h (2 Bft)
16.02.2016 19:01 -0,2 C -0,8 C 94 % 1027,2 hPa 0,0 mm 8,0 km/h (2 Bft) O-NO 67 0 min -1,0 C 5,7 km/h (1 Bft)
16.02.2016 19:02 -0,2 C -0,8 C 94 % 1027,2 hPa 0,0 mm 8,0 km/h (2 Bft) O-NO 67 0 min -1,0 C 5,7 km/h (1 Bft)
16.02.2016 19:03 -0,2 C -0,9 C 94 % 1027,1 hPa 0,0 mm 8,3 km/h (2 Bft) O-NO 67 0 min -1,0 C 12,2 km/h (2 Bft)
16.02.2016 19:04 -0,2 C -0,9 C 94 % 1027,1 hPa 0,0 mm 8,3 km/h (2 Bft) O-NO 67 0 min -1,0 C 12,2 km/h (2 Bft)
16.02.2016 19:05 -0,2 C -0,8 C 94 % 1027,1 hPa 0,0 mm 8,0 km/h (2 Bft) O-NO 67 0 min -1,0 C 10,4 km/h (2 Bft)
16.02.2016 19:06 -0,2 C -0,8 C 94 % 1027,1 hPa 0,0 mm 8,0 km/h (2 Bft) O-NO 67 0 min -1,0 C 10,4 km/h (2 Bft)
16.02.2016 19:07 -0,2 C -0,8 C 94 % 1027,1 hPa 0,0 mm 7,7 km/h (2 Bft) O-SO 112 0 min -1,0 C 5,7 km/h (1 Bft)
16.02.2016 19:08 -0,2 C -0,8 C 94 % 1027,1 hPa 0,0 mm 7,7 km/h (2 Bft) O-SO 112 0 min -1,0 C 5,7 km/h (1 Bft)
16.02.2016 19:09 -0,2 C -0,7 C 94 % 1027,1 hPa 0,0 mm 7,2 km/h (2 Bft) NO 45 0 min -1,0 C 8,6 km/h (2 Bft)
16.02.2016 19:10 -0,2 C -0,7 C 94 % 1027,1 hPa 0,0 mm 7,2 km/h (2 Bft) NO 45 0 min -1,0 C 8,6 km/h (2 Bft)
16.02.2016 19:11 -0,2 C -0,8 C 94 % 1027,1 hPa 0,0 mm 7,5 km/h (2 Bft) NO 45 0 min -1,0 C 12,2 km/h (2 Bft)
16.02.2016 19:12 -0,2 C -0,8 C 94 % 1027,1 hPa 0,0 mm 7,5 km/h (2 Bft) NO 45 0 min -1,0 C 12,2 km/h (2 Bft)
16.02.2016 19:13 -0,2 C -0,8 C 94 % 1027,1 hPa 0,0 mm 8,0 km/h (2 Bft) O 90 0 min -1,0 C 8,0 km/h (2 Bft)
16.02.2016 19:14 -0,2 C -0,8 C 94 % 1027,1 hPa 0,0 mm 8,0 km/h (2 Bft) O 90 0 min -1,0 C 8,0 km/h (2 Bft)
16.02.2016 19:15 -0,2 C -0,9 C 94 % 1027,1 hPa 0,0 mm 8,6 km/h (2 Bft) NO 45 0 min -1,0 C 12,8 km/h (3 Bft)
16.02.2016 19:16 -0,2 C -0,9 C 94 % 1027,1 hPa 0,0 mm 8,6 km/h (2 Bft) NO 45 0 min -1,0 C 12,8 km/h (3 Bft)
16.02.2016 19:17 -0,2 C -0,8 C 89 % 1027,1 hPa 0,0 mm 8,3 km/h (2 Bft) O-SO 112 0 min -1,8 C 10,4 km/h (2 Bft)
16.02.2016 19:18 -0,2 C -0,8 C 89 % 1027,1 hPa 0,0 mm 8,3 km/h (2 Bft) O-SO 112 0 min -1,8 C 10,4 km/h (2 Bft)
16.02.2016 19:19 -0,2 C -0,8 C 89 % 1027,1 hPa 0,0 mm 8,6 km/h (2 Bft) O-SO 112 0 min -1,8 C 13,4 km/h (3 Bft)
16.02.2016 19:20 -0,2 C -0,8 C 89 % 1027,1 hPa 0,0 mm 8,6 km/h (2 Bft) O-SO 112 0 min -1,8 C 13,4 km/h (3 Bft)
16.02.2016 19:21 -0,2 C -0,7 C 89 % 1027,1 hPa 0,0 mm 7,7 km/h (2 Bft) N-NO 22 0 min -1,8 C 0,0 km/h (0 Bft)
16.02.2016 19:22 -0,2 C -0,7 C 89 % 1027,1 hPa 0,0 mm 7,7 km/h (2 Bft) N-NO 22 0 min -1,8 C 0,0 km/h (0 Bft)
16.02.2016 19:23 -0,2 C -0,7 C 89 % 1027,1 hPa 0,0 mm 7,5 km/h (2 Bft) NO 45 0 min -1,8 C 8,3 km/h (2 Bft)
16.02.2016 19:24 -0,2 C -0,7 C 89 % 1027,1 hPa 0,0 mm 7,5 km/h (2 Bft) NO 45 0 min -1,8 C 8,3 km/h (2 Bft)
16.02.2016 19:25 -0,2 C -0,7 C 89 % 1027,1 hPa 0,0 mm 7,5 km/h (2 Bft) O-SO 112 0 min -1,8 C 8,0 km/h (2 Bft)
16.02.2016 19:26 -0,2 C -0,7 C 89 % 1027,1 hPa 0,0 mm 7,5 km/h (2 Bft) O-SO 112 0 min -1,8 C 8,0 km/h (2 Bft)
16.02.2016 19:27 -0,2 C -0,8 C 89 % 1027,1 hPa 0,0 mm 8,6 km/h (2 Bft) O-NO 67 0 min -1,8 C 17,6 km/h (3 Bft)
16.02.2016 19:28 -0,2 C -0,8 C 89 % 1027,1 hPa 0,0 mm 8,6 km/h (2 Bft) O-NO 67 0 min -1,8 C 17,6 km/h (3 Bft)
16.02.2016 19:29 -0,2 C -0,8 C 89 % 1027,1 hPa 0,0 mm 8,6 km/h (2 Bft) N-NO 22 0 min -1,8 C 16,1 km/h (3 Bft)
16.02.2016 19:30 -0,2 C -0,8 C 89 % 1027,1 hPa 0,0 mm 8,6 km/h (2 Bft) N-NO 22 0 min -1,8 C 16,1 km/h (3 Bft)
16.02.2016 19:31 -0,1 C -0,8 C 94 % 1027,1 hPa 0,0 mm 9,5 km/h (2 Bft) O-NO 67 0 min -0,9 C 13,4 km/h (3 Bft)
16.02.2016 19:32 -0,1 C -0,8 C 94 % 1027,1 hPa 0,0 mm 9,5 km/h (2 Bft) O-NO 67 0 min -0,9 C 13,4 km/h (3 Bft)
16.02.2016 19:33 -0,1 C -0,9 C 94 % 1027,1 hPa 0,0 mm 10,4 km/h (2 Bft) O-NO 67 0 min -0,9 C 13,4 km/h (3 Bft)
16.02.2016 19:34 -0,1 C -0,9 C 94 % 1027,1 hPa 0,0 mm 10,4 km/h (2 Bft) O-NO 67 0 min -0,9 C 13,4 km/h (3 Bft)
16.02.2016 19:35 -0,1 C -1,0 C 94 % 1027,1 hPa 0,0 mm 10,4 km/h (2 Bft) NO 45 0 min -0,9 C 10,7 km/h (2 Bft)
16.02.2016 19:36 -0,1 C -1,0 C 94 % 1027,1 hPa 0,0 mm 10,4 km/h (2 Bft) NO 45 0 min -0,9 C 10,7 km/h (2 Bft)
16.02.2016 19:37 -0,1 C -1,0 C 94 % 1027,1 hPa 0,0 mm 11,0 km/h (2 Bft) O 90 0 min -0,9 C 8,3 km/h (2 Bft)
16.02.2016 19:38 -0,1 C -1,0 C 94 % 1027,1 hPa 0,0 mm 11,0 km/h (2 Bft) O 90 0 min -0,9 C 8,3 km/h (2 Bft)
16.02.2016 19:39 -0,1 C -1,0 C 94 % 1027,1 hPa 0,0 mm 10,7 km/h (2 Bft) NO 45 0 min -0,9 C 12,5 km/h (3 Bft)
16.02.2016 19:40 -0,1 C -1,0 C 94 % 1027,1 hPa 0,0 mm 10,7 km/h (2 Bft) NO 45 0 min -0,9 C 12,5 km/h (3 Bft)
16.02.2016 19:41 -0,1 C -0,9 C 94 % 1027,1 hPa 0,0 mm 9,8 km/h (2 Bft) NO 45 0 min -0,9 C 8,0 km/h (2 Bft)
16.02.2016 19:42 -0,1 C -0,9 C 94 % 1027,1 hPa 0,0 mm 9,8 km/h (2 Bft) NO 45 0 min -0,9 C 8,0 km/h (2 Bft)
16.02.2016 19:43 -0,1 C -0,9 C 94 % 1026,9 hPa 0,0 mm 10,1 km/h (2 Bft) SO 135 0 min -0,9 C 20,3 km/h (4 Bft)
16.02.2016 19:44 -0,1 C -0,9 C 94 % 1026,9 hPa 0,0 mm 10,1 km/h (2 Bft) SO 135 0 min -0,9 C 20,3 km/h (4 Bft)
16.02.2016 19:45 -0,1 C -0,9 C 94 % 1026,9 hPa 0,0 mm 9,5 km/h (2 Bft) O-NO 67 0 min -0,9 C 17,0 km/h (3 Bft)
16.02.2016 19:46 -0,1 C -0,9 C 94 % 1026,9 hPa 0,0 mm 9,5 km/h (2 Bft) O-NO 67 0 min -0,9 C 17,0 km/h (3 Bft)
16.02.2016 19:47 -0,1 C -0,9 C 94 % 1026,9 hPa 0,0 mm 9,2 km/h (2 Bft) NO 45 0 min -0,9 C 12,8 km/h (3 Bft)
16.02.2016 19:48 -0,1 C -0,9 C 94 % 1026,9 hPa 0,0 mm 9,2 km/h (2 Bft) NO 45 0 min -0,9 C 12,8 km/h (3 Bft)
16.02.2016 19:49 -0,1 C -0,9 C 94 % 1026,9 hPa 0,0 mm 9,2 km/h (2 Bft) O-SO 112 0 min -0,9 C 14,0 km/h (3 Bft)
16.02.2016 19:50 -0,1 C -0,9 C 94 % 1026,9 hPa 0,0 mm 9,2 km/h (2 Bft) O-SO 112 0 min -0,9 C 14,0 km/h (3 Bft)
16.02.2016 19:51 -0,1 C -0,9 C 94 % 1026,9 hPa 0,0 mm 10,1 km/h (2 Bft) O-NO 67 0 min -0,9 C 15,5 km/h (3 Bft)
16.02.2016 19:52 -0,1 C -0,9 C 94 % 1026,9 hPa 0,0 mm 10,1 km/h (2 Bft) O-NO 67 0 min -0,9 C 15,5 km/h (3 Bft)
16.02.2016 19:53 -0,1 C -0,9 C 94 % 1026,9 hPa 0,0 mm 9,8 km/h (2 Bft) NO 45 0 min -0,9 C 8,6 km/h (2 Bft)
16.02.2016 19:54 -0,1 C -0,9 C 94 % 1026,9 hPa 0,0 mm 9,8 km/h (2 Bft) NO 45 0 min -0,9 C 8,6 km/h (2 Bft)
16.02.2016 19:55 -0,1 C -0,9 C 95 % 1026,9 hPa 0,0 mm 10,1 km/h (2 Bft) O-SO 112 0 min -0,8 C 14,3 km/h (3 Bft)
16.02.2016 19:56 -0,1 C -0,9 C 95 % 1026,9 hPa 0,0 mm 10,1 km/h (2 Bft) O-SO 112 0 min -0,8 C 14,3 km/h (3 Bft)
16.02.2016 19:57 -0,1 C -0,9 C 95 % 1026,9 hPa 0,0 mm 10,1 km/h (2 Bft) O-NO 67 0 min -0,8 C 14,9 km/h (3 Bft)
16.02.2016 19:58 -0,1 C -0,9 C 95 % 1026,9 hPa 0,0 mm 10,1 km/h (2 Bft) O-NO 67 0 min -0,8 C 14,9 km/h (3 Bft)
16.02.2016 19:59 -0,1 C -0,9 C 95 % 1026,9 hPa 0,0 mm 10,1 km/h (2 Bft) O-NO 67 0 min -0,8 C 11,6 km/h (2 Bft)
16.02.2016 20:00 -0,1 C -0,9 C 95 % 1026,9 hPa 0,0 mm 10,1 km/h (2 Bft) O-NO 67 0 min -0,8 C 11,6 km/h (2 Bft)
16.02.2016 20:01 -0,1 C -0,8 C 95 % 1026,9 hPa 0,0 mm 8,9 km/h (2 Bft) N-NO 22 0 min -0,8 C 10,4 km/h (2 Bft)
16.02.2016 20:02 -0,1 C -0,8 C 95 % 1026,9 hPa 0,0 mm 8,9 km/h (2 Bft) N-NO 22 0 min -0,8 C 10,4 km/h (2 Bft)
16.02.2016 20:03 -0,1 C -0,7 C 95 % 1026,7 hPa 0,0 mm 8,0 km/h (2 Bft) O-NO 67 0 min -0,8 C 5,7 km/h (1 Bft)
16.02.2016 20:04 -0,1 C -0,7 C 95 % 1026,7 hPa 0,0 mm 8,0 km/h (2 Bft) O-NO 67 0 min -0,8 C 5,7 km/h (1 Bft)
16.02.2016 20:05 -0,1 C -0,7 C 95 % 1026,7 hPa 0,0 mm 7,7 km/h (2 Bft) SO 135 0 min -0,8 C 14,3 km/h (3 Bft)
16.02.2016 20:07 -0,1 C -0,7 C 95 % 1026,7 hPa 0,0 mm 7,5 km/h (2 Bft) O 90 0 min -0,8 C 9,8 km/h (2 Bft)
16.02.2016 20:08 -0,1 C -0,7 C 95 % 1026,7 hPa 0,0 mm 7,5 km/h (2 Bft) O 90 0 min -0,8 C 9,8 km/h (2 Bft)
16.02.2016 20:09 -0,1 C -0,6 C 95 % 1026,7 hPa 0,0 mm 7,2 km/h (2 Bft) N-NO 22 0 min -0,8 C 11,6 km/h (2 Bft)
16.02.2016 20:10 -0,1 C -0,6 C 95 % 1026,7 hPa 0,0 mm 7,2 km/h (2 Bft) N-NO 22 0 min -0,8 C 11,6 km/h (2 Bft)
16.02.2016 20:11 -0,1 C -0,7 C 95 % 1026,7 hPa 0,0 mm 7,7 km/h (2 Bft) N-NO 22 0 min -0,8 C 14,9 km/h (3 Bft)
16.02.2016 20:12 -0,1 C -0,7 C 95 % 1026,7 hPa 0,0 mm 7,7 km/h (2 Bft) N-NO 22 0 min -0,8 C 14,9 km/h (3 Bft)
16.02.2016 20:13 -0,1 C -0,7 C 95 % 1026,7 hPa 0,0 mm 7,7 km/h (2 Bft) W 270 0 min -0,8 C 15,5 km/h (3 Bft)
16.02.2016 20:14 -0,1 C -0,7 C 95 % 1026,7 hPa 0,0 mm 7,7 km/h (2 Bft) W 270 0 min -0,8 C 15,5 km/h (3 Bft)
16.02.2016 20:15 -0,1 C -0,8 C 95 % 1026,7 hPa 0,0 mm 8,6 km/h (2 Bft) O-NO 67 0 min -0,8 C 10,4 km/h (2 Bft)
16.02.2016 20:16 -0,1 C -0,8 C 95 % 1026,7 hPa 0,0 mm 8,6 km/h (2 Bft) O-NO 67 0 min -0,8 C 10,4 km/h (2 Bft)
16.02.2016 20:17 -0,1 C -0,8 C 95 % 1026,7 hPa 0,0 mm 8,6 km/h (2 Bft) N-NO 22 0 min -0,8 C 6,9 km/h (2 Bft)
16.02.2016 20:18 -0,1 C -0,8 C 95 % 1026,7 hPa 0,0 mm 8,6 km/h (2 Bft) N-NO 22 0 min -0,8 C 6,9 km/h (2 Bft)
16.02.2016 20:19 -0,1 C -0,8 C 95 % 1026,7 hPa 0,0 mm 8,9 km/h (2 Bft) NO 45 0 min -0,8 C 14,0 km/h (3 Bft)
16.02.2016 20:20 -0,1 C -0,8 C 95 % 1026,7 hPa 0,0 mm 8,9 km/h (2 Bft) NO 45 0 min -0,8 C 14,0 km/h (3 Bft)
16.02.2016 20:21 -0,1 C -0,9 C 95 % 1026,7 hPa 0,0 mm 9,8 km/h (2 Bft) O-NO 67 0 min -0,8 C 11,3 km/h (2 Bft)
16.02.2016 20:22 -0,1 C -0,9 C 95 % 1026,7 hPa 0,0 mm 9,8 km/h (2 Bft) O-NO 67 0 min -0,8 C 11,3 km/h (2 Bft)
16.02.2016 20:23 -0,1 C -0,8 C 95 % 1026,4 hPa 0,0 mm 9,5 km/h (2 Bft) O-NO 67 0 min -0,8 C 8,0 km/h (2 Bft)
16.02.2016 20:24 -0,1 C -0,8 C 95 % 1026,4 hPa 0,0 mm 9,5 km/h (2 Bft) O-NO 67 0 min -0,8 C 8,0 km/h (2 Bft)
16.02.2016 20:25 -0,1 C -0,8 C 95 % 1026,4 hPa 0,0 mm 8,9 km/h (2 Bft) O 90 0 min -0,8 C 9,8 km/h (2 Bft)
16.02.2016 20:26 -0,1 C -0,8 C 95 % 1026,4 hPa 0,0 mm 8,9 km/h (2 Bft) O 90 0 min -0,8 C 9,8 km/h (2 Bft)
16.02.2016 20:27 -0,1 C -0,8 C 95 % 1026,4 hPa 0,0 mm 9,5 km/h (2 Bft) O-NO 67 0 min -0,8 C 11,3 km/h (2 Bft)
16.02.2016 20:28 -0,1 C -0,8 C 95 % 1026,4 hPa 0,0 mm 9,5 km/h (2 Bft) O-NO 67 0 min -0,8 C 11,3 km/h (2 Bft)
16.02.2016 20:29 -0,1 C -0,9 C 95 % 1026,4 hPa 0,0 mm 10,1 km/h (2 Bft) O-NO 67 0 min -0,8 C 12,8 km/h (3 Bft)
16.02.2016 20:30 -0,1 C -0,9 C 95 % 1026,4 hPa 0,0 mm 10,1 km/h (2 Bft) O-NO 67 0 min -0,8 C 12,8 km/h (3 Bft)
16.02.2016 20:31 -0,1 C -0,9 C 95 % 1026,4 hPa 0,0 mm 10,4 km/h (2 Bft) O-NO 67 0 min -0,8 C 13,4 km/h (3 Bft)
16.02.2016 20:32 -0,1 C -0,9 C 95 % 1026,4 hPa 0,0 mm 10,4 km/h (2 Bft) O-NO 67 0 min -0,8 C 13,4 km/h (3 Bft)
16.02.2016 20:33 -0,1 C -0,9 C 95 % 1026,4 hPa 0,0 mm 10,1 km/h (2 Bft) O-NO 67 0 min -0,8 C 16,7 km/h (3 Bft)
16.02.2016 20:34 -0,1 C -0,9 C 95 % 1026,4 hPa 0,0 mm 10,1 km/h (2 Bft) O-NO 67 0 min -0,8 C 26,5 km/h (4 Bft)
16.02.2016 20:35 -0,1 C -1,1 C 95 % 1026,4 hPa 0,0 mm 12,2 km/h (2 Bft) O-NO 67 0 min -0,8 C 24,4 km/h (4 Bft)
16.02.2016 20:36 -0,1 C -1,1 C 95 % 1026,4 hPa 0,0 mm 12,2 km/h (2 Bft) O-NO 67 0 min -0,8 C 24,4 km/h (4 Bft)
16.02.2016 20:37 -0,1 C -1,0 C 95 % 1026,4 hPa 0,0 mm 11,9 km/h (2 Bft) NO 45 0 min -0,8 C 15,2 km/h (3 Bft)
16.02.2016 20:38 -0,1 C -1,0 C 95 % 1026,4 hPa 0,0 mm 11,9 km/h (2 Bft) NO 45 0 min -0,8 C 15,2 km/h (3 Bft)
16.02.2016 20:39 -0,1 C -1,0 C 95 % 1026,4 hPa 0,0 mm 11,9 km/h (2 Bft) NO 45 0 min -0,8 C 13,7 km/h (3 Bft)
16.02.2016 20:40 -0,1 C -1,0 C 95 % 1026,4 hPa 0,0 mm 11,9 km/h (2 Bft) NO 45 0 min -0,8 C 13,7 km/h (3 Bft)
16.02.2016 20:41 -0,1 C -1,0 C 95 % 1026,4 hPa 0,0 mm 11,6 km/h (2 Bft) O-NO 67 0 min -0,8 C 10,4 km/h (2 Bft)
16.02.2016 20:42 -0,1 C -1,0 C 95 % 1026,4 hPa 0,0 mm 11,6 km/h (2 Bft) O-NO 67 0 min -0,8 C 10,4 km/h (2 Bft)
16.02.2016 20:43 -0,1 C -1,1 C 95 % 1026,0 hPa 0,0 mm 12,2 km/h (2 Bft) N-NO 22 0 min -0,8 C 16,7 km/h (3 Bft)
16.02.2016 20:44 -0,1 C -1,1 C 95 % 1026,0 hPa 0,0 mm 12,2 km/h (2 Bft) N-NO 22 0 min -0,8 C 16,7 km/h (3 Bft)
16.02.2016 20:45 -0,1 C -1,0 C 95 % 1026,0 hPa 0,0 mm 11,3 km/h (2 Bft) O-SO 112 0 min -0,8 C 6,6 km/h (2 Bft)
16.02.2016 20:46 -0,1 C -1,0 C 95 % 1026,0 hPa 0,0 mm 11,3 km/h (2 Bft) O-SO 112 0 min -0,8 C 6,6 km/h (2 Bft)
16.02.2016 20:47 -0,1 C -0,9 C 95 % 1026,0 hPa 0,0 mm 10,4 km/h (2 Bft) O-NO 67 0 min -0,8 C 13,4 km/h (3 Bft)
16.02.2016 20:48 -0,1 C -0,9 C 95 % 1026,0 hPa 0,0 mm 10,4 km/h (2 Bft) O-NO 67 0 min -0,8 C 13,4 km/h (3 Bft)
16.02.2016 20:49 -0,1 C -0,9 C 95 % 1026,0 hPa 0,0 mm 10,1 km/h (2 Bft) O-NO 67 0 min -0,8 C 8,6 km/h (2 Bft)
16.02.2016 20:50 -0,1 C -0,9 C 95 % 1026,0 hPa 0,0 mm 10,1 km/h (2 Bft) O-NO 67 0 min -0,8 C 8,6 km/h (2 Bft)
16.02.2016 20:51 -0,1 C -0,9 C 95 % 1026,0 hPa 0,0 mm 9,8 km/h (2 Bft) N-NO 22 0 min -0,8 C 11,0 km/h (2 Bft)
16.02.2016 20:52 -0,1 C -0,9 C 95 % 1026,0 hPa 0,0 mm 9,8 km/h (2 Bft) N-NO 22 0 min -0,8 C 11,0 km/h (2 Bft)
16.02.2016 20:53 -0,1 C -0,8 C 95 % 1026,0 hPa 0,0 mm 9,2 km/h (2 Bft) SO 135 0 min -0,8 C 10,1 km/h (2 Bft)
16.02.2016 20:54 -0,1 C -0,8 C 95 % 1026,0 hPa 0,0 mm 9,2 km/h (2 Bft) SO 135 0 min -0,8 C 10,1 km/h (2 Bft)
16.02.2016 20:55 -0,1 C -0,7 C 95 % 1026,0 hPa 0,0 mm 7,7 km/h (2 Bft) NO 45 0 min -0,8 C 12,8 km/h (3 Bft)
16.02.2016 20:56 -0,1 C -0,7 C 95 % 1026,0 hPa 0,0 mm 7,7 km/h (2 Bft) NO 45 0 min -0,8 C 12,8 km/h (3 Bft)
16.02.2016 20:57 -0,1 C -0,7 C 95 % 1026,0 hPa 0,0 mm 7,7 km/h (2 Bft) NW 315 0 min -0,8 C 6,9 km/h (2 Bft)
16.02.2016 20:58 -0,1 C -0,7 C 95 % 1026,0 hPa 0,0 mm 7,7 km/h (2 Bft) NW 315 0 min -0,8 C 6,9 km/h (2 Bft)
16.02.2016 20:59 -0,1 C -0,7 C 95 % 1026,0 hPa 0,0 mm 7,5 km/h (2 Bft) O-NO 67 0 min -0,8 C 10,7 km/h (2 Bft)
16.02.2016 21:00 -0,1 C -0,7 C 95 % 1026,0 hPa 0,0 mm 7,5 km/h (2 Bft) O-NO 67 0 min -0,8 C 10,7 km/h (2 Bft)
16.02.2016 21:01 -0,1 C -0,7 C 95 % 1026,0 hPa 0,0 mm 7,7 km/h (2 Bft) O-NO 67 0 min -0,8 C 13,4 km/h (3 Bft)
16.02.2016 21:02 -0,1 C -0,7 C 95 % 1026,0 hPa 0,0 mm 7,7 km/h (2 Bft) O-NO 67 0 min -0,8 C 13,4 km/h (3 Bft)
16.02.2016 21:03 -0,1 C -0,7 C 95 % 1025,9 hPa 0,0 mm 8,0 km/h (2 Bft) O-SO 112 0 min -0,8 C 11,3 km/h (2 Bft)
16.02.2016 21:04 -0,1 C -0,7 C 95 % 1025,9 hPa 0,0 mm 8,0 km/h (2 Bft) O-SO 112 0 min -0,8 C 11,3 km/h (2 Bft)
16.02.2016 21:05 -0,1 C -0,8 C 95 % 1025,9 hPa 0,0 mm 8,3 km/h (2 Bft) O-NO 67 0 min -0,8 C 13,4 km/h (3 Bft)
16.02.2016 21:06 -0,1 C -0,8 C 95 % 1025,9 hPa 0,0 mm 8,3 km/h (2 Bft) O-NO 67 0 min -0,8 C 13,4 km/h (3 Bft)
16.02.2016 21:07 -0,1 C -0,8 C 95 % 1025,9 hPa 0,0 mm 8,9 km/h (2 Bft) O-NO 67 0 min -0,8 C 15,5 km/h (3 Bft)
16.02.2016 21:08 -0,1 C -0,8 C 95 % 1025,9 hPa 0,0 mm 8,9 km/h (2 Bft) O-NO 67 0 min -0,8 C 15,5 km/h (3 Bft)
16.02.2016 21:09 -0,1 C -0,8 C 95 % 1025,9 hPa 0,0 mm 8,9 km/h (2 Bft) NO 45 0 min -0,8 C 12,5 km/h (3 Bft)
16.02.2016 21:10 -0,1 C -0,8 C 95 % 1025,9 hPa 0,0 mm 8,9 km/h (2 Bft) NO 45 0 min -0,8 C 12,5 km/h (3 Bft)
16.02.2016 21:11 -0,1 C -0,8 C 95 % 1025,9 hPa 0,0 mm 8,3 km/h (2 Bft) O-SO 112 0 min -0,8 C 5,7 km/h (1 Bft)
16.02.2016 21:12 -0,1 C -0,8 C 95 % 1025,9 hPa 0,0 mm 8,3 km/h (2 Bft) O-SO 112 0 min -0,8 C 5,7 km/h (1 Bft)
16.02.2016 21:13 -0,1 C -0,7 C 95 % 1025,9 hPa 0,0 mm 7,7 km/h (2 Bft) O-NO 67 0 min -0,8 C 5,1 km/h (1 Bft)
16.02.2016 21:14 -0,1 C -0,7 C 95 % 1025,9 hPa 0,0 mm 7,7 km/h (2 Bft) O-NO 67 0 min -0,8 C 5,1 km/h (1 Bft)
16.02.2016 21:15 -0,1 C -0,6 C 95 % 1025,9 hPa 0,0 mm 7,2 km/h (2 Bft) O-SO 112 0 min -0,8 C 10,7 km/h (2 Bft)
16.02.2016 21:16 -0,1 C -0,6 C 95 % 1025,9 hPa 0,0 mm 7,2 km/h (2 Bft) O-SO 112 0 min -0,8 C 10,7 km/h (2 Bft)
16.02.2016 21:17 -0,1 C -0,6 C 95 % 1025,9 hPa 0,0 mm 6,9 km/h (2 Bft) O-NO 67 0 min -0,8 C 13,7 km/h (3 Bft)
16.02.2016 21:18 -0,1 C -0,6 C 95 % 1025,9 hPa 0,0 mm 6,9 km/h (2 Bft) O-NO 67 0 min -0,8 C 13,7 km/h (3 Bft)
16.02.2016 21:19 -0,1 C -0,5 C 95 % 1025,9 hPa 0,0 mm 6,3 km/h (2 Bft) O 90 0 min -0,8 C 6,6 km/h (2 Bft)
16.02.2016 21:20 -0,1 C -0,5 C 95 % 1025,9 hPa 0,0 mm 6,3 km/h (2 Bft) O 90 0 min -0,8 C 6,6 km/h (2 Bft)
16.02.2016 21:21 -0,1 C -0,5 C 95 % 1025,9 hPa 0,0 mm 6,6 km/h (2 Bft) NO 45 0 min -0,8 C 14,6 km/h (3 Bft)
16.02.2016 21:22 -0,1 C -0,5 C 95 % 1025,9 hPa 0,0 mm 6,6 km/h (2 Bft) NO 45 0 min -0,8 C 14,6 km/h (3 Bft)
16.02.2016 21:23 -0,1 C -0,7 C 95 % 1025,7 hPa 0,0 mm 7,5 km/h (2 Bft) O 90 0 min -0,8 C 8,9 km/h (2 Bft)
16.02.2016 21:24 -0,1 C -0,7 C 95 % 1025,7 hPa 0,0 mm 7,5 km/h (2 Bft) O 90 0 min -0,8 C 8,9 km/h (2 Bft)
16.02.2016 21:25 -0,1 C -0,7 C 95 % 1025,7 hPa 0,0 mm 7,7 km/h (2 Bft) SO 135 0 min -0,8 C 5,7 km/h (1 Bft)
16.02.2016 21:26 -0,1 C -0,7 C 95 % 1025,7 hPa 0,0 mm 7,7 km/h (2 Bft) SO 135 0 min -0,8 C 5,7 km/h (1 Bft)
16.02.2016 21:27 -0,1 C -0,7 C 95 % 1025,7 hPa 0,0 mm 8,0 km/h (2 Bft) SO 135 0 min -0,8 C 15,2 km/h (3 Bft)
16.02.2016 21:28 -0,1 C -0,7 C 95 % 1025,7 hPa 0,0 mm 8,0 km/h (2 Bft) SO 135 0 min -0,8 C 15,2 km/h (3 Bft)
16.02.2016 21:29 -0,1 C -0,8 C 95 % 1025,7 hPa 0,0 mm 8,0 km/h (2 Bft) NO 45 0 min -0,8 C 11,3 km/h (2 Bft)
16.02.2016 21:30 -0,1 C -0,8 C 95 % 1025,7 hPa 0,0 mm 8,0 km/h (2 Bft) NO 45 0 min -0,8 C 11,3 km/h (2 Bft)
16.02.2016 21:31 -0,1 C -0,8 C 95 % 1025,7 hPa 0,0 mm 8,6 km/h (2 Bft) O 90 0 min -0,8 C 7,2 km/h (2 Bft)
16.02.2016 21:32 -0,1 C -0,8 C 95 % 1025,7 hPa 0,0 mm 8,6 km/h (2 Bft) O 90 0 min -0,8 C 7,2 km/h (2 Bft)
16.02.2016 21:33 -0,1 C -0,7 C 95 % 1025,7 hPa 0,0 mm 7,7 km/h (2 Bft) O-NO 67 0 min -0,8 C 5,1 km/h (1 Bft)
16.02.2016 21:34 -0,1 C -0,7 C 95 % 1025,7 hPa 0,0 mm 7,7 km/h (2 Bft) O-NO 67 0 min -0,8 C 5,1 km/h (1 Bft)
16.02.2016 21:35 -0,1 C -0,7 C 95 % 1025,7 hPa 0,0 mm 7,2 km/h (2 Bft) NO 45 0 min -0,8 C 8,6 km/h (2 Bft)
16.02.2016 21:36 -0,1 C -0,7 C 95 % 1025,7 hPa 0,0 mm 7,2 km/h (2 Bft) NO 45 0 min -0,8 C 8,6 km/h (2 Bft)
16.02.2016 21:37 -0,1 C -0,7 C 95 % 1025,7 hPa 0,0 mm 7,2 km/h (2 Bft) O-NO 67 0 min -0,8 C 14,6 km/h (3 Bft)
16.02.2016 21:38 -0,1 C -0,7 C 95 % 1025,7 hPa 0,0 mm 7,2 km/h (2 Bft) O-NO 67 0 min -0,8 C 14,6 km/h (3 Bft)
16.02.2016 21:39 -0,2 C -0,7 C 90 % 1025,7 hPa 0,0 mm 7,7 km/h (2 Bft) NO 45 0 min -1,6 C 11,3 km/h (2 Bft)
16.02.2016 21:40 -0,2 C -0,7 C 90 % 1025,7 hPa 0,0 mm 7,7 km/h (2 Bft) NO 45 0 min -1,6 C 11,3 km/h (2 Bft)
16.02.2016 21:41 -0,2 C -0,7 C 90 % 1025,7 hPa 0,0 mm 7,2 km/h (2 Bft) O-NO 67 0 min -1,6 C 7,5 km/h (2 Bft)
16.02.2016 21:42 -0,2 C -0,7 C 90 % 1025,7 hPa 0,0 mm 7,2 km/h (2 Bft) O-NO 67 0 min -1,6 C 7,5 km/h (2 Bft)
16.02.2016 21:43 -0,2 C -0,8 C 95 % 1025,5 hPa 0,0 mm 8,0 km/h (2 Bft) O-NO 67 0 min -0,9 C 11,9 km/h (2 Bft)
16.02.2016 21:44 -0,2 C -0,8 C 95 % 1025,5 hPa 0,0 mm 8,0 km/h (2 Bft) O-NO 67 0 min -0,9 C 11,9 km/h (2 Bft)
16.02.2016 21:45 -0,2 C -1,0 C 95 % 1025,5 hPa 0,0 mm 9,5 km/h (2 Bft) O-NO 67 0 min -0,9 C 19,1 km/h (3 Bft)
16.02.2016 21:46 -0,2 C -1,0 C 95 % 1025,5 hPa 0,0 mm 9,5 km/h (2 Bft) O-NO 67 0 min -0,9 C 19,1 km/h (3 Bft)
16.02.2016 21:47 -0,2 C -1,0 C 95 % 1025,5 hPa 0,0 mm 9,5 km/h (2 Bft) NO 45 0 min -0,9 C 6,3 km/h (2 Bft)
16.02.2016 21:48 -0,2 C -1,0 C 95 % 1025,5 hPa 0,0 mm 9,5 km/h (2 Bft) NO 45 0 min -0,9 C 6,3 km/h (2 Bft)
16.02.2016 21:49 -0,2 C -0,9 C 95 % 1025,5 hPa 0,0 mm 9,2 km/h (2 Bft) O-NO 67 0 min -0,9 C 6,3 km/h (2 Bft)
16.02.2016 21:50 -0,2 C -0,9 C 95 % 1025,5 hPa 0,0 mm 9,2 km/h (2 Bft) O-NO 67 0 min -0,9 C 6,3 km/h (2 Bft)
16.02.2016 21:51 -0,2 C -0,9 C 95 % 1025,5 hPa 0,0 mm 8,6 km/h (2 Bft) O-SO 112 0 min -0,9 C 10,7 km/h (2 Bft)
16.02.2016 21:52 -0,2 C -0,9 C 95 % 1025,5 hPa 0,0 mm 8,6 km/h (2 Bft) O-SO 112 0 min -0,9 C 10,7 km/h (2 Bft)
16.02.2016 21:53 -0,2 C -0,9 C 95 % 1025,5 hPa 0,0 mm 8,9 km/h (2 Bft) O-NO 67 0 min -0,9 C 7,5 km/h (2 Bft)
16.02.2016 21:54 -0,2 C -0,9 C 95 % 1025,5 hPa 0,0 mm 8,9 km/h (2 Bft) O-NO 67 0 min -0,9 C 7,5 km/h (2 Bft)
16.02.2016 21:55 -0,2 C -0,9 C 95 % 1025,5 hPa 0,0 mm 8,6 km/h (2 Bft) O-NO 67 0 min -0,9 C 17,3 km/h (3 Bft)
16.02.2016 21:56 -0,2 C -0,9 C 95 % 1025,5 hPa 0,0 mm 8,6 km/h (2 Bft) O-NO 67 0 min -0,9 C 17,3 km/h (3 Bft)
16.02.2016 21:57 -0,2 C -0,9 C 95 % 1025,5 hPa 0,0 mm 8,3 km/h (2 Bft) O-NO 67 0 min -0,9 C 14,9 km/h (3 Bft)
16.02.2016 21:58 -0,2 C -0,9 C 95 % 1025,5 hPa 0,0 mm 8,3 km/h (2 Bft) O-NO 67 0 min -0,9 C 14,9 km/h (3 Bft)
16.02.2016 21:59 -0,2 C -0,9 C 95 % 1025,5 hPa 0,0 mm 8,0 km/h (2 Bft) O 90 0 min -0,9 C 8,6 km/h (2 Bft)
16.02.2016 22:00 -0,2 C -0,9 C 95 % 1025,5 hPa 0,0 mm 8,0 km/h (2 Bft) O 90 0 min -0,9 C 8,6 km/h (2 Bft)
16.02.2016 22:01 -0,2 C -0,9 C 95 % 1025,5 hPa 0,0 mm 8,9 km/h (2 Bft) O-SO 112 0 min -0,9 C 13,4 km/h (3 Bft)
16.02.2016 22:02 -0,2 C -0,9 C 95 % 1025,5 hPa 0,0 mm 8,9 km/h (2 Bft) O-SO 112 0 min -0,9 C 13,4 km/h (3 Bft)
16.02.2016 22:03 -0,2 C -1,0 C 95 % 1025,2 hPa 0,0 mm 9,5 km/h (2 Bft) NO 45 0 min -0,9 C 9,2 km/h (2 Bft)
16.02.2016 22:04 -0,2 C -1,0 C 95 % 1025,2 hPa 0,0 mm 9,5 km/h (2 Bft) NO 45 0 min -0,9 C 9,2 km/h (2 Bft)
16.02.2016 22:05 -0,2 C -1,0 C 95 % 1025,2 hPa 0,0 mm 9,5 km/h (2 Bft) O-NO 67 0 min -0,9 C 11,3 km/h (2 Bft)
16.02.2016 22:06 -0,2 C -1,0 C 95 % 1025,2 hPa 0,0 mm 9,5 km/h (2 Bft) O-NO 67 0 min -0,9 C 11,3 km/h (2 Bft)
16.02.2016 22:07 -0,2 C -1,0 C 95 % 1025,2 hPa 0,0 mm 10,1 km/h (2 Bft) NO 45 0 min -0,9 C 12,8 km/h (3 Bft)
16.02.2016 22:08 -0,2 C -1,0 C 95 % 1025,2 hPa 0,0 mm 10,1 km/h (2 Bft) NO 45 0 min -0,9 C 12,8 km/h (3 Bft)
16.02.2016 22:09 -0,2 C -1,0 C 95 % 1025,2 hPa 0,0 mm 9,8 km/h (2 Bft) NO 45 0 min -0,9 C 9,8 km/h (2 Bft)
16.02.2016 22:10 -0,2 C -1,0 C 95 % 1025,2 hPa 0,0 mm 9,8 km/h (2 Bft) NO 45 0 min -0,9 C 9,8 km/h (2 Bft)
16.02.2016 22:11 -0,2 C -1,0 C 95 % 1025,2 hPa 0,0 mm 10,1 km/h (2 Bft) O 90 0 min -0,9 C 17,3 km/h (3 Bft)
16.02.2016 22:12 -0,2 C -1,0 C 95 % 1025,2 hPa 0,0 mm 10,1 km/h (2 Bft) O 90 0 min -0,9 C 17,3 km/h (3 Bft)
16.02.2016 22:13 -0,3 C -1,0 C 95 % 1025,2 hPa 0,0 mm 8,9 km/h (2 Bft) O-SO 112 0 min -1,0 C 11,0 km/h (2 Bft)
16.02.2016 22:14 -0,3 C -1,0 C 95 % 1025,2 hPa 0,0 mm 8,9 km/h (2 Bft) O-SO 112 0 min -1,0 C 11,0 km/h (2 Bft)
16.02.2016 22:15 -0,3 C -1,1 C 95 % 1025,2 hPa 0,0 mm 9,5 km/h (2 Bft) O-NO 67 0 min -1,0 C 17,3 km/h (3 Bft)
16.02.2016 22:16 -0,3 C -1,1 C 95 % 1025,2 hPa 0,0 mm 9,5 km/h (2 Bft) O-NO 67 0 min -1,0 C 17,3 km/h (3 Bft)
16.02.2016 22:17 -0,3 C -1,1 C 95 % 1025,2 hPa 0,0 mm 9,8 km/h (2 Bft) NO 45 0 min -1,0 C 11,3 km/h (2 Bft)
16.02.2016 22:18 -0,3 C -1,1 C 95 % 1025,2 hPa 0,0 mm 9,8 km/h (2 Bft) NO 45 0 min -1,0 C 11,3 km/h (2 Bft)
16.02.2016 22:19 -0,3 C -1,1 C 95 % 1025,2 hPa 0,0 mm 9,5 km/h (2 Bft) O-NO 67 0 min -1,0 C 11,9 km/h (2 Bft)
16.02.2016 22:20 -0,3 C -1,1 C 95 % 1025,2 hPa 0,0 mm 9,5 km/h (2 Bft) O-NO 67 0 min -1,0 C 11,9 km/h (2 Bft)
16.02.2016 22:21 -0,3 C -1,1 C 95 % 1025,2 hPa 0,0 mm 9,8 km/h (2 Bft) O-NO 67 0 min -1,0 C 12,2 km/h (2 Bft)
16.02.2016 22:22 -0,3 C -1,1 C 95 % 1025,2 hPa 0,0 mm 9,8 km/h (2 Bft) O-NO 67 0 min -1,0 C 12,2 km/h (2 Bft)
16.02.2016 22:23 -0,3 C -1,1 C 95 % 1025,0 hPa 0,0 mm 10,1 km/h (2 Bft) O 90 0 min -1,0 C 14,3 km/h (3 Bft)
16.02.2016 22:24 -0,3 C -1,1 C 95 % 1025,0 hPa 0,0 mm 10,1 km/h (2 Bft) O 90 0 min -1,0 C 14,3 km/h (3 Bft)
16.02.2016 22:25 -0,3 C -1,1 C 95 % 1025,0 hPa 0,0 mm 9,2 km/h (2 Bft) O-NO 67 0 min -1,0 C 11,6 km/h (2 Bft)
16.02.2016 22:26 -0,3 C -1,1 C 95 % 1025,0 hPa 0,0 mm 9,2 km/h (2 Bft) O-NO 67 0 min -1,0 C 11,6 km/h (2 Bft)
16.02.2016 22:27 -0,3 C -1,1 C 95 % 1025,0 hPa 0,0 mm 9,8 km/h (2 Bft) O-NO 67 0 min -1,0 C 21,2 km/h (4 Bft)
16.02.2016 22:28 -0,3 C -1,1 C 95 % 1025,0 hPa 0,0 mm 9,8 km/h (2 Bft) O-NO 67 0 min -1,0 C 21,2 km/h (4 Bft)
16.02.2016 22:29 -0,3 C -1,1 C 95 % 1025,0 hPa 0,0 mm 9,2 km/h (2 Bft) N-NO 22 0 min -1,0 C 6,3 km/h (2 Bft)
16.02.2016 22:30 -0,3 C -1,1 C 95 % 1025,0 hPa 0,0 mm 9,2 km/h (2 Bft) N-NO 22 0 min -1,0 C 6,3 km/h (2 Bft)
16.02.2016 22:31 -0,3 C -1,1 C 95 % 1025,0 hPa 0,0 mm 9,2 km/h (2 Bft) O-NO 67 0 min -1,0 C 14,0 km/h (3 Bft)
16.02.2016 22:32 -0,3 C -1,1 C 95 % 1025,0 hPa 0,0 mm 9,2 km/h (2 Bft) O-NO 67 0 min -1,0 C 14,0 km/h (3 Bft)
16.02.2016 22:33 -0,3 C -1,1 C 95 % 1025,0 hPa 0,0 mm 9,5 km/h (2 Bft) O-NO 67 0 min -1,0 C 12,5 km/h (3 Bft)
16.02.2016 22:34 -0,3 C -1,1 C 95 % 1025,0 hPa 0,0 mm 9,5 km/h (2 Bft) O-NO 67 0 min -1,0 C 12,5 km/h (3 Bft)
16.02.2016 22:35 -0,3 C -1,1 C 95 % 1025,0 hPa 0,0 mm 9,2 km/h (2 Bft) O-NO 67 0 min -1,0 C 11,3 km/h (2 Bft)
16.02.2016 22:36 -0,3 C -1,1 C 95 % 1025,0 hPa 0,0 mm 9,2 km/h (2 Bft) O-NO 67 0 min -1,0 C 11,3 km/h (2 Bft)
16.02.2016 22:37 -0,3 C -1,0 C 95 % 1025,0 hPa 0,0 mm 8,6 km/h (2 Bft) N-NW 337 0 min -1,0 C 7,7 km/h (2 Bft)
16.02.2016 22:38 -0,3 C -1,0 C 95 % 1025,0 hPa 0,0 mm 8,6 km/h (2 Bft) N-NW 337 0 min -1,0 C 7,7 km/h (2 Bft)
16.02.2016 22:39 -0,3 C -1,0 C 95 % 1025,0 hPa 0,0 mm 8,0 km/h (2 Bft) NO 45 0 min -1,0 C 5,4 km/h (1 Bft)
16.02.2016 22:40 -0,3 C -1,0 C 95 % 1025,0 hPa 0,0 mm 8,0 km/h (2 Bft) NO 45 0 min -1,0 C 5,4 km/h (1 Bft)
16.02.2016 22:41 -0,4 C -1,0 C 95 % 1025,0 hPa 0,0 mm 8,0 km/h (2 Bft) O 90 0 min -1,1 C 9,8 km/h (2 Bft)
16.02.2016 22:42 -0,4 C -1,0 C 95 % 1025,0 hPa 0,0 mm 8,0 km/h (2 Bft) O 90 0 min -1,1 C 9,8 km/h (2 Bft)
16.02.2016 22:43 -0,4 C -1,0 C 95 % 1024,6 hPa 0,0 mm 7,5 km/h (2 Bft) O-NO 67 0 min -1,1 C 6,9 km/h (2 Bft)
16.02.2016 22:44 -0,4 C -1,0 C 95 % 1024,6 hPa 0,0 mm 7,5 km/h (2 Bft) O-NO 67 0 min -1,1 C 6,9 km/h (2 Bft)
16.02.2016 22:45 -0,4 C -0,9 C 95 % 1024,6 hPa 0,0 mm 7,2 km/h (2 Bft) NO 45 0 min -1,1 C 8,6 km/h (2 Bft)
16.02.2016 22:46 -0,4 C -0,9 C 95 % 1024,6 hPa 0,0 mm 7,2 km/h (2 Bft) NO 45 0 min -1,1 C 8,6 km/h (2 Bft)
16.02.2016 22:47 -0,4 C -1,0 C 95 % 1024,6 hPa 0,0 mm 8,0 km/h (2 Bft) SW 225 0 min -1,1 C 14,0 km/h (3 Bft)
16.02.2016 22:48 -0,4 C -1,0 C 95 % 1024,6 hPa 0,0 mm 8,0 km/h (2 Bft) SW 225 0 min -1,1 C 14,0 km/h (3 Bft)
16.02.2016 22:49 -0,4 C -1,0 C 95 % 1024,6 hPa 0,0 mm 7,7 km/h (2 Bft) O-NO 67 0 min -1,1 C 6,9 km/h (2 Bft)
16.02.2016 22:50 -0,4 C -1,0 C 95 % 1024,6 hPa 0,0 mm 7,7 km/h (2 Bft) O-NO 67 0 min -1,1 C 6,9 km/h (2 Bft)
16.02.2016 22:51 -0,4 C -1,1 C 95 % 1024,6 hPa 0,0 mm 8,6 km/h (2 Bft) NO 45 0 min -1,1 C 14,6 km/h (3 Bft)
16.02.2016 22:52 -0,4 C -1,1 C 95 % 1024,6 hPa 0,0 mm 8,6 km/h (2 Bft) NO 45 0 min -1,1 C 14,6 km/h (3 Bft)
16.02.2016 22:53 -0,5 C -1,1 C 90 % 1024,6 hPa 0,0 mm 8,6 km/h (2 Bft) O-NO 67 0 min -1,9 C 7,2 km/h (2 Bft)
16.02.2016 22:54 -0,5 C -1,1 C 90 % 1024,6 hPa 0,0 mm 8,6 km/h (2 Bft) O-NO 67 0 min -1,9 C 7,2 km/h (2 Bft)
16.02.2016 22:55 -0,5 C -1,2 C 90 % 1024,6 hPa 0,0 mm 9,5 km/h (2 Bft) O-NO 67 0 min -1,9 C 14,0 km/h (3 Bft)
16.02.2016 22:56 -0,5 C -1,2 C 90 % 1024,6 hPa 0,0 mm 9,5 km/h (2 Bft) O-NO 67 0 min -1,9 C 14,0 km/h (3 Bft)
16.02.2016 22:57 -0,5 C -1,2 C 90 % 1024,6 hPa 0,0 mm 8,9 km/h (2 Bft) NO 45 0 min -1,9 C 13,1 km/h (3 Bft)
16.02.2016 22:58 -0,5 C -1,2 C 90 % 1024,6 hPa 0,0 mm 8,9 km/h (2 Bft) NO 45 0 min -1,9 C 13,1 km/h (3 Bft)
16.02.2016 22:59 -0,5 C -1,1 C 90 % 1024,6 hPa 0,0 mm 8,6 km/h (2 Bft) O-NO 67 0 min -1,9 C 12,5 km/h (3 Bft)
16.02.2016 23:00 -0,5 C -1,1 C 90 % 1024,6 hPa 0,0 mm 8,6 km/h (2 Bft) O-NO 67 0 min -1,9 C 12,5 km/h (3 Bft)
16.02.2016 23:01 -0,5 C -1,2 C 90 % 1024,6 hPa 0,0 mm 8,9 km/h (2 Bft) O 90 0 min -1,9 C 4,5 km/h (1 Bft)
16.02.2016 23:02 -0,5 C -1,2 C 90 % 1024,6 hPa 0,0 mm 8,9 km/h (2 Bft) O 90 0 min -1,9 C 4,5 km/h (1 Bft)
16.02.2016 23:03 -0,5 C -1,0 C 90 % 1024,4 hPa 0,0 mm 7,7 km/h (2 Bft) O-SO 112 0 min -1,9 C 10,4 km/h (2 Bft)
16.02.2016 23:04 -0,5 C -1,0 C 90 % 1024,4 hPa 0,0 mm 7,7 km/h (2 Bft) O-SO 112 0 min -1,9 C 10,4 km/h (2 Bft)
16.02.2016 23:05 -0,5 C -1,1 C 90 % 1024,4 hPa 0,0 mm 8,0 km/h (2 Bft) O-NO 67 0 min -1,9 C 11,9 km/h (2 Bft)
16.02.2016 23:06 -0,5 C -1,1 C 90 % 1024,4 hPa 0,0 mm 8,0 km/h (2 Bft) O-NO 67 0 min -1,9 C 11,9 km/h (2 Bft)
16.02.2016 23:07 -0,5 C -1,1 C 96 % 1024,4 hPa 0,0 mm 7,5 km/h (2 Bft) O-SO 112 0 min -1,1 C 8,6 km/h (2 Bft)
16.02.2016 23:08 -0,5 C -1,1 C 96 % 1024,4 hPa 0,0 mm 7,5 km/h (2 Bft) O-SO 112 0 min -1,1 C 8,6 km/h (2 Bft)
16.02.2016 23:09 -0,5 C -1,1 C 96 % 1024,4 hPa 0,0 mm 8,0 km/h (2 Bft) O-SO 112 0 min -1,1 C 12,8 km/h (3 Bft)
16.02.2016 23:10 -0,5 C -1,1 C 96 % 1024,4 hPa 0,0 mm 8,0 km/h (2 Bft) O-SO 112 0 min -1,1 C 12,8 km/h (3 Bft)
16.02.2016 23:11 -0,5 C -1,1 C 96 % 1024,4 hPa 0,0 mm 7,7 km/h (2 Bft) SO 135 0 min -1,1 C 6,9 km/h (2 Bft)
16.02.2016 23:12 -0,5 C -1,1 C 96 % 1024,4 hPa 0,0 mm 7,7 km/h (2 Bft) SO 135 0 min -1,1 C 6,9 km/h (2 Bft)
16.02.2016 23:13 -0,5 C -1,2 C 96 % 1024,4 hPa 0,0 mm 8,0 km/h (2 Bft) O-NO 67 0 min -1,1 C 8,3 km/h (2 Bft)
16.02.2016 23:14 -0,5 C -1,2 C 96 % 1024,4 hPa 0,0 mm 8,0 km/h (2 Bft) O-NO 67 0 min -1,1 C 8,3 km/h (2 Bft)
16.02.2016 23:15 -0,5 C -1,2 C 96 % 1024,4 hPa 0,0 mm 8,3 km/h (2 Bft) NO 45 0 min -1,1 C 9,2 km/h (2 Bft)
16.02.2016 23:16 -0,5 C -1,2 C 96 % 1024,4 hPa 0,0 mm 8,3 km/h (2 Bft) NO 45 0 min -1,1 C 9,2 km/h (2 Bft)
16.02.2016 23:17 -0,5 C -1,2 C 96 % 1024,4 hPa 0,0 mm 8,3 km/h (2 Bft) O-NO 67 0 min -1,1 C 13,1 km/h (3 Bft)
16.02.2016 23:18 -0,5 C -1,2 C 96 % 1024,4 hPa 0,0 mm 8,3 km/h (2 Bft) O-NO 67 0 min -1,1 C 13,1 km/h (3 Bft)
16.02.2016 23:19 -0,5 C -1,2 C 96 % 1024,4 hPa 0,0 mm 8,0 km/h (2 Bft) O-NO 67 0 min -1,1 C 7,7 km/h (2 Bft)
16.02.2016 23:20 -0,5 C -1,2 C 96 % 1024,4 hPa 0,0 mm 8,0 km/h (2 Bft) O-NO 67 0 min -1,1 C 7,7 km/h (2 Bft)
16.02.2016 23:21 -0,5 C -1,1 C 96 % 1024,4 hPa 0,0 mm 7,7 km/h (2 Bft) W-SW 247 0 min -1,1 C 6,0 km/h (2 Bft)
16.02.2016 23:22 -0,5 C -1,1 C 96 % 1024,4 hPa 0,0 mm 7,7 km/h (2 Bft) W-SW 247 0 min -1,1 C 6,0 km/h (2 Bft)
16.02.2016 23:23 -0,6 C -1,2 C 90 % 1024,0 hPa 0,0 mm 8,6 km/h (2 Bft) N-NO 22 0 min -2,0 C 14,9 km/h (3 Bft)
16.02.2016 23:24 -0,6 C -1,2 C 90 % 1024,0 hPa 0,0 mm 8,6 km/h (2 Bft) N-NO 22 0 min -2,0 C 14,9 km/h (3 Bft)
16.02.2016 23:25 -0,6 C -1,3 C 90 % 1024,0 hPa 0,0 mm 9,2 km/h (2 Bft) NO 45 0 min -2,0 C 8,3 km/h (2 Bft)
16.02.2016 23:26 -0,6 C -1,3 C 90 % 1024,0 hPa 0,0 mm 9,2 km/h (2 Bft) NO 45 0 min -2,0 C 8,3 km/h (2 Bft)
16.02.2016 23:27 -0,6 C -1,3 C 96 % 1024,0 hPa 0,0 mm 8,9 km/h (2 Bft) NO 45 0 min -1,2 C 13,1 km/h (3 Bft)
16.02.2016 23:28 -0,6 C -1,3 C 96 % 1024,0 hPa 0,0 mm 8,9 km/h (2 Bft) NO 45 0 min -1,2 C 13,1 km/h (3 Bft)
16.02.2016 23:29 -0,6 C -1,3 C 90 % 1024,0 hPa 0,0 mm 9,2 km/h (2 Bft) O-SO 112 0 min -2,0 C 8,6 km/h (2 Bft)
16.02.2016 23:30 -0,6 C -1,3 C 90 % 1024,0 hPa 0,0 mm 9,2 km/h (2 Bft) O-SO 112 0 min -2,0 C 8,6 km/h (2 Bft)
16.02.2016 23:31 -0,6 C -1,3 C 90 % 1024,0 hPa 0,0 mm 9,2 km/h (2 Bft) O-SO 112 0 min -2,0 C 6,3 km/h (2 Bft)
16.02.2016 23:32 -0,6 C -1,3 C 90 % 1024,0 hPa 0,0 mm 9,2 km/h (2 Bft) O-SO 112 0 min -2,0 C 6,3 km/h (2 Bft)
16.02.2016 23:33 -0,6 C -1,3 C 90 % 1024,0 hPa 0,0 mm 8,9 km/h (2 Bft) NO 45 0 min -2,0 C 13,7 km/h (3 Bft)
16.02.2016 23:34 -0,6 C -1,3 C 90 % 1024,0 hPa 0,0 mm 8,9 km/h (2 Bft) NO 45 0 min -2,0 C 13,7 km/h (3 Bft)
16.02.2016 23:35 -0,6 C -1,2 C 90 % 1024,0 hPa 0,0 mm 8,3 km/h (2 Bft) O 90 0 min -2,0 C 9,5 km/h (2 Bft)
16.02.2016 23:36 -0,6 C -1,2 C 90 % 1024,0 hPa 0,0 mm 8,3 km/h (2 Bft) O 90 0 min -2,0 C 9,5 km/h (2 Bft)
16.02.2016 23:37 -0,6 C -1,2 C 90 % 1024,0 hPa 0,0 mm 8,3 km/h (2 Bft) O-NO 67 0 min -2,0 C 17,9 km/h (3 Bft)
16.02.2016 23:38 -0,6 C -1,2 C 90 % 1024,0 hPa 0,0 mm 8,3 km/h (2 Bft) O-NO 67 0 min -2,0 C 17,9 km/h (3 Bft)
16.02.2016 23:39 -0,6 C -1,2 C 90 % 1024,0 hPa 0,0 mm 7,7 km/h (2 Bft) O-NO 67 0 min -2,0 C 5,7 km/h (1 Bft)
16.02.2016 23:40 -0,6 C -1,2 C 90 % 1024,0 hPa 0,0 mm 7,7 km/h (2 Bft) O-NO 67 0 min -2,0 C 5,7 km/h (1 Bft)
16.02.2016 23:41 -0,6 C -1,1 C 90 % 1024,0 hPa 0,0 mm 7,5 km/h (2 Bft) NO 45 0 min -2,0 C 8,0 km/h (2 Bft)
16.02.2016 23:42 -0,6 C -1,1 C 90 % 1024,0 hPa 0,0 mm 7,5 km/h (2 Bft) NO 45 0 min -2,0 C 8,0 km/h (2 Bft)
16.02.2016 23:43 -0,6 C -1,2 C 96 % 1023,9 hPa 0,0 mm 7,5 km/h (2 Bft) O-NO 67 0 min -1,2 C 8,6 km/h (2 Bft)
16.02.2016 23:44 -0,6 C -1,2 C 96 % 1023,9 hPa 0,0 mm 7,5 km/h (2 Bft) O-NO 67 0 min -1,2 C 8,6 km/h (2 Bft)
16.02.2016 23:45 -0,6 C -1,1 C 90 % 1023,9 hPa 0,0 mm 6,6 km/h (2 Bft) NO 45 0 min -2,0 C 3,3 km/h (1 Bft)
16.02.2016 23:46 -0,6 C -1,1 C 90 % 1023,9 hPa 0,0 mm 6,6 km/h (2 Bft) NO 45 0 min -2,0 C 3,3 km/h (1 Bft)
16.02.2016 23:47 -0,6 C -1,3 C 96 % 1023,9 hPa 0,0 mm 7,7 km/h (2 Bft) O-NO 67 0 min -1,2 C 14,9 km/h (3 Bft)
16.02.2016 23:48 -0,6 C -1,3 C 96 % 1023,9 hPa 0,0 mm 7,7 km/h (2 Bft) O-NO 67 0 min -1,2 C 14,9 km/h (3 Bft)
16.02.2016 23:49 -0,6 C -1,3 C 96 % 1023,9 hPa 0,0 mm 8,0 km/h (2 Bft) NO 45 0 min -1,2 C 8,9 km/h (2 Bft)
16.02.2016 23:50 -0,6 C -1,3 C 96 % 1023,9 hPa 0,0 mm 8,0 km/h (2 Bft) NO 45 0 min -1,2 C 8,9 km/h (2 Bft)
16.02.2016 23:51 -0,6 C -1,3 C 96 % 1023,9 hPa 0,0 mm 8,3 km/h (2 Bft) O-NO 67 0 min -1,2 C 8,3 km/h (2 Bft)
16.02.2016 23:52 -0,6 C -1,3 C 96 % 1023,9 hPa 0,0 mm 8,3 km/h (2 Bft) O-NO 67 0 min -1,2 C 8,3 km/h (2 Bft)
16.02.2016 23:53 -0,6 C -1,3 C 96 % 1023,9 hPa 0,0 mm 8,0 km/h (2 Bft) NO 45 0 min -1,2 C 9,8 km/h (2 Bft)
16.02.2016 23:54 -0,6 C -1,3 C 96 % 1023,9 hPa 0,0 mm 8,0 km/h (2 Bft) NO 45 0 min -1,2 C 9,8 km/h (2 Bft)
16.02.2016 23:55 -0,6 C -1,3 C 96 % 1023,9 hPa 0,0 mm 7,7 km/h (2 Bft) NO 45 0 min -1,2 C 10,1 km/h (2 Bft)
16.02.2016 23:56 -0,6 C -1,3 C 96 % 1023,9 hPa 0,0 mm 7,7 km/h (2 Bft) NO 45 0 min -1,2 C 10,1 km/h (2 Bft)
16.02.2016 23:57 -0,6 C -1,3 C 96 % 1023,9 hPa 0,0 mm 8,0 km/h (2 Bft) NO 45 0 min -1,2 C 7,2 km/h (2 Bft)
16.02.2016 23:58 -0,6 C -1,3 C 96 % 1023,9 hPa 0,0 mm 8,0 km/h (2 Bft) NO 45 0 min -1,2 C 7,2 km/h (2 Bft)
16.02.2016 23:59 -0,7 C -1,1 C 90 % 1023,9 hPa 0,0 mm 6,9 km/h (2 Bft) N-NO 22 0 min -2,1 C 6,9 km/h (2 Bft)
_ Min-Zeit 14:34 08:28 04:24 00:02 - 00:30 - - - 10:22 19:22
Minimum _ -0,9 C -1,5 C 86 % 1020,6 hPa - 2,1 km/h (1 Bft) - - - -2,8 C 0,0 km/h (0 Bft)
_ Max-Zeit 00:16 00:18 23:58 11:42 23:59 20:44 - - 23:59 00:16 20:34
Maximum _ 1,1 C 0,9 C 96 % 1027,8 hPa 0,0 mm 12,2 km/h
N-NO (2 Bft)
- - 0 min -0,7 C 26,5 km/h
O-NO (4 Bft)
Durchschnitt _ -0,3 C -0,6 C 90 % 1025,7 hPa #0,0 mm 6,8 km/h (2 Bft) O-NO - #0 min. -1,7 C 8,9 km/h (2 Bft)